GFSCGP_sfc_dewp_000.txt.gz
Dewpoint
26 23 20 19 21 17 14 15 15 16 17 18 16 16 17 18 21 19 18 19 21 21 22 23 23 24 27 27 27 25 25 29 33 33 31 31 31 31 31 31 29 29 29 29
25 23 23 22 21 21 21 19 17 18 20 19 19 18 18 19 19 18 18 18 18 19 19 19 20 23 26 26 26 25 24 26 30 31 31 30 30 30 29 31 28 27 28 27
21 20 26 24 22 20 20 20 18 18 20 20 18 15 18 19 20 19 20 19 19 19 19 19 20 23 25 26 25 25 24 24 27 29 29 26 25 26 27 28 27 25 26 27
24 25 23 24 21 21 17 21 20 20 19 15 18 11 12 14 13 14 14 15 17 18 20 21 21 23 23 25 27 25 25 24 26 27 27 25 25 25 26 26 28 26 25 25
19 21 23 23 22 22 20 20 19 20 19 19 18 14 19 14 13 13 14 15 17 17 17 18 18 19 23 24 26 26 24 24 25 26 26 25 25 26 25 26 26 26 24 24
24 23 22 21 23 23 22 20 20 22 19 17 17 14 11 11 12 16 11 12 15 16 18 19 20 21 22 25 25 24 24 24 25 25 25 24 24 23 24 24 25 25 23 23
19 19 22 22 21 23 20 19 16 14 16 15 17 15 12 12 14 13 13 14 16 19 19 19 21 22 23 24 23 23 24 24 24 24 24 24 24 23 22 22 23 23 23 22
20 25 19 21 20 18 20 19 19 15 13 16 18 15 19 16 16 17 16 18 18 19 19 20 24 24 24 24 23 22 23 23 23 24 24 24 23 23 22 22 23 23 23 22
18 19 20 21 20 18 17 18 21 21 23 20 17 18 18 20 16 15 16 19 21 20 20 19 23 24 24 24 24 23 23 24 23 23 24 24 23 23 22 21 22 22 22 21
22 19 22 19 22 21 18 20 18 20 17 16 16 15 17 17 17 17 18 20 27 26 22 20 22 26 25 25 24 23 23 23 24 24 23 23 23 23 22 22 21 21 21 20
22 27 26 28 22 22 24 19 19 19 22 18 18 17 18 17 18 19 24 27 27 27 28 29 29 29 29 28 26 25 24 24 24 24 24 24 24 23 23 22 22 21 21 19
25 34 31 28 30 25 21 24 22 21 19 19 20 20 23 22 23 28 29 30 30 28 26 28 29 29 29 31 33 31 28 26 26 25 24 24 24 23 22 22 21 21 20 20
37 34 28 28 25 31 31 32 31 31 32 28 25 25 26 24 25 27 23 18 19 19 21 22 25 26 27 28 30 29 29 28 28 27 26 25 24 23 23 22 21 21 21 20
38 34 30 25 24 29 30 31 33 33 29 27 28 27 28 24 23 22 19 12 11 13 17 20 23 26 28 29 29 29 28 27 28 28 27 25 25 24 23 23 22 21 21 20
35 30 30 29 33 33 31 30 28 28 28 26 26 27 26 21 22 22 22 17 15 15 20 25 27 28 31 29 29 28 29 28 28 27 27 27 27 25 25 25 25 23 22 20
32 27 28 23 23 21 22 25 24 24 23 25 26 22 20 20 18 16 18 22 16 18 23 28 25 31 27 26 28 28 29 30 29 28 28 27 28 27 26 26 26 23 22 21
27 26 23 18 19 20 15 18 20 20 18 22 18 18 21 18 13 6 12 23 15 23 26 29 24 24 24 26 29 27 29 31 29 29 29 28 27 27 27 26 25 23 22 21
24 22 19 17 12 8 13 22 23 22 21 22 21 19 21 19 15 13 26 15 16 19 26 24 20 20 23 24 26 27 30 29 29 29 28 27 26 25 25 23 24 23 21 21
24 21 12 10 3 9 13 16 15 16 19 20 18 19 21 19 19 3 8 16 21 22 27 20 20 21 22 23 24 28 23 25 28 29 29 27 25 23 23 22 22 22 22 21
15 23 18 7 6 -3 15 13 18 20 10 16 19 20 21 19 7 5 10 19 21 23 19 16 15 19 22 22 25 21 21 23 21 25 27 27 24 21 20 20 19 21 22 22
-2 -4 5 2 -2 1 13 15 12 2 2 11 20 21 19 17 14 14 18 18 21 21 13 12 12 11 13 22 17 16 19 18 19 21 20 26 26 23 21 21 18 19 20 19
3 -4 -9 -10 -10 -11 16 10 2 6 15 14 14 19 19 18 18 20 17 15 16 11 10 10 9 8 10 12 13 14 13 13 15 17 19 22 23 24 21 20 18 18 19 18
2 6 -2 1 -1 12 16 14 14 18 15 16 19 22 19 19 17 16 13 13 12 10 9 9 11 10 10 11 12 10 10 10 11 13 14 15 18 23 22 21 20 18 18 16
11 10 7 9 8 9 10 12 13 14 13 14 19 20 19 17 14 12 11 11 9 10 10 11 10 9 9 9 9 8 7 7 7 7 7 9 12 16 22 20 20 18 18 17
11 13 10 10 9 10 12 12 12 13 14 16 17 14 13 12 11 10 10 10 9 9 8 8 8 7 6 6 5 4 4 3 2 3 4 5 8 11 17 19 19 18 19 19
13 10 8 7 8 8 8 11 15 15 15 13 11 11 11 11 10 8 7 6 6 6 6 5 4 3 2 1 1 0 0 -1 -1 -1 -0 1 5 8 12 18 17 22 23 23

GFSCGP_sfc_dewp_003.txt.gz
Dewpoint
28 23 21 20 21 18 15 14 14 15 17 19 17 17 18 19 20 19 19 19 19 21 22 24 26 28 29 30 31 31 31 39 45 45 44 40 40 40 38 38 37 33 32 32
25 23 23 22 22 21 20 19 18 19 20 19 20 18 18 19 19 19 19 19 21 21 21 22 23 25 26 28 30 30 28 33 40 42 42 39 40 39 37 36 34 32 33 31
22 23 26 24 22 20 21 19 18 18 20 20 18 16 19 17 21 21 21 22 21 21 20 20 21 23 28 28 30 28 28 29 35 37 37 29 31 30 31 31 31 30 31 31
24 26 23 24 21 21 19 21 21 20 18 15 17 12 16 15 15 17 17 18 17 19 19 20 21 22 23 28 30 29 29 27 31 34 33 32 31 30 31 32 31 29 29 29
20 23 23 23 22 22 21 21 20 20 20 18 18 14 14 15 14 15 15 18 17 19 22 20 22 24 24 27 29 29 28 27 29 31 31 31 30 30 29 31 30 29 28 29
24 24 22 20 22 22 22 21 20 22 19 16 17 14 15 12 13 13 15 17 18 20 21 22 24 26 25 27 26 28 26 25 27 29 29 29 29 28 27 28 29 28 27 27
21 21 23 22 20 22 22 19 16 15 16 15 18 15 15 15 16 16 15 16 21 23 22 23 24 25 26 27 26 24 25 24 25 27 27 28 28 27 27 27 28 27 26 25
24 26 21 22 21 20 21 19 20 16 17 18 20 19 22 20 21 20 19 21 27 26 24 27 28 29 29 29 28 25 24 25 25 25 26 27 27 26 25 26 28 27 26 26
22 21 20 22 21 20 19 18 23 22 24 22 18 20 22 25 18 25 28 27 27 27 28 29 29 29 31 32 30 28 26 25 25 25 25 26 26 25 25 25 26 27 27 25
27 29 24 24 24 21 20 21 19 21 16 16 17 16 18 21 27 28 27 25 21 21 22 26 28 29 29 31 31 30 29 28 27 26 25 24 25 25 25 24 24 25 26 25
23 27 26 28 23 19 21 19 19 20 22 17 17 20 24 28 28 26 19 14 14 15 19 22 25 28 29 29 29 28 29 28 28 28 28 27 26 25 25 24 23 24 24 23
26 31 29 29 29 26 25 25 26 28 25 22 23 25 27 26 25 20 8 8 11 14 19 21 23 27 30 29 29 29 29 28 28 29 29 29 27 26 25 24 24 24 23 23
36 32 26 25 24 31 30 30 28 31 32 27 24 25 27 22 21 21 19 13 13 13 16 23 24 25 31 28 28 28 27 29 29 29 29 29 28 28 27 25 25 24 23 23
37 34 31 23 21 26 27 28 31 31 27 24 26 29 28 21 19 18 21 22 17 16 16 21 26 23 29 23 24 27 26 28 31 29 29 28 28 28 28 28 27 26 24 23
33 30 32 32 31 29 28 27 26 25 25 23 23 23 25 19 19 18 15 23 18 12 17 22 27 23 23 19 20 23 24 28 31 29 29 28 29 28 28 29 29 29 27 23
31 28 26 20 25 23 21 21 21 20 20 22 22 24 19 20 19 14 5 22 15 10 17 22 29 22 22 19 21 22 24 27 27 28 29 29 29 28 27 28 27 27 28 26
29 28 22 19 21 19 17 17 16 15 16 17 15 15 19 18 16 11 9 23 13 12 15 17 27 20 19 19 22 22 25 29 25 27 27 29 29 27 25 27 27 25 26 26
27 23 23 18 12 9 14 20 20 19 20 20 18 16 19 19 18 17 19 20 10 14 18 19 25 19 15 19 21 21 26 23 22 25 25 25 24 22 25 26 26 25 25 25
24 20 10 10 5 8 12 15 15 15 14 20 16 17 18 21 19 17 14 8 11 18 21 23 22 18 15 16 18 21 24 19 19 20 20 21 20 19 24 25 24 24 23 24
17 22 17 1 2 -6 10 12 18 14 5 16 14 12 13 19 13 8 8 12 18 20 20 22 17 13 13 12 16 19 19 13 15 17 17 17 17 19 23 22 24 24 22 22
-4 0 14 12 11 6 11 15 15 -1 1 14 14 15 16 18 17 15 15 18 19 19 19 16 13 10 8 9 14 13 12 12 13 15 13 12 13 15 18 20 23 23 22 21
4 -4 -10 -11 -8 -3 14 11 5 9 16 14 15 15 14 17 19 19 17 18 15 14 13 12 9 8 7 8 11 11 10 10 12 10 8 8 8 10 13 14 17 22 21 20
5 6 0 2 0 10 15 15 13 15 16 15 15 15 17 18 19 18 16 15 13 12 10 9 11 10 8 10 10 9 9 8 7 5 3 3 4 6 8 10 13 18 21 19
11 9 6 8 7 8 9 10 12 14 16 15 15 16 19 19 18 15 12 12 10 11 11 11 9 7 6 7 8 6 4 4 1 -0 -1 0 1 2 4 6 9 14 19 20
12 12 10 10 10 11 11 12 12 12 14 14 16 15 14 13 12 11 11 11 9 8 7 7 5 4 2 2 1 0 -0 -1 -3 -3 -3 -3 -3 -2 0 3 7 11 18 20
13 12 10 9 10 9 9 11 14 15 15 13 12 11 13 13 11 8 6 5 5 4 4 1 -1 -2 -3 -3 -4 -4 -5 -5 -6 -7 -7 -7 -5 -4 -3 -1 2 11 15 19

GFSCGP_sfc_dewp_006.txt.gz
Dewpoint
29 23 21 20 21 18 18 17 16 17 18 20 18 18 18 19 19 19 19 19 20 21 22 21 24 26 28 29 31 31 33 38 46 49 50 50 50 50 49 49 47 45 42 39
25 23 24 24 23 22 21 20 19 19 20 20 18 18 19 20 20 20 20 20 21 20 19 22 24 27 28 29 30 31 32 33 42 45 47 48 47 48 47 48 46 44 42 38
22 22 26 24 22 21 21 20 20 19 21 20 19 19 19 16 20 18 19 20 18 21 22 23 25 27 29 29 31 29 30 31 35 42 44 44 39 42 44 45 44 42 40 38
25 26 23 24 22 22 20 22 22 21 19 19 18 17 20 18 16 17 18 19 20 23 24 25 27 28 29 29 30 30 31 30 31 37 39 40 38 37 38 38 40 40 39 37
20 25 25 24 23 23 20 22 20 20 20 20 17 15 17 17 15 15 17 22 26 25 27 28 31 32 31 32 32 29 28 28 29 32 35 35 36 36 35 34 36 37 37 37
24 25 23 21 23 23 23 22 21 23 21 18 18 16 15 12 14 17 20 26 27 28 29 29 31 32 31 32 31 31 28 26 27 29 31 32 33 33 32 32 33 34 34 34
25 22 24 22 21 23 22 21 23 20 22 19 18 17 15 16 20 23 26 26 26 27 28 28 29 29 31 30 31 29 29 27 28 27 27 28 29 30 30 30 30 32 32 31
25 26 24 24 24 27 23 23 22 21 21 20 23 18 18 23 28 27 27 25 24 24 26 28 29 29 28 28 28 28 28 28 29 29 28 27 27 26 26 28 29 30 31 31
29 28 22 23 22 22 22 20 23 25 31 23 18 18 21 27 27 27 24 22 20 22 23 25 27 28 26 27 27 26 25 26 28 29 29 29 28 28 26 27 28 28 31 29
31 31 33 28 23 23 21 23 22 21 20 21 16 16 17 23 27 25 21 19 17 19 21 22 24 27 26 26 26 24 26 25 25 28 29 29 30 29 28 28 28 27 29 30
31 33 29 29 26 24 22 19 19 20 22 22 22 19 23 27 27 23 18 16 17 18 19 21 20 25 27 25 26 23 22 24 24 25 26 28 29 29 29 29 28 28 28 27
31 32 31 28 30 27 26 26 25 25 24 22 23 21 28 27 24 20 13 14 15 16 15 17 22 19 25 21 22 24 23 24 25 24 25 26 26 27 27 28 29 30 28 28
37 35 30 29 28 32 30 30 28 27 33 30 27 26 27 26 24 21 22 17 17 17 10 12 23 17 15 16 17 17 20 20 25 23 25 26 28 27 25 25 29 30 30 28
38 35 31 25 24 25 26 28 29 29 28 26 26 24 24 28 24 21 17 16 19 12 9 11 18 19 14 15 12 13 14 16 22 20 23 24 26 26 25 25 26 29 30 30
34 32 31 33 33 33 32 32 29 28 28 26 24 25 26 30 25 18 9 6 16 4 4 9 13 21 16 13 11 12 10 15 21 17 20 22 24 25 25 26 27 28 28 29
31 29 27 25 25 26 27 26 27 25 23 22 21 19 21 15 14 12 4 3 15 2 4 8 11 16 19 14 11 13 12 15 23 22 23 23 27 28 25 24 25 26 26 27
29 28 26 21 24 21 21 23 21 18 18 16 13 19 20 11 10 8 7 7 12 4 6 9 12 13 20 19 13 13 14 17 26 25 24 25 25 24 22 21 22 25 23 25
26 27 26 20 21 13 15 16 17 15 18 21 20 20 20 13 8 16 14 14 12 6 8 10 14 14 18 18 13 13 18 21 24 24 22 23 22 21 19 18 19 24 23 23
26 22 21 17 15 13 11 10 13 14 13 22 20 12 7 9 18 13 14 14 14 10 12 16 17 18 16 12 12 15 18 17 20 19 17 19 20 19 16 16 16 19 21 22
16 22 18 13 10 4 2 11 15 9 9 24 19 14 12 12 4 2 7 10 12 10 17 17 17 16 13 10 9 13 13 14 14 15 15 16 17 16 14 14 15 17 20 21
11 16 15 15 12 12 17 17 17 8 10 23 19 17 15 11 10 12 13 13 14 18 19 17 16 13 10 9 14 13 12 12 13 15 15 15 14 13 12 12 13 14 15 16
1 7 10 8 8 5 14 13 10 12 17 19 15 13 12 13 13 13 14 15 18 18 15 13 11 9 7 10 13 12 10 11 12 12 10 10 10 9 9 8 9 10 12 13
8 10 9 8 8 9 16 17 15 17 20 18 15 14 14 14 13 12 15 18 15 13 11 12 14 12 8 11 11 10 9 8 7 6 4 4 4 5 5 5 6 7 9 10
12 11 10 12 9 11 10 11 11 13 14 15 14 16 15 15 16 18 15 14 11 13 13 12 11 9 7 7 7 6 5 4 2 -0 -0 0 -0 1 1 2 2 4 5 7
11 11 12 13 11 11 12 13 13 14 14 13 15 16 15 14 13 11 11 11 9 8 7 7 6 4 3 3 2 2 1 0 -2 -2 -2 -2 -2 -2 -2 -1 -0 1 4 6
13 11 10 10 10 10 10 13 14 14 14 15 14 13 12 9 8 6 6 5 4 4 3 2 1 1 0 -0 -1 -1 -1 -2 -3 -2 -3 -4 -4 -4 -4 -4 -4 3 7 10

GFSCGP_sfc_dewp_009.txt.gz
Dewpoint
29 23 22 22 23 21 20 20 19 20 21 22 21 19 19 21 20 19 19 18 20 20 24 27 29 30 30 32 32 31 32 34 40 47 50 52 53 53 54 54 53 51 49 47
26 23 23 24 24 23 21 20 20 22 20 21 21 21 22 22 20 19 18 19 23 24 26 28 30 31 30 30 30 31 32 33 36 44 47 48 49 51 51 52 52 50 49 46
24 26 25 24 24 22 21 21 21 21 21 23 21 20 22 22 20 18 18 22 24 25 27 30 31 31 32 32 31 29 30 31 34 40 43 45 46 43 45 48 49 48 47 46
26 26 25 24 22 21 21 22 22 22 22 21 22 18 20 19 18 19 24 27 26 28 29 31 31 30 31 32 33 30 30 29 31 35 37 40 42 39 40 40 44 46 46 45
24 25 25 25 23 23 21 22 21 22 24 24 22 18 17 18 17 17 26 27 28 29 29 29 31 31 31 33 33 32 31 30 29 30 33 34 34 36 37 36 36 39 42 43
23 25 23 23 23 24 23 22 22 24 24 22 22 19 15 14 16 20 26 27 28 28 29 29 30 30 29 31 31 32 30 30 31 30 29 29 30 31 33 34 34 35 37 40
26 25 25 24 23 25 23 21 23 24 25 23 20 18 17 17 22 23 26 25 26 28 28 29 29 28 29 29 29 27 28 29 30 31 30 31 30 29 28 29 31 33 34 36
25 23 26 25 25 26 27 25 27 24 23 23 26 22 20 26 27 26 25 24 25 25 26 27 27 27 26 28 27 27 26 25 27 29 30 32 31 30 29 29 30 31 32 34
26 25 27 25 25 24 24 22 26 26 29 26 22 22 21 28 26 24 23 22 22 23 24 24 25 27 26 26 25 24 24 24 23 24 28 29 29 30 31 31 31 31 32 29
30 28 30 28 24 25 26 32 32 29 25 23 17 16 16 20 25 24 22 21 21 21 21 22 21 26 25 24 25 23 22 22 22 22 24 25 25 26 26 29 32 32 31 31
31 32 28 30 26 24 23 22 23 21 22 21 19 17 19 25 27 24 21 19 20 19 18 18 21 19 23 20 21 22 21 20 21 21 23 26 25 23 22 23 25 29 32 31
32 32 31 26 27 29 30 26 25 24 25 24 24 26 27 27 26 24 19 18 18 19 10 10 20 13 13 15 16 16 16 19 21 18 20 24 24 26 24 21 22 27 27 30
36 33 29 27 23 32 31 27 28 29 29 27 25 24 27 27 25 25 24 19 19 18 10 7 12 12 8 9 10 9 9 13 18 17 19 21 23 24 23 23 24 25 26 27
37 30 29 24 21 25 28 28 31 33 29 28 26 24 25 26 27 28 24 21 21 19 9 7 10 12 13 10 9 7 7 7 15 17 17 21 23 22 22 22 22 23 25 25
33 30 28 28 27 27 27 26 25 25 25 23 23 25 27 28 26 24 28 15 11 15 4 5 8 11 13 14 12 10 9 12 13 14 20 18 21 21 24 25 23 22 24 24
27 26 26 25 24 23 23 23 23 24 24 23 22 20 19 17 16 16 15 7 4 12 2 5 8 10 11 13 16 13 11 13 15 19 23 21 23 24 24 24 22 20 20 23
25 26 23 18 19 19 18 20 19 19 19 18 15 21 22 16 12 12 12 9 1 7 4 5 9 11 13 14 18 16 13 17 22 23 24 25 23 22 22 21 19 17 17 18
23 24 23 19 19 12 14 10 13 13 15 20 23 22 18 10 6 8 11 11 8 7 8 6 11 13 14 16 15 13 19 20 20 21 21 23 21 19 19 19 17 15 15 16
21 20 18 17 15 13 13 12 10 10 12 17 21 10 5 6 8 5 3 7 9 10 11 13 16 17 16 15 15 16 17 17 16 16 17 17 18 18 17 17 16 14 15 15
11 16 17 17 12 6 3 9 14 10 9 27 22 15 13 9 5 4 6 12 11 9 12 17 20 18 16 14 12 15 14 15 14 14 14 15 16 16 15 14 14 14 14 13
12 17 16 16 14 12 21 18 13 10 13 27 21 17 16 11 11 13 15 12 14 19 20 20 18 14 12 11 14 13 13 11 12 13 12 12 12 11 11 11 11 11 10 10
1 9 12 12 9 4 15 14 11 14 21 22 15 13 13 13 15 15 13 13 15 19 19 16 13 12 10 10 13 11 9 9 10 9 7 6 6 6 6 5 5 5 5 5
7 8 9 11 7 9 14 15 16 20 23 19 16 16 15 15 12 12 13 15 18 15 13 14 15 12 9 12 11 8 8 8 6 4 2 1 2 2 2 1 1 1 2 2
11 10 10 14 9 11 12 13 13 14 15 15 15 17 16 15 15 14 17 16 14 15 14 13 12 10 9 8 8 7 5 5 2 -0 -0 -0 -1 -1 -0 -0 -0 -1 -1 -1
14 10 13 13 11 12 12 13 14 15 15 15 15 15 15 16 15 14 14 14 11 10 9 9 8 6 5 5 4 4 3 2 0 -1 -1 -2 -2 -2 -2 -1 -2 -2 0 2
13 11 9 10 10 9 9 13 14 14 14 17 18 18 15 13 12 9 9 8 6 6 5 5 4 3 3 2 1 1 1 1 -2 -4 -5 -5 -5 -5 -5 -5 -4 3 6 8

GFSCGP_sfc_dewp_012.txt.gz
Dewpoint
31 26 25 24 24 22 23 22 21 21 22 23 22 21 21 22 23 22 19 21 25 26 30 31 32 31 31 29 29 31 32 34 39 48 50 51 52 53 54 54 53 53 52 50
29 26 26 26 27 25 24 22 21 22 24 21 21 22 24 24 24 22 22 25 26 28 30 30 31 31 31 30 29 29 30 32 36 43 46 48 46 47 47 52 52 51 50 48
26 27 28 27 26 25 24 22 22 22 24 23 22 22 23 25 24 22 25 26 28 29 30 30 30 31 31 31 30 30 29 30 32 36 42 44 44 42 44 44 47 50 49 48
28 29 27 27 25 25 23 24 24 24 22 21 23 20 22 22 19 26 26 28 28 29 30 30 29 30 31 31 32 30 31 31 30 31 33 35 38 38 40 41 40 41 46 46
29 27 27 26 25 25 25 25 23 23 24 25 24 22 21 22 20 26 27 28 28 29 29 29 29 29 30 30 31 31 31 31 31 31 31 31 32 34 35 36 34 35 40 43
26 26 26 26 26 26 26 25 24 23 25 24 24 21 20 19 21 25 26 27 28 29 29 29 30 29 29 30 29 28 29 30 31 31 31 31 30 30 30 31 32 34 35 38
27 26 26 26 24 26 25 23 24 22 23 22 22 21 20 21 23 26 26 26 28 28 28 28 27 27 28 28 29 26 26 25 28 30 30 30 30 30 30 30 31 31 32 34
27 24 27 25 26 27 27 27 28 22 19 21 26 23 23 27 27 26 25 25 25 25 26 27 27 26 27 27 25 25 25 24 24 25 28 28 27 28 30 31 31 32 31 32
24 24 27 27 27 26 25 24 29 25 23 23 23 24 25 27 25 23 23 23 23 24 24 23 27 26 25 26 25 23 23 23 23 24 25 25 24 24 24 27 30 30 32 30
31 28 30 27 26 27 25 31 29 30 23 19 22 21 20 26 25 23 22 22 22 22 22 22 21 25 22 23 24 22 21 22 22 23 25 25 25 24 22 22 24 26 28 30
31 32 28 30 28 28 25 25 30 27 25 20 17 17 20 26 26 24 23 22 21 20 15 19 19 15 18 19 19 18 20 21 22 20 22 24 25 26 24 22 22 24 26 27
34 32 28 27 29 31 29 29 28 26 23 25 23 23 27 27 26 25 20 20 18 19 9 12 17 12 12 15 14 14 14 19 21 19 19 22 23 24 23 23 23 24 25 27
35 31 25 22 24 32 31 29 28 28 28 25 24 21 26 26 25 25 24 19 19 20 12 9 10 12 10 10 11 8 9 12 19 19 18 18 21 22 22 22 21 22 23 24
37 31 26 20 19 22 23 26 28 29 27 24 24 24 29 27 30 33 28 25 23 20 14 9 10 10 12 13 10 10 10 12 16 16 19 20 20 21 21 23 23 22 21 21
33 25 26 28 27 26 26 24 24 24 23 23 21 20 20 21 22 19 20 20 13 18 8 7 9 11 10 12 15 13 11 13 16 16 18 18 21 21 22 23 23 22 21 20
28 20 24 19 24 24 22 22 22 21 19 18 19 19 21 17 15 14 16 12 7 6 10 5 8 10 12 12 15 18 15 15 18 18 20 21 23 23 22 21 21 20 19 18
23 20 12 15 19 18 11 17 16 16 17 17 16 18 21 18 15 11 12 12 10 6 8 5 8 11 14 15 17 17 16 17 20 21 20 21 22 22 22 20 19 18 17 16
23 17 15 8 9 1 10 13 13 13 15 18 19 17 19 12 8 12 11 12 12 10 10 10 10 13 16 18 17 15 18 20 20 19 18 18 18 17 17 16 15 15 15 15
22 22 18 8 6 10 11 11 10 10 10 15 17 19 7 9 8 6 8 11 11 11 13 14 15 18 17 17 15 18 18 19 18 16 16 16 16 15 14 13 12 13 13 12
12 18 17 7 4 -4 5 13 13 11 6 17 17 13 13 14 9 8 12 14 13 13 13 21 19 19 16 14 14 16 15 15 12 12 12 12 12 10 9 9 9 9 8 9
6 6 10 12 9 9 17 17 12 3 6 19 16 18 17 13 13 15 16 15 15 16 18 20 17 14 13 13 15 12 10 9 10 10 9 8 7 6 5 4 4 3 3 4
4 3 2 2 -2 1 16 14 10 14 23 23 20 16 15 15 16 16 15 15 15 19 17 16 15 13 11 12 12 8 6 8 8 6 5 3 1 2 2 0 -0 -0 -0 -1
5 8 5 7 8 14 16 16 19 19 20 21 20 18 16 16 14 14 14 15 17 15 14 14 12 11 10 11 10 7 6 6 5 2 -0 -1 -0 0 0 -1 -2 -2 -2 -2
12 11 10 10 9 11 11 13 14 15 16 16 15 16 17 16 16 15 16 17 15 16 14 13 10 7 6 7 8 4 4 4 0 -2 -1 -1 -2 -3 -3 -3 -2 -3 -3 -3
13 13 12 12 12 12 12 14 14 14 14 15 15 16 16 16 16 15 16 16 14 13 11 10 7 6 4 4 3 -0 2 0 -1 -1 -2 -3 -4 -5 -5 -5 -5 -3 -1 1
14 11 10 9 11 10 10 13 15 15 15 15 16 17 17 17 16 13 13 12 10 9 8 6 4 3 1 -1 -1 -1 -5 -4 -2 -3 -3 -4 -5 -5 -6 -6 -5 3 7 9

GFSCGP_sfc_dewp_015.txt.gz
Dewpoint
30 25 23 22 24 22 21 22 21 22 23 23 22 23 23 22 22 22 24 27 30 30 30 31 31 32 31 30 30 29 31 34 38 44 48 49 50 51 52 54 54 54 55 54
27 25 26 26 27 25 24 22 21 22 24 21 21 21 23 24 24 23 26 28 30 30 30 30 31 31 31 30 30 31 30 30 33 38 43 44 43 43 45 47 50 51 51 51
26 26 28 26 25 25 25 23 22 21 23 23 21 22 22 24 25 27 28 29 30 30 29 29 29 30 30 30 30 31 31 31 31 32 34 37 39 40 39 42 43 42 47 48
27 27 27 27 27 26 23 25 25 24 21 19 26 20 22 23 25 27 28 28 29 29 29 28 28 29 29 29 30 30 31 31 31 31 31 31 32 32 35 36 36 36 39 45
28 26 25 25 25 25 24 24 22 22 22 24 24 22 23 24 25 26 27 28 28 29 29 28 28 29 29 28 27 28 30 30 31 31 31 31 30 31 32 32 31 32 34 37
26 25 25 25 25 25 25 23 23 24 25 22 24 23 21 19 24 26 27 28 28 29 28 28 29 28 28 28 26 26 25 28 29 29 28 30 30 30 31 31 31 31 32 33
27 26 26 24 23 25 23 21 24 21 21 21 25 23 23 24 26 26 27 28 28 28 27 26 26 26 26 25 25 24 24 24 25 26 26 26 27 29 29 29 31 31 31 31
26 25 25 25 24 26 24 26 26 21 19 20 25 22 23 26 26 26 27 27 26 26 27 27 26 26 25 24 24 23 23 23 24 25 24 24 24 23 23 26 28 29 28 30
30 27 27 27 26 28 26 25 29 25 20 22 24 24 26 26 24 24 24 24 24 24 24 26 26 25 25 24 22 22 22 22 23 25 25 25 24 22 21 22 24 26 27 24
30 27 31 27 28 28 27 32 27 28 17 16 21 22 24 25 23 23 22 23 23 23 22 21 24 22 22 22 22 21 22 21 20 22 24 25 25 25 23 22 22 23 25 25
31 31 29 29 28 27 26 25 30 29 27 19 16 18 24 26 25 22 22 22 20 18 16 22 16 19 19 19 17 18 20 20 19 19 20 23 24 24 23 22 22 22 23 24
33 32 25 29 29 31 29 28 27 26 22 24 24 22 26 25 24 23 21 20 20 18 9 19 15 14 15 14 15 13 17 19 19 18 18 19 21 22 21 22 22 22 21 22
35 30 21 21 21 31 30 29 28 28 30 26 24 22 26 25 24 21 20 20 19 20 11 10 13 9 10 9 10 9 10 15 17 18 19 18 19 19 20 20 22 23 22 21
36 33 24 18 16 24 24 25 26 26 25 21 22 23 22 22 27 26 27 26 20 20 13 9 10 10 13 12 10 10 10 12 16 16 17 18 19 20 21 21 22 23 22 21
32 25 28 27 27 26 26 25 25 24 24 22 19 20 21 22 19 18 16 23 22 20 13 11 11 12 10 10 14 13 12 13 15 16 17 17 18 18 20 20 21 21 21 19
30 21 24 17 24 24 22 22 22 22 22 21 21 18 16 17 15 14 16 12 8 11 12 9 9 11 12 11 13 17 16 16 17 17 19 20 20 21 21 20 20 20 18 17
25 21 14 13 21 18 10 15 12 12 11 14 12 16 19 17 15 10 9 10 10 3 6 6 8 11 13 13 16 16 15 17 19 19 18 18 20 19 19 19 18 15 14 14
24 18 12 6 5 -2 8 12 13 14 15 17 19 16 18 17 8 10 10 10 10 11 10 9 11 10 17 18 16 15 18 19 19 18 16 17 18 17 16 13 12 11 11 11
27 20 7 5 -4 8 10 10 9 8 6 15 12 19 14 9 9 7 7 11 11 10 12 14 14 17 17 16 15 17 17 18 18 15 16 16 14 11 10 8 8 8 8 7
20 23 15 4 7 -1 8 13 13 11 5 11 12 15 13 13 9 9 11 14 13 13 14 19 19 18 15 13 14 15 15 15 13 13 12 10 10 7 6 5 4 4 4 5
1 1 15 14 12 9 15 16 12 1 3 15 15 15 16 14 13 14 16 15 16 17 17 19 16 13 11 14 13 11 11 9 11 11 8 7 6 4 3 2 2 1 1 1
6 4 -1 -3 -7 1 15 14 8 11 23 20 17 16 15 16 17 16 15 16 16 19 17 16 14 12 11 12 10 9 7 9 7 5 4 2 -0 0 2 -1 -1 -1 -2 -2
3 8 3 8 7 14 17 12 16 20 18 21 17 17 17 18 15 15 14 15 18 16 15 13 11 10 9 9 9 7 6 5 4 -2 -5 -4 -2 -0 -0 -3 -4 -4 -4 -4
11 11 10 8 9 12 13 15 14 17 18 18 19 19 18 16 15 15 15 16 16 15 13 12 8 6 5 6 8 3 3 3 -7 -10 -4 -1 -2 -3 -3 -3 -4 -5 -5 -5
11 13 10 11 11 11 13 13 14 16 16 15 15 15 15 16 16 16 17 18 16 13 11 8 6 6 5 5 2 -2 1 -4 -6 -4 -2 -2 -2 -4 -4 -3 -4 -3 -0 2
13 11 9 9 10 11 10 12 15 16 16 17 17 16 18 18 17 16 16 14 12 9 7 6 4 3 -0 -3 -4 -6 -8 -11 -10 -4 -3 -3 -3 -4 -4 -5 -5 3 7 9

GFSCGP_sfc_dewp_018.txt.gz
Dewpoint
30 24 20 22 25 20 20 21 20 22 23 22 22 22 23 24 23 25 27 29 29 29 30 30 30 31 30 31 31 31 31 32 37 43 46 45 45 45 47 50 51 53 55 55
27 22 23 24 25 24 23 22 22 23 24 22 21 21 23 24 24 24 28 29 29 29 28 28 28 29 29 30 31 31 31 31 32 35 41 42 41 42 42 41 38 38 48 51
25 25 28 26 25 24 24 23 22 22 24 23 23 21 22 25 27 29 30 30 30 28 27 28 27 27 28 28 29 30 31 31 31 32 33 33 35 34 34 33 33 34 39 44
26 27 26 26 26 26 25 26 25 25 22 20 24 18 22 23 25 27 28 29 29 28 28 28 27 26 25 26 27 29 30 30 30 31 31 30 31 30 32 32 32 32 33 33
27 27 26 25 26 27 26 25 22 21 20 22 21 19 20 24 24 26 27 28 28 28 28 27 28 27 27 25 25 25 27 28 28 28 31 31 30 31 31 31 31 31 32 32
27 26 25 24 25 26 25 22 25 26 23 20 21 20 21 20 23 27 27 28 28 28 27 27 27 26 25 25 24 24 24 24 24 24 24 26 27 23 24 25 25 27 29 28
26 26 26 24 22 25 22 22 22 21 19 20 24 23 22 25 26 27 27 28 28 27 26 26 25 24 23 23 23 22 23 23 23 22 21 21 20 21 21 23 24 23 24 25
27 27 25 25 23 23 22 23 25 21 19 20 25 22 23 26 27 28 28 28 27 27 26 26 25 24 23 22 21 21 22 23 24 24 23 22 20 20 20 22 22 23 23 24
26 28 26 25 26 27 25 25 29 26 21 20 24 24 25 26 25 26 25 25 25 26 27 26 25 25 23 21 21 20 20 21 23 24 24 24 24 22 21 21 22 22 23 21
31 27 29 27 29 27 26 30 25 26 18 15 20 22 22 24 23 24 24 24 24 23 24 26 24 23 23 22 21 21 20 18 19 22 23 23 23 23 23 22 21 21 22 22
31 30 28 28 27 27 25 25 29 28 24 17 14 17 24 26 24 23 23 23 23 22 21 21 24 21 21 21 21 20 19 18 18 18 19 20 22 20 21 20 21 21 21 21
32 31 25 27 29 30 28 26 27 24 21 24 24 21 27 26 26 24 22 23 22 21 20 22 17 19 18 17 15 17 18 19 19 18 17 18 18 18 19 19 20 21 21 22
34 29 19 23 21 31 28 29 28 28 28 21 21 21 26 24 23 23 22 22 21 21 13 20 14 14 13 11 12 10 14 16 18 17 17 16 17 18 18 19 20 21 21 21
37 31 26 22 18 25 23 24 25 24 24 21 23 24 24 25 25 25 23 23 22 21 13 12 12 10 10 9 10 9 10 13 16 16 17 16 17 18 19 20 20 21 21 21
33 28 30 29 27 27 26 26 25 25 23 20 18 15 17 22 23 21 21 21 25 20 12 10 12 13 12 14 13 12 12 14 15 15 16 17 19 18 19 20 20 19 18 17
30 24 25 18 24 24 22 23 24 24 23 23 22 22 24 21 16 15 17 15 20 21 18 13 12 13 12 10 12 15 15 15 17 17 18 17 19 19 19 19 19 16 14 13
27 24 18 14 20 17 10 15 14 10 15 14 9 13 18 18 17 14 13 11 8 3 10 13 10 11 12 12 12 15 18 18 19 18 16 16 18 18 18 16 12 10 10 10
25 19 18 11 7 -2 10 12 12 11 13 16 19 15 18 19 16 11 10 8 8 10 9 8 8 8 11 16 16 17 18 18 18 16 14 15 16 13 12 10 9 8 7 7
25 20 15 8 2 7 7 8 11 11 9 15 16 14 17 14 8 6 7 10 10 12 14 15 15 14 17 16 16 16 16 16 15 14 16 14 12 9 8 6 6 6 5 5
23 22 14 -0 -2 -2 5 12 11 10 4 10 11 12 14 11 6 7 9 12 13 13 14 15 18 18 14 13 13 14 14 13 12 14 11 10 10 4 5 5 3 3 3 4
8 11 16 11 -1 5 13 15 12 2 4 11 14 16 15 12 11 13 14 13 15 17 17 19 18 15 12 13 13 11 11 9 11 10 9 7 6 4 2 2 2 1 0 1
8 8 8 8 8 4 16 13 9 12 19 19 18 16 15 15 15 16 16 16 16 16 20 18 15 11 12 11 10 8 7 9 7 6 4 2 -1 -0 2 -2 -2 -2 -3 -3
3 9 4 10 9 14 17 14 16 18 18 21 18 16 16 15 15 16 16 15 15 16 18 16 14 11 9 9 8 6 7 6 4 -2 -7 -7 -4 -1 -0 -4 -3 -4 -4 -5
10 10 9 8 8 12 15 16 14 18 18 18 19 18 17 16 17 17 15 15 15 18 16 12 9 7 6 6 8 4 3 3 -10 -14 -8 -4 -4 -4 -4 -2 -2 -4 -5 -5
10 12 10 10 10 11 12 14 14 14 17 17 17 17 17 18 16 15 16 18 18 16 13 10 7 6 5 6 4 -1 0 -6 -8 -9 -4 -5 -5 -7 -4 -3 -3 -2 -1 2
12 8 8 7 8 9 10 13 15 16 16 17 17 17 17 17 16 17 17 17 16 12 9 6 5 3 1 -0 -0 -4 -10 -12 -13 -7 -4 -4 -4 -4 -4 -4 -5 3 7 10

GFSCGP_sfc_dewp_021.txt.gz
Dewpoint
29 22 20 22 22 18 18 20 20 21 23 22 22 22 23 24 24 26 29 28 28 29 29 28 28 29 30 30 31 31 31 32 34 41 44 42 42 42 38 38 39 45 49 53
25 20 22 22 25 24 23 21 20 23 24 23 22 21 23 24 25 25 29 28 28 27 27 26 26 27 28 28 29 30 30 31 32 33 36 38 38 36 33 34 33 34 35 40
23 24 26 23 24 23 23 22 23 22 24 24 22 21 22 27 29 30 30 29 28 26 26 26 25 25 25 26 27 28 28 29 31 31 32 33 33 33 32 32 32 32 32 32
26 27 26 26 24 24 23 26 25 24 23 22 24 19 21 23 27 29 29 28 27 27 27 26 25 24 24 24 25 26 26 26 28 30 30 30 30 29 31 31 29 29 28 29
27 27 26 25 25 27 25 26 25 22 22 21 20 18 20 24 24 27 28 28 27 27 26 26 26 25 24 23 23 23 22 22 22 23 25 22 22 25 22 23 21 24 23 24
28 27 25 26 25 27 25 23 25 26 22 19 20 19 20 21 23 26 27 28 27 27 26 25 25 23 22 22 22 22 20 20 20 19 19 19 19 18 19 20 20 21 22 22
26 26 26 24 22 24 22 23 21 21 19 20 23 21 20 24 25 27 27 27 27 27 25 24 22 22 20 20 21 21 21 21 21 19 18 18 18 18 18 20 21 20 21 21
25 26 25 25 24 23 22 23 23 17 18 19 24 22 24 26 28 28 28 28 27 25 25 25 23 22 21 20 20 21 22 22 22 22 22 21 19 19 20 20 21 22 22 22
26 27 26 24 25 25 23 22 27 25 16 19 23 24 24 26 26 27 27 27 26 26 26 25 25 23 21 19 19 19 21 22 22 22 22 22 22 21 20 20 21 21 21 20
30 27 28 26 27 27 26 29 24 25 17 16 21 21 22 23 25 26 26 26 26 26 27 25 25 24 22 21 20 18 17 19 21 22 22 21 20 21 20 20 20 19 20 20
31 29 28 28 27 26 26 27 28 26 24 18 14 17 23 24 25 25 25 25 25 24 25 26 24 23 23 21 20 19 18 17 17 18 19 20 18 18 18 18 18 20 19 20
32 30 25 27 29 31 29 27 28 25 21 24 22 21 26 26 25 25 25 24 24 24 22 22 25 21 20 20 20 19 18 18 18 17 16 17 16 16 16 16 18 20 19 20
33 29 21 27 24 29 28 27 28 28 27 21 20 21 25 24 25 24 24 23 24 24 22 22 19 18 17 16 15 16 17 18 18 17 16 16 16 16 17 18 20 20 20 21
37 31 28 24 22 26 25 25 25 25 24 24 24 24 25 25 24 24 23 23 23 23 21 16 15 16 15 13 12 10 12 15 17 16 16 16 16 17 17 19 19 19 19 17
34 28 28 28 23 26 25 25 25 24 23 21 21 20 21 23 26 26 27 26 25 25 21 14 18 14 11 10 10 10 10 13 15 15 16 17 17 17 18 18 18 17 14 12
29 25 27 24 27 28 29 29 27 27 29 27 27 24 24 24 23 18 18 18 21 23 20 13 13 13 13 12 13 13 12 14 16 16 17 15 18 19 18 17 14 11 11 11
30 26 24 25 21 23 20 20 21 21 21 20 18 19 17 16 17 16 16 15 13 10 19 17 12 12 13 12 12 14 16 18 18 17 15 16 16 15 14 12 10 9 8 8
27 26 24 18 12 13 17 12 13 15 15 15 17 15 17 18 18 18 14 13 10 9 7 7 12 12 12 13 14 16 19 18 16 15 13 14 13 11 10 9 8 7 6 6
27 26 18 18 9 13 13 8 9 8 6 16 16 17 17 16 8 7 8 8 8 9 12 13 13 12 10 14 16 18 16 16 13 14 15 12 10 8 7 4 5 5 5 4
19 23 23 8 8 7 9 11 11 10 5 12 15 14 15 10 8 10 9 11 11 12 13 14 15 16 16 16 16 15 14 11 10 13 12 10 10 4 3 5 4 4 2 4
13 17 19 16 14 8 12 15 11 2 4 12 13 13 16 11 12 13 12 11 13 15 15 16 17 17 15 13 14 12 11 8 12 9 8 8 7 3 2 1 2 0 -0 1
10 9 10 9 0 4 16 13 10 13 16 16 15 14 16 14 14 14 13 13 14 16 16 19 18 15 12 13 12 10 8 10 8 6 6 4 -3 -2 0 -9 -5 -5 -5 -5
6 12 10 13 11 15 17 16 16 16 16 18 16 16 17 16 15 14 14 15 16 16 16 19 17 13 11 10 9 8 8 7 5 1 -1 -7 -5 -3 -2 -9 -5 -5 -7 -6
11 9 9 11 11 11 14 17 14 17 15 15 18 17 17 16 15 14 15 15 16 17 17 15 13 11 9 7 8 5 5 5 -3 -4 -3 -4 -6 -6 -6 -2 -2 -4 -5 -5
11 11 10 10 9 10 11 15 16 16 17 16 16 17 17 17 16 16 16 18 18 17 15 13 13 11 8 6 4 3 3 -1 -5 -5 -3 -5 -7 -8 -5 -4 -3 -2 -1 1
11 8 6 6 7 8 9 12 14 14 14 15 16 16 17 18 18 18 18 18 17 16 12 10 8 6 4 2 1 -1 -5 -6 -7 -4 -4 -5 -5 -5 -4 -4 -5 3 8 10

GFSCGP_sfc_dewp_024.txt.gz
Dewpoint
28 22 21 23 21 20 18 19 19 20 23 23 22 22 23 24 24 27 27 27 27 27 27 26 27 27 28 29 29 30 31 32 34 39 41 36 33 34 34 33 33 33 35 39
24 21 22 23 25 21 21 20 19 21 24 23 23 22 23 24 26 26 28 27 27 25 25 25 25 25 26 27 28 28 30 31 32 33 34 35 34 32 32 31 28 29 32 33
22 23 24 22 22 22 22 21 21 19 23 24 25 22 23 27 29 29 28 27 26 25 24 24 23 24 24 24 25 26 28 30 31 32 32 32 32 30 27 25 22 23 24 28
24 26 26 24 22 21 19 24 23 23 24 23 24 19 21 24 27 28 27 26 26 26 25 24 23 22 22 22 22 23 23 24 26 26 25 23 22 20 25 23 23 21 22 23
28 26 25 25 25 25 24 27 26 25 23 21 20 19 20 24 24 27 28 27 26 26 25 24 22 22 21 21 21 19 19 19 20 21 19 18 19 21 22 21 18 20 20 22
28 29 27 27 26 27 25 24 25 25 22 19 20 19 20 21 23 26 28 27 27 26 25 24 23 21 19 19 19 19 17 17 17 17 16 16 16 16 16 18 18 20 21 20
28 27 27 24 23 23 22 22 21 20 19 20 23 20 20 23 25 26 27 27 27 26 24 23 20 18 18 18 19 18 18 18 18 16 17 17 17 17 17 19 19 19 20 21
25 25 27 26 26 23 22 23 23 17 18 20 24 22 23 26 28 28 28 27 27 26 24 23 21 19 18 19 19 20 20 20 21 20 19 19 19 19 20 19 19 20 20 20
25 27 26 24 25 24 22 21 25 23 14 18 23 24 24 26 27 27 27 27 26 25 25 24 23 21 18 18 19 20 21 21 21 21 21 20 19 18 18 19 19 19 20 18
29 26 28 26 27 27 25 26 23 24 16 17 21 22 23 23 25 27 27 26 26 26 26 25 25 23 21 18 18 18 20 20 21 20 19 19 19 19 18 18 18 17 18 19
31 29 27 27 25 25 27 26 27 25 25 21 15 20 22 24 25 26 27 27 26 26 26 26 25 24 22 20 18 16 16 18 18 19 19 17 17 17 16 16 17 17 18 19
31 29 25 26 29 30 28 27 27 24 21 22 23 23 26 26 26 27 27 27 26 26 26 26 26 24 22 21 19 18 17 16 16 16 17 17 16 16 16 16 17 18 18 19
33 29 21 24 26 27 27 27 28 28 26 21 23 23 25 25 25 26 26 26 26 25 25 23 24 23 21 20 20 18 17 17 18 17 16 16 16 16 16 17 18 19 19 18
36 30 25 23 22 27 26 27 27 27 27 26 25 25 25 25 25 24 24 24 24 24 24 23 21 21 19 18 16 17 17 17 19 17 16 16 16 16 16 17 17 17 16 13
34 28 28 28 25 25 24 25 26 25 26 25 25 25 26 27 27 25 25 24 23 23 23 21 20 20 19 15 14 11 13 16 17 16 16 17 18 16 17 16 15 13 13 11
31 32 29 24 28 26 25 26 25 26 26 24 26 25 27 27 23 23 25 25 23 22 24 23 18 18 15 14 12 11 10 13 16 16 17 16 17 18 17 15 13 12 11 10
31 27 23 25 22 24 24 26 27 26 27 26 25 27 19 20 21 21 19 18 17 18 21 22 17 15 14 12 12 12 12 15 18 18 16 16 16 15 13 11 10 9 8 8
30 27 26 20 20 16 19 12 20 28 27 24 18 16 17 16 17 19 18 18 16 12 7 12 18 13 14 15 14 14 18 19 18 16 14 14 13 11 11 9 8 7 6 6
29 27 20 21 17 20 20 9 8 9 10 15 18 18 15 16 10 10 11 13 14 11 11 11 10 11 10 12 14 17 19 18 16 14 14 12 10 8 7 4 5 5 5 4
24 28 29 15 15 14 12 10 12 9 6 14 18 17 15 10 5 3 10 10 10 10 12 14 15 14 14 14 16 18 16 15 13 13 13 10 9 4 3 5 3 4 1 3
20 21 23 19 20 19 17 14 11 6 12 14 15 16 15 11 9 8 12 10 12 14 13 14 15 14 15 16 16 15 14 12 12 11 8 7 7 3 2 1 1 -2 -3 0
15 17 12 15 15 14 15 12 10 14 17 18 14 11 13 12 11 13 12 11 12 13 14 17 17 16 16 15 15 14 12 11 9 7 6 5 0 1 0 -9 -8 -8 -9 -8
9 12 11 15 14 15 15 16 17 17 17 16 13 14 13 14 14 14 14 14 13 14 15 16 18 17 14 13 13 12 10 8 5 2 2 -1 -0 0 0 -6 -4 -7 -11 -10
10 9 10 9 12 12 14 16 16 16 14 15 16 14 17 14 14 14 14 14 14 16 17 16 13 13 13 9 10 8 7 5 -2 -5 -1 0 -1 -2 -2 -1 -1 -9 -10 -6
11 11 11 11 9 10 11 14 17 17 17 15 15 15 15 16 15 15 15 17 17 17 16 14 15 15 13 8 5 3 3 0 -4 -4 -1 -1 -1 -2 -2 -3 -4 -3 -2 -1
11 8 6 7 8 6 7 10 13 16 16 16 16 15 17 18 17 17 18 18 18 17 13 12 11 10 7 5 3 -1 -2 -3 -4 -2 -1 -2 -2 -3 -3 -4 -5 3 8 11

GFSCGP_sfc_dewp_027.txt.gz
Dewpoint
29 24 23 24 22 23 21 19 18 20 23 23 22 21 22 24 25 27 27 26 26 25 26 25 26 26 28 28 30 31 33 34 37 39 38 35 33 32 30 30 31 33 34 35
24 22 24 25 24 21 20 20 19 21 23 23 22 23 24 25 26 27 27 26 25 25 24 24 24 25 25 26 27 29 31 32 34 34 35 34 30 27 24 24 24 25 29 31
21 23 24 22 23 23 22 20 20 19 24 25 23 24 25 27 29 28 27 27 25 24 23 23 23 22 23 23 23 24 26 29 31 32 31 30 28 25 21 21 20 22 22 24
22 25 25 22 21 21 19 23 22 22 23 22 24 22 23 25 27 28 27 25 25 24 24 23 21 21 21 20 20 20 21 22 22 24 23 22 20 17 20 19 20 20 22 22
30 26 26 26 25 23 25 26 24 25 25 23 22 21 22 25 23 27 27 26 26 25 23 22 21 20 19 19 19 18 19 18 18 19 19 18 18 19 19 19 18 18 19 21
29 28 27 27 27 25 26 25 25 25 22 19 22 21 20 20 23 26 28 26 26 25 24 23 22 19 18 18 18 18 16 16 17 16 16 15 16 15 17 17 18 18 18 18
28 27 26 25 24 24 23 22 21 21 20 20 22 19 21 22 25 26 28 27 26 26 24 22 19 17 16 16 17 17 16 15 16 16 16 16 16 17 16 17 17 17 17 17
26 24 27 27 24 24 23 23 23 18 18 21 23 21 23 26 28 28 28 27 27 26 24 22 20 18 17 18 18 18 17 17 18 18 18 19 18 17 17 18 18 18 18 18
25 24 26 25 25 25 22 22 26 23 15 20 23 24 26 27 27 27 28 27 26 25 24 23 22 19 18 18 19 19 19 20 20 19 19 18 18 17 17 17 17 18 18 16
28 26 27 25 26 28 24 26 22 24 15 15 21 22 23 24 25 27 27 27 26 26 25 24 23 21 19 19 20 20 20 19 19 19 19 18 17 17 17 16 16 16 17 17
30 29 28 26 24 25 27 24 26 24 24 19 17 20 24 24 25 26 27 27 27 26 25 25 25 24 21 19 19 19 20 20 19 19 18 18 17 16 16 16 16 16 17 17
31 30 26 25 29 29 28 25 26 24 21 22 23 23 26 26 26 27 27 27 27 27 26 26 26 25 22 20 18 16 18 19 19 19 17 16 16 16 15 15 16 17 16 17
32 29 24 25 27 28 27 27 27 27 26 22 21 22 26 25 25 27 27 27 27 27 27 27 27 25 23 20 19 16 16 16 17 17 17 16 16 16 16 16 17 17 15 14
35 30 27 26 25 28 27 27 27 27 23 24 24 25 24 25 25 25 26 27 27 27 27 25 24 25 23 21 19 17 16 16 18 17 16 17 17 16 16 17 17 14 13 11
34 30 28 28 25 27 27 27 27 26 26 26 25 26 27 27 26 26 25 25 25 25 25 25 24 23 23 21 20 18 17 17 18 17 16 16 18 17 17 17 15 13 12 9
35 33 29 26 27 25 25 25 27 27 27 27 27 26 26 28 26 26 26 25 24 24 24 24 23 21 21 20 19 16 15 17 18 17 17 17 19 19 18 16 14 11 10 9
34 31 31 30 24 27 27 27 26 26 26 26 24 27 26 26 26 25 24 25 25 23 21 23 22 19 19 18 17 16 14 15 18 19 19 19 19 18 16 13 11 9 7 6
32 32 32 19 23 20 20 14 26 28 27 26 23 21 26 26 22 21 22 21 19 18 17 17 21 19 16 17 15 14 17 17 18 19 18 17 16 14 11 9 7 6 5 5
32 31 23 21 21 22 19 10 22 24 21 25 27 25 16 16 13 13 15 18 18 18 16 12 12 16 15 14 15 16 18 19 18 17 17 15 14 11 9 7 5 5 5 4
30 33 30 20 19 17 16 11 11 11 14 16 27 26 17 12 10 10 10 14 14 14 13 13 13 13 12 12 14 17 17 17 17 17 16 13 11 7 5 6 5 5 3 4
22 23 26 22 21 23 19 14 11 13 17 16 18 17 15 13 12 9 9 10 13 14 12 14 15 14 13 15 17 17 16 16 16 15 13 10 8 6 5 3 3 2 0 1
20 21 20 21 19 18 16 11 13 19 18 18 16 16 15 11 9 10 11 11 11 13 13 17 14 14 14 17 17 16 15 14 12 10 8 6 3 5 3 -2 -2 -3 -3 -3
16 23 20 21 21 16 14 17 17 18 19 17 14 14 13 10 8 9 11 13 13 12 13 15 17 16 16 16 16 15 14 11 8 6 3 0 0 1 1 -4 -2 -1 -3 -4
12 11 13 15 14 13 14 16 16 15 11 14 14 13 13 10 11 12 14 14 14 16 16 16 15 15 15 13 14 14 11 8 3 1 1 0 -1 0 -1 1 0 -1 -3 -2
14 12 13 12 8 11 12 15 16 16 16 14 15 13 14 14 13 13 15 17 17 17 16 15 16 16 16 13 11 8 8 5 2 0 1 1 -1 -1 -0 -0 -0 -0 0 -0
10 9 7 8 7 6 7 13 15 17 17 17 16 16 17 17 16 16 17 17 17 17 15 13 14 13 13 9 7 3 2 2 1 0 -1 -1 -1 -2 -2 -2 -2 3 8 10

GFSCGP_sfc_dewp_030.txt.gz
Dewpoint
30 25 24 24 24 23 23 22 22 21 22 23 23 23 23 23 23 25 27 26 25 25 25 26 28 30 34 35 38 37 38 39 41 40 40 38 36 34 33 33 35 35 37 38
26 25 26 26 25 23 22 23 22 22 22 22 21 21 22 24 25 26 26 26 25 25 24 25 26 28 31 32 34 36 36 36 38 38 37 34 29 26 25 26 25 26 29 30
24 25 26 24 24 23 23 22 22 21 23 24 24 23 25 26 28 28 27 27 25 25 24 24 25 25 28 29 31 32 33 34 34 32 30 27 26 25 23 21 20 20 20 23
24 25 24 23 22 23 22 24 23 22 21 22 25 22 27 25 26 28 28 26 25 24 24 23 23 23 25 26 28 29 30 30 30 30 30 28 25 21 18 17 18 19 20 20
26 26 26 25 24 24 26 25 24 24 24 25 24 23 25 24 23 26 27 26 25 25 24 23 22 22 20 24 25 25 25 24 24 23 23 21 19 18 17 17 16 16 17 20
30 29 28 28 27 25 28 27 25 26 26 24 26 24 22 22 23 25 27 26 25 24 24 22 21 21 19 21 22 22 20 19 20 20 19 18 18 16 16 16 15 15 15 17
29 29 27 27 26 26 25 25 25 24 24 24 23 23 22 24 24 26 28 26 25 25 23 21 19 18 17 18 19 18 16 15 15 15 15 16 16 15 15 14 14 15 15 15
30 28 28 27 29 26 25 26 27 26 23 23 24 22 23 26 27 28 28 27 26 25 24 22 19 17 16 17 16 14 13 13 13 15 16 16 15 13 14 15 15 15 15 16
28 28 28 26 26 27 24 24 27 25 24 27 23 24 26 27 27 27 28 28 26 26 25 23 20 16 15 16 16 15 14 14 15 15 15 16 15 14 14 15 16 16 17 15
27 26 27 25 27 29 25 27 25 25 27 25 21 22 22 26 25 27 28 28 27 26 26 24 20 18 17 16 17 16 14 14 16 16 15 15 15 15 15 15 16 16 16 16
29 30 28 26 25 26 25 24 25 24 26 26 23 21 26 27 26 26 27 28 28 27 26 24 22 20 18 18 18 17 16 16 17 17 16 17 17 15 15 15 16 16 15 14
32 32 29 25 28 29 27 26 25 25 26 24 25 24 25 26 26 28 27 28 29 28 27 25 24 23 20 19 19 18 17 16 17 17 17 16 16 16 16 15 15 17 15 14
33 33 32 30 28 29 26 27 26 26 30 31 29 25 26 26 26 27 28 28 29 28 28 27 25 24 22 18 18 17 17 17 17 16 16 15 16 16 16 16 16 15 14 12
33 33 30 28 28 28 27 27 27 26 29 28 27 25 24 26 26 26 28 29 28 28 28 27 27 26 25 22 18 15 14 16 18 17 16 16 16 16 16 16 16 15 13 11
32 32 30 29 28 29 29 28 27 26 26 27 26 26 27 28 28 27 27 29 28 28 28 28 28 28 27 25 23 19 15 15 15 15 15 15 18 17 18 18 18 15 13 10
35 34 33 31 30 28 28 29 29 28 27 27 27 27 29 29 28 27 27 27 27 28 28 28 28 28 27 26 26 23 19 17 16 15 16 14 19 21 22 21 17 14 13 11
35 35 33 32 31 29 28 29 28 28 28 27 26 30 32 28 28 27 27 27 26 26 27 26 26 26 26 25 24 24 23 21 23 24 25 25 24 23 21 19 15 12 11 9
35 36 34 32 29 24 28 22 30 29 30 31 32 35 34 32 28 29 30 29 28 27 26 25 25 24 23 23 22 22 24 24 24 25 26 24 23 23 20 16 13 11 9 9
35 35 28 25 26 29 16 17 28 29 29 31 30 30 25 18 18 18 20 23 25 24 22 23 24 22 18 19 19 21 21 22 21 22 23 23 22 22 18 15 12 10 10 10
32 35 32 25 26 24 22 16 20 22 21 28 34 33 22 17 23 26 17 20 20 20 21 18 15 15 17 17 18 21 21 21 20 20 20 21 22 20 17 14 13 13 12 10
26 27 29 26 26 27 31 18 14 21 30 28 33 30 21 22 23 17 17 16 18 19 18 17 15 12 13 15 20 20 21 20 22 23 21 20 18 17 15 13 12 11 10 7
24 26 26 27 25 24 17 12 19 26 21 25 21 21 20 17 11 11 9 10 12 14 14 17 16 15 15 20 21 21 19 21 21 20 19 17 15 13 12 10 10 8 8 6
24 28 28 28 28 18 16 20 19 22 25 18 18 18 18 13 7 9 11 13 13 14 14 17 18 17 16 21 22 22 21 20 18 17 16 13 11 12 11 8 7 7 7 6
17 13 20 23 17 14 15 18 18 18 16 18 18 18 18 14 9 9 11 12 14 20 20 21 22 21 21 21 21 22 20 18 15 15 12 10 8 8 7 7 7 8 8 7
18 16 17 13 8 12 14 17 19 17 13 15 14 14 15 14 11 11 17 21 20 21 21 21 20 21 21 22 21 21 18 15 15 14 11 11 9 7 8 6 7 6 7 7
12 10 10 15 9 11 11 15 17 18 17 17 17 17 18 18 17 18 20 20 21 21 21 20 20 20 21 21 20 17 15 14 14 12 10 10 8 7 5 5 4 9 11 12

GFSCGP_sfc_dewp_033.txt.gz
Dewpoint
31 26 25 25 25 23 23 23 22 23 23 23 23 23 22 24 23 23 24 26 27 26 26 28 31 35 39 43 41 43 43 43 43 42 41 40 39 37 35 35 36 36 38 40
28 26 26 26 27 25 24 23 23 25 23 23 23 23 23 23 24 24 24 26 27 26 25 27 29 34 37 41 40 39 40 41 41 41 39 36 33 32 29 29 27 28 30 30
26 26 26 27 25 24 24 24 24 23 24 24 23 23 25 25 25 25 26 27 27 26 25 26 28 32 36 38 40 39 39 39 39 36 33 31 30 29 26 24 22 22 21 24
26 26 25 26 24 24 24 25 24 24 23 24 25 22 26 27 28 28 29 28 27 26 25 25 26 30 34 35 36 36 37 36 35 34 33 32 29 25 22 20 21 20 21 21
25 25 25 25 25 25 25 26 26 27 27 27 27 24 26 28 26 27 28 29 27 26 25 25 26 27 27 32 34 33 32 30 30 31 30 28 24 23 20 19 18 18 20 21
28 30 27 27 28 26 29 28 26 27 28 26 28 27 25 25 25 27 28 28 27 26 25 25 25 24 25 28 29 30 28 26 25 25 24 24 23 20 20 18 17 16 17 18
29 29 29 29 28 27 28 28 28 26 26 26 24 27 26 25 25 26 28 27 27 26 25 23 23 22 23 25 25 24 22 20 20 20 21 21 19 19 18 16 16 17 16 17
30 29 31 29 31 29 27 28 29 27 26 25 24 22 23 27 27 28 28 27 26 25 25 24 23 22 21 22 22 19 18 17 17 18 18 18 17 14 15 16 17 17 16 17
28 29 30 29 29 31 27 27 30 28 29 27 23 24 25 28 27 27 28 27 26 25 25 24 22 20 19 19 18 17 16 15 16 16 16 16 15 15 15 17 18 18 19 16
30 28 29 28 27 28 27 28 26 26 30 26 21 23 23 28 26 26 28 28 26 26 25 24 21 19 19 18 18 16 14 14 16 16 16 15 15 16 16 17 18 18 17 17
31 30 28 27 26 26 26 25 26 26 27 27 24 22 25 26 26 26 27 29 28 27 26 25 22 20 19 20 20 16 15 15 17 17 16 19 19 16 16 19 19 19 19 17
33 31 31 26 28 28 27 26 26 26 26 26 26 25 25 27 27 29 27 29 29 28 27 26 24 21 19 20 20 19 17 18 19 17 16 20 17 18 18 17 18 21 18 18
33 32 34 32 29 29 26 27 27 26 31 31 29 26 26 27 27 28 28 29 30 29 28 27 25 21 18 18 20 17 17 17 20 17 18 18 18 18 19 19 19 19 18 16
35 34 34 30 29 28 26 26 27 26 27 27 28 27 23 25 26 27 29 29 29 30 29 27 26 23 22 18 18 18 17 16 20 18 19 19 19 19 19 19 19 18 17 15
32 34 34 34 34 32 30 28 27 26 26 27 27 27 29 26 26 26 28 30 29 29 29 28 28 28 24 23 20 18 17 18 18 18 18 18 21 19 20 21 21 20 18 14
35 33 34 34 34 33 31 31 30 28 27 27 27 27 29 26 27 27 27 29 29 29 29 30 29 29 28 26 25 21 18 18 19 19 18 17 20 22 25 24 22 19 17 15
35 34 34 32 35 34 29 32 30 30 28 28 26 29 33 30 28 28 29 29 29 29 30 30 30 30 30 28 28 26 24 22 22 23 25 25 25 24 24 24 21 18 16 15
35 35 35 32 33 26 33 33 32 32 31 30 31 38 34 32 30 33 32 31 30 29 30 30 31 29 30 30 29 28 29 27 25 26 27 26 25 24 24 22 20 17 16 14
38 36 33 30 30 31 30 22 28 31 30 32 31 33 27 27 27 27 30 31 30 29 29 30 30 28 27 27 26 27 27 27 26 25 26 25 24 24 23 21 19 17 17 15
32 37 34 29 29 28 26 24 28 31 30 37 37 34 27 23 27 30 24 27 27 27 27 28 27 24 23 22 23 24 24 24 24 24 25 25 25 24 23 21 19 19 18 18
29 32 30 31 30 32 33 21 26 29 32 34 36 31 26 26 27 25 23 22 25 25 23 21 19 18 19 20 23 23 24 23 24 25 24 24 24 23 22 21 20 19 17 14
28 28 28 31 29 28 20 16 26 28 26 30 32 28 26 24 18 21 20 20 20 19 20 20 17 15 16 22 23 23 22 23 25 24 23 22 21 21 21 18 17 16 15 13
27 31 31 32 30 20 21 24 26 24 31 22 25 26 27 17 11 14 14 13 14 16 16 19 21 18 17 23 23 23 22 23 22 21 20 19 18 19 18 16 15 12 13 12
25 28 30 30 26 28 27 28 23 22 20 21 22 23 22 16 10 11 12 13 14 22 22 24 24 22 22 23 23 23 24 22 19 19 18 17 15 16 14 14 14 14 13 12
23 27 27 23 18 16 27 26 24 22 18 17 17 20 18 17 11 10 19 22 21 22 23 23 23 23 22 23 22 23 22 19 19 19 17 17 15 14 13 12 13 12 13 14
15 14 15 23 17 28 23 22 23 21 19 17 18 17 19 20 17 19 21 21 22 23 24 22 22 21 22 23 23 22 21 18 18 18 17 16 15 13 13 12 10 14 14 13

GFSCGP_sfc_dewp_036.txt.gz
Dewpoint
32 29 28 26 26 25 24 23 23 24 24 24 25 25 24 24 24 24 25 26 27 27 27 29 32 37 43 42 43 44 43 43 43 43 41 40 37 35 34 35 35 33 37 39
30 28 29 29 28 28 25 24 24 25 24 24 24 24 25 25 24 23 24 26 28 26 26 28 32 37 42 41 41 42 43 43 43 43 39 37 34 31 28 29 28 28 29 31
28 29 29 28 28 26 26 25 24 25 26 24 23 23 24 26 26 25 25 25 28 26 25 27 31 35 39 41 40 39 40 41 39 35 32 30 30 29 26 25 24 23 24 26
29 29 27 28 27 26 24 27 26 26 25 23 24 23 26 27 27 26 26 27 28 26 26 27 30 34 37 38 39 39 39 37 35 33 32 31 29 25 24 23 23 24 24 24
28 27 27 28 26 27 27 29 27 28 28 29 27 25 26 27 26 27 28 29 28 27 26 26 28 33 34 35 36 35 34 33 34 35 32 27 23 23 23 22 21 22 23 24
28 31 28 28 28 28 30 29 28 28 28 26 28 27 26 26 27 28 29 29 28 27 26 26 28 28 31 32 33 32 30 28 28 27 26 24 22 21 21 21 21 21 21 22
27 29 30 30 28 29 29 29 27 25 24 25 25 28 27 27 25 27 29 29 28 27 25 25 25 26 27 29 29 29 26 24 24 24 24 24 21 20 20 19 20 20 20 20
26 27 29 30 30 29 28 29 29 23 25 26 24 23 26 29 28 28 29 29 27 26 25 25 24 24 25 27 25 22 22 21 21 22 22 22 21 19 19 20 21 21 20 20
27 29 31 30 31 31 28 27 30 27 22 23 26 25 26 28 27 28 28 27 26 26 25 24 24 23 24 24 22 21 20 19 20 20 20 19 18 18 19 20 21 21 20 19
30 28 31 27 28 29 29 30 26 27 19 21 25 24 24 27 26 27 28 27 26 26 25 24 23 22 22 21 20 19 18 18 20 19 19 18 18 19 20 20 20 19 18 19
32 31 28 28 26 27 27 26 27 27 28 25 23 24 25 27 28 26 28 27 26 26 25 25 22 21 20 21 20 18 17 18 19 19 19 20 20 19 19 20 20 19 19 19
34 33 28 26 28 29 28 27 27 26 25 26 26 24 25 28 29 27 28 28 27 27 26 25 22 20 19 20 19 17 17 19 20 19 20 20 19 19 19 19 19 20 18 19
34 34 31 30 29 29 27 27 27 27 29 26 24 25 26 27 28 28 28 29 28 27 27 26 23 19 18 18 19 17 17 19 20 19 20 20 19 19 19 19 19 20 19 17
36 35 32 29 28 30 26 26 27 27 26 25 26 26 24 26 27 28 29 29 29 28 27 26 24 20 17 17 19 17 17 19 20 19 20 20 19 19 19 20 20 19 18 16
34 34 33 32 31 31 29 28 27 26 26 26 26 26 27 28 27 28 29 30 29 29 28 27 26 23 19 18 19 18 17 18 19 19 20 20 21 20 20 21 20 19 18 16
34 33 33 31 31 33 32 33 29 27 27 27 26 26 29 29 27 27 29 29 29 29 29 28 27 26 22 19 19 18 17 19 19 19 19 20 21 21 23 22 21 19 18 16
35 34 33 31 31 32 31 34 34 32 28 28 26 28 30 29 26 26 27 29 29 29 29 29 28 27 25 22 20 19 18 21 21 22 23 22 22 22 23 22 21 19 17 16
34 34 34 32 33 27 32 35 35 34 34 32 30 31 32 31 27 29 30 30 30 30 30 30 30 29 30 28 26 24 23 22 23 23 23 22 22 22 22 21 20 18 17 16
38 35 33 31 31 31 31 27 32 33 33 35 34 32 31 31 30 28 31 31 31 31 31 32 31 30 30 30 29 29 27 24 22 23 23 22 23 22 22 20 19 17 16 15
39 39 34 31 29 27 26 24 30 32 29 34 35 35 28 29 28 30 29 30 31 31 31 31 31 28 29 27 27 27 26 25 23 24 24 23 22 22 21 20 18 17 15 15
30 33 32 32 31 33 27 21 28 28 26 27 31 31 28 29 29 31 28 28 29 28 27 26 24 24 24 24 25 25 24 24 24 24 23 22 22 22 21 20 17 16 14 16
30 30 31 32 31 29 26 22 29 26 23 29 29 27 26 21 23 24 23 24 24 23 24 22 20 19 20 23 23 23 22 22 22 22 21 20 20 22 21 19 13 14 13 10
28 31 32 31 30 23 25 25 25 23 27 21 29 28 24 18 18 20 21 20 20 20 19 19 18 17 18 21 22 21 21 21 20 19 17 16 17 18 16 15 13 10 9 10
27 29 30 29 27 27 29 32 28 25 22 19 20 26 24 19 15 14 16 15 16 21 21 21 20 18 18 19 21 18 19 19 17 16 16 15 15 12 11 13 13 11 10 9
28 29 26 22 25 27 29 31 32 30 21 14 16 19 20 14 12 12 19 19 19 21 22 20 20 19 18 18 18 16 17 18 16 15 14 13 11 12 10 10 9 11 8 10
21 27 26 25 28 31 30 31 32 29 24 17 15 16 20 17 15 17 20 20 20 21 20 19 18 17 17 18 16 16 17 16 15 13 13 13 13 10 10 9 6 15 15 16

GFSCGP_sfc_dewp_039.txt.gz
Dewpoint
31 27 26 26 24 23 23 23 22 24 24 24 24 24 24 25 25 24 25 25 27 27 27 30 34 42 43 44 44 44 43 43 43 43 41 39 35 34 33 32 32 33 35 36
29 27 29 29 28 27 25 24 23 25 24 23 23 24 25 25 24 24 25 25 27 26 28 30 35 40 42 42 44 44 43 43 43 42 39 36 30 27 27 27 26 28 29 29
29 29 31 30 28 26 25 24 23 23 25 24 23 23 24 25 26 24 25 26 27 26 27 29 33 38 41 40 41 44 43 43 37 33 31 28 26 25 23 24 24 25 26 27
29 30 28 28 27 26 24 27 26 26 24 22 24 22 25 27 27 26 24 24 27 26 26 29 33 36 41 40 40 42 41 36 33 32 29 27 26 23 24 23 24 24 25 25
28 28 28 27 27 27 26 28 27 26 26 27 27 24 25 27 26 27 28 25 28 26 26 29 32 36 39 38 39 39 37 35 32 31 30 27 23 22 23 23 21 22 23 24
28 30 28 28 28 28 29 28 28 29 28 25 26 25 25 26 27 28 28 27 27 26 26 28 32 35 35 35 35 34 34 34 34 32 26 23 21 20 20 21 20 21 22 22
27 28 30 29 26 29 29 27 25 24 23 25 27 27 26 29 26 27 29 28 27 26 26 28 30 32 32 33 32 31 29 28 27 25 23 21 19 18 17 18 19 20 20 20
25 24 29 30 28 26 28 28 26 22 23 24 24 23 26 30 30 28 30 30 27 25 25 27 28 29 30 31 30 28 26 24 25 24 23 21 20 19 18 19 20 20 19 20
25 25 30 29 31 28 27 26 31 27 19 21 26 26 27 28 27 27 29 28 26 25 25 25 25 27 28 28 27 25 23 23 23 23 22 21 20 19 19 20 21 20 21 18
28 29 30 27 30 29 29 30 27 27 18 18 24 25 25 26 26 27 28 28 27 26 25 25 24 24 26 26 23 22 21 21 22 21 20 19 19 20 20 20 20 19 19 19
31 32 28 27 27 28 27 27 28 29 28 23 20 22 27 27 27 27 27 28 27 26 25 25 24 23 24 24 21 20 19 20 20 20 19 20 20 20 20 20 20 18 19 19
30 32 25 27 28 29 29 28 27 26 24 26 26 24 26 27 28 28 27 28 27 26 26 25 24 22 22 22 20 19 18 19 20 19 19 20 19 20 19 19 18 19 19 19
33 33 28 28 28 29 27 28 28 28 27 25 23 24 26 27 28 28 28 28 27 27 26 25 22 20 20 20 19 17 17 19 20 19 19 19 19 19 19 19 19 20 19 18
36 35 30 26 27 28 26 27 28 28 26 25 25 25 27 25 27 28 28 29 28 27 26 25 22 20 19 19 18 16 16 18 20 19 19 19 18 19 19 19 20 19 19 17
35 33 33 33 32 30 28 27 27 27 27 25 26 26 27 28 26 27 29 29 29 27 26 26 25 22 19 18 18 16 16 19 19 18 19 19 20 19 20 20 21 20 19 16
35 32 33 32 33 33 31 30 28 27 27 27 27 27 28 29 29 27 29 29 29 28 27 27 26 24 20 18 19 17 16 19 19 18 19 20 20 20 22 22 21 20 19 17
35 33 32 31 32 32 31 33 33 30 29 28 26 28 30 29 29 28 28 29 29 29 29 28 27 25 22 18 19 19 18 20 21 22 23 22 21 21 22 22 21 19 17 17
35 34 34 31 32 26 32 34 35 34 33 31 30 31 33 32 31 31 30 30 30 30 29 29 28 27 24 21 21 20 22 22 22 23 23 22 22 22 22 21 20 18 17 16
37 36 33 31 30 31 32 31 32 32 32 34 34 34 33 33 32 29 30 30 31 30 31 31 30 28 26 23 21 22 23 22 22 22 22 23 23 23 21 21 19 18 17 16
38 38 34 30 29 27 28 28 31 35 31 35 36 36 36 31 30 32 31 32 31 32 32 32 31 31 29 26 24 23 22 23 22 22 23 22 23 23 21 21 19 16 17 17
34 35 31 32 31 32 28 23 31 31 28 23 29 33 34 33 34 32 31 31 31 32 32 32 31 30 30 29 28 25 24 22 23 24 23 22 22 22 21 20 17 15 16 16
32 33 33 33 31 29 24 24 30 27 24 27 27 26 26 25 26 29 29 28 28 29 29 28 27 27 26 28 29 27 26 25 23 23 22 21 21 21 20 18 14 14 15 15
30 31 33 34 32 26 27 26 26 25 26 21 28 25 22 22 22 22 24 24 25 25 24 24 25 23 23 25 27 26 25 22 21 20 20 19 16 18 18 17 15 14 14 15
29 30 29 29 28 28 30 32 31 28 22 20 24 26 22 18 19 21 21 20 21 23 22 21 21 22 21 21 21 19 20 20 18 18 16 14 16 13 11 15 16 16 13 12
29 30 26 25 27 28 31 32 33 34 28 21 16 20 20 18 15 18 21 22 22 22 21 21 20 19 18 18 17 16 19 18 17 13 14 14 13 14 12 12 12 13 9 13
28 27 27 28 29 31 31 32 33 32 29 19 15 18 19 17 16 20 22 21 21 21 20 19 17 17 15 14 14 14 16 16 15 13 13 13 13 11 10 10 7 18 17 18

GFSCGP_sfc_dewp_042.txt.gz
Dewpoint
30 26 24 26 22 23 23 23 22 23 25 24 23 23 23 24 25 25 25 26 27 27 28 30 34 43 44 44 44 44 43 44 43 43 41 39 37 35 34 35 37 36 37 37
29 26 27 28 27 25 24 23 23 24 25 23 23 23 25 26 25 25 25 25 26 27 27 30 35 42 43 43 44 44 43 43 44 43 39 35 31 28 28 30 29 30 30 29
28 28 31 29 28 26 26 24 24 24 25 24 24 23 23 25 26 25 26 25 26 27 27 30 35 42 42 43 43 44 44 43 42 36 31 27 26 26 26 25 26 26 27 28
29 30 28 30 28 27 25 27 26 25 25 22 26 20 24 25 25 26 26 25 25 27 27 29 33 40 42 42 43 44 44 41 35 33 30 29 28 26 24 24 25 25 25 26
27 29 29 28 28 28 27 28 26 26 25 26 26 23 24 26 26 26 27 28 25 27 27 29 32 37 42 41 42 43 41 35 33 32 30 28 25 23 23 24 22 23 24 25
27 30 29 29 28 28 29 28 29 30 27 24 25 24 23 25 26 27 28 29 26 27 27 28 32 38 41 39 40 40 37 34 33 31 29 25 22 22 21 21 21 22 22 23
27 27 29 28 27 29 28 25 22 24 23 22 27 25 24 27 29 28 28 29 28 27 27 29 34 37 39 38 37 37 36 34 33 29 26 23 22 19 18 19 19 20 20 20
25 23 28 29 27 27 28 25 24 19 21 22 25 24 26 29 30 30 29 29 28 26 27 29 32 35 37 36 35 35 34 32 30 26 24 22 20 19 18 18 19 19 18 19
25 24 29 29 30 27 26 26 28 26 16 21 26 26 28 29 27 28 28 29 26 26 27 28 32 34 35 35 34 31 29 28 28 25 23 21 19 18 18 20 20 20 20 17
26 24 29 27 29 29 27 29 26 27 18 18 24 25 25 27 27 27 27 29 27 26 26 27 29 31 32 33 32 28 28 26 26 24 22 20 19 19 20 20 19 19 19 18
28 30 28 28 27 27 27 27 28 28 27 22 19 22 27 27 27 27 27 28 28 26 25 26 26 28 30 30 28 27 24 23 24 23 22 21 21 20 20 19 19 18 19 18
30 31 27 26 29 29 30 28 28 26 23 26 25 24 26 29 28 28 28 28 29 27 26 26 25 25 27 27 26 25 23 23 23 22 20 21 20 20 20 19 18 19 18 19
31 31 25 27 28 28 27 28 28 28 27 25 23 24 26 27 28 28 28 28 29 27 26 25 24 23 24 25 24 22 21 22 22 20 20 20 20 19 19 18 18 19 18 18
34 34 28 25 25 28 26 27 28 28 26 26 25 25 26 26 26 27 28 28 28 27 26 25 24 23 23 23 23 21 19 20 21 19 19 19 19 19 19 19 18 18 18 18
33 33 31 30 30 28 27 27 28 28 27 26 26 26 27 28 26 27 28 29 28 27 26 26 25 23 22 22 21 20 18 19 20 19 19 19 20 19 20 20 19 19 19 17
35 33 33 32 31 31 29 28 28 29 29 28 28 27 29 29 29 28 28 29 29 28 27 27 26 24 22 21 21 18 17 19 20 19 19 19 20 20 21 21 21 20 19 18
36 35 34 32 32 31 31 32 29 28 28 28 27 28 30 30 29 29 29 29 29 29 29 28 27 25 23 21 20 19 18 20 21 21 23 22 22 21 22 22 21 20 19 17
36 36 36 33 33 27 32 33 33 32 31 29 29 30 32 32 31 32 32 30 30 30 30 29 28 27 25 22 21 20 20 22 22 23 24 23 22 22 22 22 21 20 19 18
39 37 33 31 31 30 31 31 32 32 33 35 34 34 34 34 33 32 33 33 32 31 31 31 30 28 25 22 22 22 22 22 22 22 23 23 22 23 22 22 21 20 20 20
39 39 35 31 29 27 28 31 34 34 31 34 36 36 36 34 32 34 36 33 32 32 32 31 30 28 24 22 22 23 22 22 22 22 22 23 24 25 23 23 23 23 23 19
35 35 32 32 31 32 29 25 34 30 28 25 31 34 34 34 35 33 31 31 31 31 31 31 29 27 25 23 24 23 23 23 24 27 25 24 24 26 25 25 24 20 19 18
33 32 32 32 30 28 25 27 31 28 26 27 27 27 28 30 28 29 29 29 30 31 31 30 30 29 28 26 26 26 26 28 28 27 25 25 25 25 25 23 20 19 19 18
31 35 35 35 33 26 28 26 27 25 23 21 27 23 25 24 25 26 26 27 27 28 28 28 29 28 29 30 30 30 28 25 24 25 25 24 23 23 22 21 18 16 16 17
29 31 31 32 30 28 29 32 32 24 22 22 23 24 22 22 21 24 23 24 25 25 26 26 28 28 25 25 26 27 25 24 25 24 22 21 21 19 18 19 17 17 16 15
27 31 26 24 28 28 30 32 34 32 31 28 22 22 19 19 19 22 24 24 24 23 23 25 25 25 24 22 21 20 21 22 23 21 18 18 18 17 15 13 15 16 10 16
28 27 26 26 29 32 31 33 34 33 30 24 17 18 19 18 17 22 23 23 23 21 20 20 18 18 16 18 19 19 20 21 19 16 16 15 15 12 11 11 7 19 18 20

GFSCGP_sfc_dewp_045.txt.gz
Dewpoint
29 24 23 25 22 22 22 21 21 23 25 23 23 23 23 24 26 26 26 26 26 27 28 30 32 39 43 44 44 44 44 45 43 43 43 42 40 38 38 39 41 41 41 39
27 24 26 27 27 23 23 23 22 24 25 24 24 23 24 25 25 25 26 26 26 27 27 29 32 40 43 44 44 44 44 44 44 44 40 37 34 30 31 33 34 35 34 34
27 26 30 27 27 25 25 23 23 23 25 24 24 22 23 24 26 26 26 26 26 26 27 27 31 38 42 43 44 44 44 44 44 39 32 29 29 29 30 29 29 28 28 29
29 30 29 29 27 26 24 27 26 25 24 22 26 20 23 24 24 26 26 26 26 26 27 27 30 37 41 43 44 44 44 44 39 34 32 33 33 29 29 27 27 26 26 26
25 29 27 28 28 28 27 28 26 25 26 24 25 22 22 26 25 26 26 27 27 27 27 27 29 34 40 43 44 44 44 41 35 34 34 34 31 26 26 26 24 23 24 25
27 30 30 29 29 28 29 28 28 29 26 23 24 23 20 23 25 26 27 28 29 28 27 28 29 34 40 42 43 43 43 38 35 34 32 31 27 24 24 23 22 23 23 23
27 27 28 28 27 29 27 25 22 21 21 21 26 23 20 23 26 27 26 28 29 30 27 28 30 35 40 40 42 43 41 36 34 33 30 28 27 24 23 21 21 21 21 20
23 20 27 28 27 26 27 25 23 17 19 20 26 24 25 29 29 29 30 30 30 28 27 28 30 34 39 40 41 42 40 36 33 31 30 27 25 23 22 20 20 19 18 19
24 24 29 29 28 27 26 25 27 23 16 21 22 24 26 29 28 28 29 29 29 28 27 28 31 34 38 40 40 42 39 35 33 30 27 25 23 21 20 20 20 19 20 18
25 22 29 28 30 30 26 29 25 26 15 15 21 23 23 27 27 28 28 28 29 28 27 28 31 34 37 39 39 38 37 33 31 28 26 24 21 20 19 19 19 18 18 17
28 28 27 28 27 27 28 27 27 27 25 21 18 20 27 27 27 27 28 28 28 28 26 27 30 33 35 36 35 33 32 31 30 27 25 23 21 19 19 18 18 17 16 17
30 30 26 26 30 30 29 27 27 24 22 25 24 21 26 28 28 28 27 28 29 28 27 27 28 30 31 33 32 33 31 29 28 26 24 22 21 20 18 17 17 18 16 17
31 30 21 25 29 28 27 28 27 28 27 25 22 23 26 29 29 28 28 28 28 29 27 26 26 27 29 30 31 31 29 27 26 24 23 22 21 19 18 17 17 17 16 16
35 33 27 23 25 28 26 27 28 27 25 25 25 24 26 27 26 27 28 29 29 28 27 26 25 25 26 28 29 29 28 26 25 23 23 22 20 19 18 18 17 17 17 17
35 34 33 31 31 28 28 27 28 27 27 26 26 26 27 28 27 27 28 28 28 28 27 26 26 26 24 25 27 27 26 24 23 22 22 21 21 20 19 19 18 19 18 17
37 34 34 32 33 32 29 28 28 29 28 28 27 27 29 29 31 29 29 29 28 28 28 28 27 26 25 24 25 25 24 23 23 21 22 21 21 21 21 21 20 19 19 19
36 36 33 31 33 33 30 31 30 29 29 29 27 29 30 30 29 30 30 29 29 29 29 29 28 27 25 24 24 24 24 23 23 23 23 22 22 22 22 21 20 19 19 19
35 36 35 32 33 26 32 33 33 32 31 30 30 31 32 32 32 33 32 31 31 30 30 30 29 28 27 26 24 24 23 23 24 23 24 23 22 22 22 22 21 20 20 19
40 37 34 31 31 32 31 31 31 31 31 33 31 31 31 31 33 32 34 34 33 33 32 32 32 30 28 25 24 23 23 23 23 23 23 23 23 23 22 23 23 23 23 23
39 40 36 31 29 27 29 31 33 34 30 33 34 34 34 34 32 33 36 35 35 34 33 33 31 29 27 24 23 23 22 22 22 23 23 23 24 25 25 25 24 25 25 24
34 35 33 33 31 32 30 26 33 30 28 26 30 33 34 34 35 32 31 31 31 31 30 29 29 27 24 23 24 23 22 22 23 24 24 24 25 27 26 27 27 26 25 24
33 32 32 33 31 29 27 30 31 28 26 26 27 26 28 31 30 28 28 29 30 29 29 29 27 24 23 25 25 24 23 26 26 26 25 26 28 29 28 28 27 26 25 24
32 34 32 33 33 30 28 27 28 26 23 23 25 21 26 25 25 27 27 27 28 29 29 28 28 27 26 25 26 25 28 29 29 30 30 30 30 30 30 29 27 24 24 22
29 30 34 33 31 26 28 30 28 22 21 23 24 26 23 23 25 26 26 26 26 25 24 25 28 28 27 29 29 30 30 30 30 29 28 28 28 26 25 25 23 22 20 19
29 32 31 31 25 28 28 29 31 31 32 29 22 21 21 22 23 24 24 24 25 24 25 27 27 25 23 23 23 25 25 26 26 25 22 23 22 22 20 18 19 19 16 19
29 30 31 30 30 31 30 31 34 33 32 30 18 17 18 19 20 23 23 23 23 22 21 21 21 22 20 20 19 19 21 24 22 20 19 19 18 17 17 16 12 20 19 21

GFSCGP_sfc_dewp_048.txt.gz
Dewpoint
29 23 23 23 22 25 20 22 24 22 24 23 23 23 23 24 26 25 26 26 26 27 28 29 31 33 41 43 44 45 45 48 46 45 45 44 44 41 42 44 46 47 46 47
26 23 25 26 24 23 23 25 22 23 25 24 24 24 25 25 25 25 25 26 26 27 27 28 30 33 40 43 44 44 45 47 46 45 42 41 38 34 36 37 38 40 41 41
25 25 29 26 26 24 23 22 22 22 25 26 24 23 23 24 25 25 26 26 26 26 27 27 29 31 38 42 44 45 45 45 45 43 34 32 33 33 33 33 35 33 35 36
27 29 28 27 26 25 23 26 25 24 24 22 25 19 22 23 23 25 25 26 26 26 27 27 28 30 36 40 44 45 45 45 44 36 36 38 35 34 34 32 30 29 30 31
24 29 28 27 27 27 25 28 27 27 25 24 23 22 22 26 24 24 24 26 27 27 27 27 28 29 33 39 44 45 44 44 42 37 38 38 36 30 29 29 27 27 26 27
25 32 29 28 29 28 29 27 27 29 26 22 24 22 19 22 23 24 25 26 27 28 28 27 28 30 34 40 43 44 44 43 38 36 36 38 34 29 29 27 26 25 25 24
26 27 28 28 27 28 27 25 20 18 20 20 25 22 19 21 22 25 25 25 27 29 28 28 28 31 37 40 42 43 44 42 38 36 35 35 33 30 30 26 25 23 22 21
21 16 27 28 27 26 26 25 22 13 16 17 25 23 23 27 27 27 27 28 30 29 28 28 29 31 37 40 41 43 43 41 37 36 34 32 31 31 31 27 24 22 20 20
22 22 28 28 28 26 26 25 26 20 14 19 18 20 23 26 27 28 29 29 30 30 29 29 29 32 37 39 40 42 42 41 37 36 33 30 29 28 27 24 22 21 20 19
23 21 28 29 29 30 26 29 24 25 16 14 18 20 20 23 25 26 27 28 29 29 29 28 29 32 36 38 40 42 42 40 36 34 32 30 28 27 25 23 21 20 19 18
26 26 26 28 27 26 27 27 26 26 24 18 16 15 26 23 24 24 26 28 29 29 29 28 29 32 36 37 39 40 40 37 34 33 30 28 27 25 23 23 21 19 18 17
29 29 24 25 29 29 27 26 26 22 20 24 23 18 26 27 27 28 27 27 31 29 29 28 28 32 34 35 36 37 38 36 35 31 27 26 24 23 22 21 19 19 17 17
31 30 23 25 28 28 27 28 26 27 27 23 20 20 26 28 27 27 28 28 28 29 28 27 27 30 32 34 35 36 36 35 33 29 27 25 23 22 22 20 18 17 16 16
36 33 30 26 24 27 26 27 27 26 27 23 23 22 24 27 27 26 27 28 29 29 29 27 26 27 29 32 33 35 34 34 31 29 27 25 23 22 21 20 18 17 16 16
36 32 32 31 29 28 27 27 28 26 25 24 24 24 25 26 27 27 28 28 28 29 28 28 27 27 26 28 31 32 33 31 29 28 27 26 24 22 21 20 19 18 17 16
37 33 34 32 32 32 31 29 29 28 27 27 26 26 27 28 29 29 29 29 29 29 29 29 28 27 27 26 28 29 31 30 28 27 27 26 24 22 23 21 20 18 17 18
37 34 33 31 32 33 31 33 32 31 30 29 27 28 30 30 29 30 30 30 30 30 30 30 29 29 28 26 26 27 29 29 27 28 27 25 24 23 22 21 20 18 18 18
35 35 34 31 30 25 31 33 34 33 32 32 31 31 32 32 32 33 33 32 32 32 31 31 31 30 29 28 26 27 28 27 27 27 26 25 24 24 23 21 20 19 18 18
39 35 33 31 29 29 30 31 31 31 32 34 32 32 31 32 32 31 33 33 33 34 34 33 33 32 29 28 27 26 26 25 26 26 25 25 24 24 22 22 20 20 20 20
37 38 35 32 28 25 27 29 33 33 30 33 34 34 34 33 31 32 34 33 33 32 33 33 33 31 29 27 26 25 24 24 24 25 24 24 25 25 24 23 23 23 23 24
33 35 32 32 30 29 30 27 33 29 28 26 30 33 32 34 34 31 31 30 30 30 30 29 28 27 25 25 25 24 23 23 24 25 24 24 24 26 25 25 25 26 26 25
32 31 31 33 30 28 29 29 30 30 26 28 27 27 28 30 29 28 28 28 29 29 29 27 24 23 24 25 24 23 23 24 24 24 24 25 27 27 27 27 27 27 26 25
31 34 32 33 33 36 30 32 30 26 25 24 26 22 24 26 26 27 27 27 28 29 28 26 24 24 24 23 24 23 23 24 24 24 25 27 28 28 29 28 27 26 26 26
29 32 33 33 33 33 32 30 29 25 23 23 24 23 23 24 27 27 27 27 26 24 25 25 26 24 26 28 29 29 29 28 29 29 29 29 29 29 29 30 28 28 26 25
25 32 32 31 30 28 30 29 29 27 28 25 25 22 22 27 26 26 25 26 25 26 26 28 28 25 23 24 25 27 28 31 30 29 26 28 28 27 26 24 25 25 22 26
29 29 30 29 31 32 31 30 30 32 33 27 18 19 19 20 22 24 24 23 24 24 24 24 22 20 18 17 15 16 20 24 24 22 22 23 22 21 21 19 18 21 21 23

GFSCGP_sfc_dewp_051.txt.gz
Dewpoint
29 23 23 22 23 19 19 19 19 21 24 25 24 24 24 25 25 25 25 26 26 27 28 30 32 34 36 42 44 46 47 50 50 49 49 48 49 48 49 49 51 52 52 53
25 23 24 25 24 23 22 22 21 23 25 24 24 24 25 26 25 26 25 25 26 27 27 29 30 33 35 38 43 45 47 49 49 50 47 46 43 42 44 44 46 47 49 49
24 23 27 25 25 23 23 22 22 21 25 25 24 23 24 25 26 26 27 27 27 27 27 28 29 31 35 38 42 45 46 48 49 48 40 36 36 37 39 40 40 41 44 45
26 28 27 26 24 24 22 25 24 24 24 20 25 17 23 23 23 25 26 27 26 27 28 28 29 30 32 36 41 44 46 48 48 44 42 42 45 40 40 40 39 36 39 40
23 28 28 26 25 25 24 28 25 26 25 25 24 22 22 25 23 24 24 25 26 28 28 28 29 30 31 36 41 44 46 47 47 43 45 44 42 39 37 36 35 34 33 36
25 31 29 27 29 27 29 27 27 28 26 22 23 19 13 19 22 22 24 25 27 27 29 29 30 31 32 37 42 44 45 45 46 44 43 43 43 35 35 33 34 31 31 31
27 27 29 29 27 29 27 24 18 16 20 19 24 21 17 20 22 24 22 23 25 28 30 30 29 30 32 38 41 43 44 45 43 42 42 42 41 37 37 34 34 30 29 27
21 17 27 28 25 26 26 24 19 11 13 14 25 22 21 26 27 27 26 27 28 30 30 30 30 30 32 38 41 42 43 44 42 42 41 41 40 37 37 35 34 32 31 29
20 20 28 28 28 25 26 25 24 19 14 19 18 18 20 25 25 26 28 29 29 30 31 31 31 30 33 38 40 42 43 44 42 41 40 38 37 37 36 34 32 30 28 26
22 18 28 28 28 29 26 28 24 24 15 14 16 17 17 20 22 23 25 26 28 29 30 31 30 30 33 38 40 42 43 43 41 40 38 37 35 34 34 31 29 25 23 21
25 25 25 28 26 26 27 26 25 25 23 17 14 14 21 20 21 23 25 27 29 29 30 30 29 30 33 37 39 41 42 42 39 38 36 35 34 31 30 29 28 24 22 20
28 27 23 25 28 29 28 25 26 22 20 23 22 18 24 24 26 28 28 28 29 29 30 30 29 30 33 36 38 40 41 41 39 37 34 34 32 30 28 28 26 24 21 19
30 30 22 24 27 27 26 27 26 26 26 22 20 19 26 27 26 27 27 28 29 29 30 29 28 29 31 34 36 38 40 40 38 35 33 31 30 29 28 27 25 22 20 18
35 34 30 25 24 27 26 27 27 26 26 22 22 20 20 26 26 26 27 28 28 29 30 29 28 27 29 32 34 36 37 39 37 33 32 31 29 28 27 26 24 22 20 18
33 32 33 33 31 27 27 27 27 25 25 23 24 23 23 24 25 25 27 28 28 29 29 29 30 30 27 29 32 34 36 37 35 33 32 32 30 27 26 25 24 22 20 17
35 31 31 30 33 32 29 28 28 27 26 25 25 24 26 28 28 29 29 29 29 29 30 30 31 30 29 27 29 31 34 35 34 34 33 32 28 27 27 25 23 21 19 18
36 34 33 30 31 31 30 32 31 30 29 28 25 27 29 30 30 30 30 30 30 30 31 31 32 31 31 29 28 29 31 34 32 33 32 31 28 27 26 25 22 20 19 18
36 35 34 30 29 25 31 33 34 33 33 32 31 31 32 32 32 33 34 33 32 32 32 32 33 32 32 31 29 28 31 31 31 31 31 29 27 27 25 23 22 20 19 18
38 36 32 29 29 28 28 30 31 31 32 34 33 33 33 33 33 33 33 34 34 34 34 35 34 34 33 31 29 28 29 29 29 29 29 28 27 26 24 24 23 21 21 20
36 38 33 32 27 24 28 27 32 33 30 33 34 34 34 33 31 32 33 33 32 32 32 31 31 31 31 29 28 27 27 26 26 27 27 26 27 25 25 24 24 24 24 23
31 32 30 30 29 31 32 27 32 29 27 27 33 35 35 34 34 32 31 31 31 31 30 29 26 26 25 26 26 25 25 25 26 26 25 25 26 25 25 24 25 25 25 25
25 26 27 30 28 26 28 30 29 30 28 27 28 30 31 33 32 29 29 29 29 29 28 26 24 24 24 25 25 24 23 24 24 24 23 24 24 25 26 26 26 26 26 25
30 30 31 32 32 35 36 35 36 30 30 27 28 28 27 27 27 28 28 28 28 28 26 24 24 24 23 22 24 23 23 23 22 22 22 25 25 26 27 27 27 26 27 26
29 32 30 30 31 34 35 38 37 31 28 25 27 24 23 25 27 27 27 27 26 25 25 25 26 27 27 27 27 26 26 27 27 27 27 27 26 27 27 27 27 28 28 28
24 28 30 29 29 31 34 33 34 27 25 25 25 24 24 27 28 27 26 24 25 27 27 28 26 24 23 23 23 25 29 31 30 29 28 28 28 28 28 27 28 28 28 29
28 25 26 23 27 31 31 31 31 28 26 27 24 20 20 26 26 25 24 24 26 26 25 22 20 17 15 14 13 13 18 28 28 25 26 26 26 26 24 24 22 26 27 30

GFSCGP_sfc_dewp_054.txt.gz
Dewpoint
29 23 21 19 22 17 18 17 16 19 23 25 23 23 23 24 25 26 25 26 26 27 28 29 31 34 39 42 41 42 44 47 50 51 51 52 53 54 55 58 59 58 58 58
25 22 23 26 25 23 22 21 19 23 24 25 24 24 23 24 25 25 25 25 26 26 27 29 31 33 35 37 41 42 44 46 50 49 50 51 52 52 53 54 54 54 55 56
20 22 27 25 24 23 23 21 20 18 25 26 25 19 21 24 26 26 26 26 26 26 26 27 31 33 35 36 39 41 43 45 48 49 50 48 47 44 46 47 49 49 52 51
24 27 26 25 23 23 20 24 24 23 23 15 24 8 14 18 21 23 24 26 25 27 28 29 30 32 35 37 39 41 42 45 47 49 49 47 49 49 48 49 48 46 48 49
22 28 27 26 24 25 22 27 25 26 26 26 22 19 14 23 17 21 23 25 27 28 30 29 31 32 33 37 39 41 42 44 47 49 48 48 48 51 47 48 48 46 45 46
26 30 29 26 28 27 30 29 28 29 28 21 18 19 8 8 14 19 22 23 26 27 30 30 32 34 34 37 39 42 42 43 46 48 48 48 48 49 46 49 48 45 44 44
28 27 29 30 28 30 28 25 16 19 24 17 24 22 15 17 19 21 21 20 26 28 29 31 33 33 33 35 38 41 42 42 45 47 47 48 48 48 47 47 48 46 43 42
19 17 28 30 25 26 27 23 16 19 16 10 26 20 18 26 25 26 26 27 29 30 30 32 33 34 34 36 38 40 41 42 44 46 46 47 48 47 46 45 46 45 44 42
18 18 28 28 28 25 26 25 23 20 25 21 11 13 16 24 22 24 25 27 28 29 32 33 34 34 34 35 38 40 41 42 43 44 45 46 46 45 44 43 44 43 43 40
20 16 28 28 29 29 26 27 23 22 28 21 8 14 15 22 21 23 24 26 28 31 32 32 33 33 33 35 38 40 41 41 43 44 44 45 45 44 44 42 41 41 39 35
24 26 26 28 27 25 25 24 25 24 24 22 16 9 19 20 21 22 27 30 29 31 32 32 32 32 32 35 38 39 41 42 43 43 43 44 44 43 42 41 39 37 34 31
30 28 24 24 28 29 27 23 24 22 24 24 23 18 20 22 24 28 28 30 31 31 31 31 32 31 32 35 37 38 40 42 43 42 42 42 42 42 41 38 36 34 31 29
32 33 31 29 28 29 27 26 25 24 28 30 26 20 24 25 25 26 28 29 30 31 31 32 31 30 30 32 35 36 39 41 43 42 41 41 41 40 40 38 35 33 31 28
36 35 33 27 25 27 26 26 27 25 26 24 24 20 20 23 26 27 29 30 29 30 32 30 32 31 30 31 32 34 36 39 42 41 40 40 40 39 38 37 34 31 30 27
33 32 32 32 30 29 29 28 27 26 25 25 25 23 24 25 25 25 25 27 28 30 30 32 33 35 33 30 32 33 34 37 40 39 39 39 39 38 37 36 32 30 28 25
38 33 33 32 33 33 33 32 31 29 27 26 25 26 28 28 29 28 29 30 30 30 31 32 33 34 34 32 32 32 33 35 38 38 38 38 38 36 34 33 30 28 26 24
36 34 32 31 34 33 31 34 32 31 30 29 26 28 30 30 29 29 29 31 32 32 32 33 34 35 35 34 33 31 32 35 38 38 38 37 35 33 32 31 29 27 25 23
37 35 34 30 31 23 32 32 32 32 32 32 32 32 32 32 32 34 35 35 35 34 34 34 35 35 35 36 35 32 36 36 36 37 37 36 34 33 32 30 28 26 24 22
37 35 31 29 27 27 31 31 31 32 32 34 33 33 32 33 35 34 35 36 36 36 37 38 37 36 35 35 34 33 33 34 34 34 35 34 33 32 30 29 28 26 25 24
32 36 33 31 26 23 23 27 30 33 31 35 36 35 35 35 33 33 35 35 34 33 34 34 34 33 32 31 30 31 31 31 31 31 32 32 32 31 30 30 29 29 28 25
30 32 29 29 28 32 38 37 34 29 34 36 37 34 35 35 35 36 34 33 33 33 32 30 28 27 26 28 30 29 28 29 30 31 30 30 31 31 31 30 30 29 27 25
25 30 29 29 26 23 33 33 31 33 35 34 32 32 34 36 36 34 31 31 31 31 29 27 26 25 25 28 30 28 27 27 29 29 28 28 29 30 30 28 29 28 27 26
24 27 26 31 32 36 36 36 37 36 36 35 35 34 30 30 29 29 29 29 29 29 26 26 26 25 25 27 29 27 26 27 26 27 26 28 29 30 29 29 28 27 27 26
25 36 32 32 34 35 35 33 34 34 35 35 37 33 34 33 31 29 29 28 28 27 26 28 28 27 27 29 28 27 27 28 27 27 27 27 28 28 29 29 29 29 28 28
28 30 31 29 30 31 32 34 34 35 38 37 36 31 28 27 27 29 29 29 28 28 28 28 27 25 24 25 25 27 30 31 30 29 28 29 28 29 28 28 28 28 31 31
22 23 22 22 25 27 26 33 34 36 37 37 35 31 24 29 30 29 28 28 28 27 25 23 21 20 19 19 19 21 26 32 30 29 29 28 29 29 28 27 26 29 31 32

GFSCGP_sfc_dewp_060.txt.gz
Dewpoint
30 22 19 18 18 17 18 15 15 16 24 25 23 22 20 19 19 21 22 23 22 22 25 26 29 35 42 48 52 56 58 57 56 57 56 55 56 57 59 60 60 61 64 63
26 21 20 26 26 21 22 19 16 17 25 24 22 20 20 20 20 21 21 21 21 22 23 26 29 32 40 44 49 52 55 55 55 55 55 53 52 52 55 57 57 59 62 62
25 26 25 25 25 24 22 20 17 17 24 24 23 21 21 21 20 20 21 20 21 22 22 24 30 32 36 41 45 47 50 52 53 52 51 50 50 51 51 53 55 56 57 59
26 26 26 25 23 22 19 22 20 22 21 15 26 17 14 11 10 20 23 25 24 24 25 25 26 33 36 37 42 45 45 45 47 47 48 49 47 48 49 50 52 54 55 56
24 27 27 26 23 22 24 27 24 25 24 27 20 20 17 14 11 13 17 19 24 31 28 27 28 31 36 39 40 42 44 44 44 46 47 49 48 49 48 49 49 52 53 54
29 31 29 27 29 29 30 29 27 28 26 21 20 16 10 9 10 11 15 19 26 29 29 31 31 33 37 41 42 42 42 43 44 45 47 47 48 47 47 48 50 51 51 52
27 27 30 31 28 30 29 22 17 21 23 16 21 16 13 15 15 15 16 20 28 29 32 33 33 34 35 40 42 43 42 41 43 45 46 47 48 48 46 49 50 49 49 49
19 21 28 29 28 27 28 22 21 16 20 19 22 17 18 18 19 22 22 24 33 33 31 32 32 36 37 38 40 41 41 41 42 43 45 47 47 48 47 48 50 50 49 49
17 18 27 28 27 27 27 24 26 21 19 20 18 16 16 22 19 20 22 22 23 29 33 33 34 35 38 38 39 40 40 41 41 42 44 45 47 47 47 47 48 49 49 48
23 19 28 29 29 28 27 27 22 22 15 14 12 11 12 19 20 22 21 28 30 32 33 34 34 35 36 37 39 40 41 40 41 42 43 44 46 46 47 47 47 47 49 49
26 26 27 28 26 24 25 22 24 22 22 20 14 12 14 17 23 24 28 30 35 38 34 33 34 34 35 36 38 39 40 40 41 42 43 44 44 45 46 46 46 46 46 45
30 29 24 24 27 29 25 21 23 22 20 22 23 15 20 21 26 28 27 28 28 31 32 32 33 34 34 36 38 39 40 40 41 42 43 44 44 44 45 45 45 44 44 42
35 33 24 25 28 28 26 25 24 23 24 24 20 17 17 21 23 24 26 30 30 36 36 33 32 32 32 33 37 38 39 40 41 42 42 43 43 43 44 44 44 43 42 40
39 36 32 24 30 32 25 25 26 25 24 21 22 21 22 22 23 24 26 29 30 31 32 31 31 31 31 32 34 36 37 39 40 42 42 42 41 42 43 43 43 42 41 37
38 33 34 34 34 33 34 36 33 31 30 25 23 22 24 24 25 26 28 30 30 30 30 30 31 32 33 35 35 34 34 37 39 41 42 42 41 42 42 40 39 38 36 35
38 33 34 32 34 34 32 32 31 30 29 28 28 27 27 27 28 28 28 30 30 31 32 32 32 33 33 33 35 36 35 35 38 39 40 41 39 37 37 36 36 35 33 32
37 34 32 27 30 31 30 31 31 31 31 30 26 26 28 30 31 32 32 32 32 33 34 35 35 35 35 37 38 37 37 36 35 35 33 33 34 34 35 35 34 32 31 29
35 33 32 28 30 22 25 29 31 30 30 32 32 33 33 33 33 34 34 34 34 34 35 35 36 37 38 37 37 37 34 33 33 32 33 31 33 32 31 31 31 30 29 28
34 32 29 26 23 25 23 22 24 26 26 30 31 32 32 34 35 34 36 37 36 36 36 37 37 36 35 34 33 32 31 32 33 33 33 33 30 29 29 28 28 28 27 25
29 31 27 21 10 3 8 15 23 27 24 32 34 34 33 34 30 31 36 36 36 35 36 35 34 32 32 30 30 30 30 30 30 31 32 32 29 27 26 27 26 25 24 27
25 22 25 25 23 24 25 24 29 20 22 30 31 32 32 31 32 35 37 34 34 34 33 34 31 30 27 28 29 29 29 28 28 28 28 27 28 26 27 26 24 23 23 27
15 15 18 19 21 19 29 29 27 28 30 29 30 31 31 32 33 35 34 33 32 32 32 31 29 28 26 27 28 27 26 27 25 25 25 23 22 26 25 24 22 21 21 25
15 19 20 25 22 31 33 31 36 35 33 32 30 30 32 32 32 33 33 34 33 32 31 28 27 26 27 25 27 26 26 26 24 23 24 24 23 25 24 23 22 22 20 22
20 22 19 17 20 22 29 33 33 33 31 31 30 30 31 33 34 34 33 34 32 31 28 26 25 27 26 25 26 24 24 25 22 22 23 26 27 24 22 24 24 23 23 23
22 21 18 19 23 24 25 27 27 27 27 29 31 32 35 32 31 31 32 31 31 31 26 25 25 24 24 26 27 28 26 27 26 23 26 27 27 27 25 26 25 28 28 26
19 18 17 17 21 24 23 24 23 24 26 28 30 31 31 30 31 32 31 29 29 26 24 22 21 22 20 20 24 26 30 29 28 26 25 27 27 26 27 28 30 32 32 32

GFSCGP_sfc_dewp_063.txt.gz
Dewpoint
27 21 18 18 18 16 16 16 15 21 24 22 22 22 23 23 21 21 24 24 24 24 24 24 28 34 46 50 56 58 60 60 60 60 60 58 58 57 58 59 59 62 63 62
21 16 20 21 21 19 20 18 16 21 25 21 19 19 20 21 20 19 18 21 23 23 23 24 26 32 40 48 52 57 59 59 60 60 60 60 56 54 56 57 58 58 62 62
21 22 22 24 23 20 20 18 17 17 22 20 24 17 17 19 23 22 21 22 22 22 22 23 24 29 36 43 49 53 57 58 59 58 55 51 52 50 52 53 56 56 57 61
26 27 24 24 22 20 18 23 21 21 18 12 23 12 19 13 9 11 16 21 22 23 23 23 23 30 33 38 44 50 54 56 56 54 54 53 54 53 53 53 53 54 54 56
23 24 24 23 22 22 20 26 22 24 23 25 24 16 17 18 11 11 12 17 22 28 25 25 26 30 33 37 42 46 47 50 53 53 52 52 51 49 47 48 50 50 51 53
26 30 27 25 29 27 29 27 26 28 24 17 20 14 11 7 8 11 15 22 27 32 30 29 32 33 37 38 40 43 45 45 45 48 47 49 49 47 47 46 48 48 49 49
27 26 30 29 26 28 26 18 13 16 21 14 20 16 12 13 15 14 14 18 35 36 31 31 37 31 36 40 40 41 42 43 44 45 46 47 48 48 47 47 48 47 48 48
22 17 27 29 26 25 26 18 16 11 18 15 20 16 14 19 18 20 21 23 27 29 28 30 31 33 34 37 40 42 42 41 42 44 45 47 47 48 48 47 49 49 49 49
18 17 28 29 28 24 25 24 24 20 16 18 16 17 15 20 17 18 17 22 30 31 32 32 33 36 37 37 38 40 40 41 41 42 44 45 47 47 47 47 47 49 49 49
22 19 28 28 27 28 25 26 21 23 11 11 12 11 14 15 13 14 25 29 30 32 33 33 35 35 36 38 38 40 40 40 41 41 42 43 45 46 47 47 47 47 48 47
25 25 25 26 25 24 24 22 23 22 23 16 13 11 14 13 19 25 29 30 31 31 32 33 33 34 35 36 38 39 40 40 40 41 42 42 43 45 46 46 47 46 45 47
30 27 24 22 26 27 24 22 24 21 18 21 21 14 21 26 27 27 26 28 30 31 32 32 33 33 33 35 36 38 38 40 40 41 41 42 43 44 44 45 45 44 45 44
32 31 20 23 26 28 25 25 23 24 24 21 18 15 19 23 24 25 27 28 29 34 37 31 32 32 33 33 35 36 38 39 40 41 41 42 42 42 43 43 43 43 43 42
39 34 27 21 27 31 27 31 31 25 22 21 21 18 20 21 24 25 26 27 30 30 31 31 31 31 31 32 32 34 36 38 39 40 41 41 41 42 43 42 42 42 41 40
38 33 34 32 33 35 35 35 35 33 30 28 25 28 27 28 28 27 27 28 29 31 31 31 32 33 33 33 34 35 35 36 37 39 40 40 40 40 41 40 39 38 38 39
38 32 35 32 34 35 34 34 33 34 33 29 27 27 29 29 29 29 28 30 32 32 33 34 34 34 35 34 35 36 37 37 36 37 38 40 38 36 36 36 36 36 35 34
37 34 32 28 31 32 29 30 31 31 31 29 27 29 30 29 29 33 33 34 34 35 35 36 36 37 37 38 37 37 37 36 34 33 33 33 34 34 35 35 35 34 34 32
35 33 32 26 27 21 23 28 32 31 31 31 31 31 32 33 34 35 35 36 35 35 35 35 36 35 35 35 35 34 33 32 32 32 33 33 32 31 30 30 31 32 31 29
35 32 25 15 14 22 25 25 23 21 17 17 18 22 31 32 32 34 36 36 35 35 35 36 36 35 33 33 31 30 30 31 31 32 32 33 31 29 28 27 27 27 26 25
34 33 28 11 16 10 17 20 23 24 19 30 29 29 30 31 26 29 32 33 35 35 34 34 34 33 32 30 29 29 29 29 30 30 31 31 28 25 25 27 25 24 23 25
26 26 24 22 18 16 22 23 24 16 15 28 30 31 30 29 30 30 33 33 35 33 33 33 33 32 31 28 27 28 28 28 28 27 27 26 26 24 24 23 23 21 25 27
22 22 22 23 21 18 25 28 23 26 28 29 30 31 29 29 30 31 32 33 33 33 33 32 31 31 29 27 27 27 27 27 24 23 23 21 20 25 23 22 18 18 23 26
11 19 15 21 20 25 31 29 33 34 31 30 29 29 30 30 30 30 32 33 32 32 33 31 29 29 27 24 24 26 25 24 22 22 24 23 21 22 21 23 21 20 22 25
20 21 17 16 17 20 27 31 33 35 32 30 30 29 29 30 30 32 32 30 31 31 30 27 25 25 25 22 24 22 22 22 21 26 26 27 26 22 19 22 22 21 19 24
19 21 16 16 20 22 22 24 26 27 27 26 27 30 29 29 31 31 30 29 30 30 28 24 24 24 23 21 20 21 22 22 22 26 26 27 27 23 21 24 27 27 26 26
20 18 18 15 20 21 22 23 24 24 24 23 24 26 27 29 29 29 29 30 29 28 25 22 20 19 16 15 17 24 23 22 24 25 27 27 27 26 26 29 30 34 33 31

GFSCGP_sfc_dewp_066.txt.gz
Dewpoint
26 19 17 18 17 13 17 14 13 19 24 22 21 21 21 22 22 21 21 22 23 24 24 23 25 31 46 51 56 58 60 61 62 61 60 60 60 61 61 61 61 63 64 63
20 17 19 20 20 18 17 16 18 20 24 21 19 19 20 20 19 19 19 19 21 23 24 24 25 27 36 46 53 57 60 61 61 61 61 61 59 57 59 58 58 61 62 63
14 17 20 23 22 19 18 16 16 14 22 19 24 11 13 15 22 21 21 21 21 21 21 22 23 25 31 41 49 55 59 60 60 61 59 53 53 51 53 54 57 56 60 62
23 26 21 22 20 19 17 21 20 21 16 10 19 7 16 15 13 12 10 11 17 21 22 23 23 23 28 35 45 51 57 59 60 60 59 57 58 57 57 58 54 55 55 60
23 24 23 22 21 21 18 25 20 22 22 23 20 14 13 17 13 11 10 13 23 24 26 26 26 26 29 32 40 49 53 56 58 57 58 57 56 55 49 49 50 51 52 54
25 29 25 22 29 24 27 25 24 28 21 14 18 10 8 5 6 9 19 23 26 31 33 29 34 33 35 36 40 46 49 50 52 54 53 54 54 49 47 47 48 48 50 51
27 25 29 28 26 28 23 14 11 12 17 11 18 16 13 14 14 14 14 20 31 27 27 28 29 31 32 38 39 41 44 45 47 50 49 51 52 50 49 48 48 46 48 48
22 21 27 28 25 24 22 15 14 6 13 11 19 16 14 19 20 18 22 23 27 30 32 32 33 32 34 36 40 41 40 41 43 44 47 47 48 49 49 48 48 48 49 50
20 16 28 29 28 25 24 21 19 18 13 17 14 14 13 19 16 16 24 30 31 32 33 33 35 37 36 36 38 40 41 41 41 42 44 45 46 47 48 47 48 48 48 48
19 19 28 28 27 27 23 25 21 22 7 7 9 11 11 12 11 22 29 29 30 31 32 33 34 35 36 37 37 38 39 39 40 41 41 43 44 46 47 46 47 47 47 47
24 24 24 26 25 24 24 23 22 22 20 14 11 9 14 13 18 28 28 29 30 30 31 32 32 33 35 35 37 38 38 39 39 40 41 41 42 44 45 46 46 46 45 45
26 26 23 23 26 28 24 23 23 19 17 20 20 13 20 26 27 27 27 28 31 33 31 32 32 33 33 34 35 36 37 38 39 40 40 41 41 42 43 44 45 44 44 43
30 27 21 23 25 28 25 24 23 23 24 20 17 16 21 24 24 25 26 27 29 33 32 31 31 31 32 32 33 34 35 37 38 39 40 40 41 41 42 42 43 42 42 42
37 31 24 22 24 26 25 30 30 23 21 20 19 17 19 20 29 29 29 27 33 30 30 31 33 33 33 32 32 33 34 35 37 38 39 39 40 40 41 42 41 41 41 41
36 30 32 31 34 34 33 33 33 32 27 21 23 28 25 30 30 29 29 29 29 32 33 33 35 36 36 36 37 37 37 38 37 36 37 38 39 40 40 39 38 38 38 39
37 31 34 29 33 35 33 35 34 34 33 33 32 30 30 29 29 29 29 30 34 35 35 35 36 36 36 36 36 35 37 36 36 35 34 35 35 35 35 35 35 35 35 35
36 33 32 25 30 32 29 32 34 33 32 32 29 29 30 30 31 31 33 35 34 34 34 35 35 36 36 35 35 34 34 33 32 32 32 31 32 32 33 34 34 34 34 33
36 33 32 28 27 22 24 27 32 32 31 31 31 31 32 32 33 34 33 32 32 33 33 34 35 35 35 34 34 33 31 31 31 30 30 32 34 33 31 31 31 33 32 30
36 34 28 25 22 19 20 24 24 28 22 28 28 23 29 30 31 34 34 34 34 34 34 34 35 35 34 33 33 30 30 30 30 30 30 30 30 32 29 29 28 27 26 25
35 33 29 21 18 7 15 20 22 20 17 29 30 30 29 29 25 27 29 31 32 34 34 34 34 34 33 33 30 28 28 28 29 29 30 29 29 29 27 27 24 24 23 25
26 29 27 23 22 19 22 25 21 12 13 27 30 30 30 27 27 26 30 31 32 33 33 33 33 33 33 32 28 27 27 27 28 27 26 25 26 25 24 22 22 20 22 28
20 18 17 21 19 13 25 24 19 21 27 29 28 28 28 29 28 28 29 29 30 32 31 31 31 31 32 29 26 26 26 27 25 23 22 21 19 22 22 17 17 16 23 27
17 20 17 19 18 23 29 28 29 30 29 28 28 28 30 28 27 28 28 29 30 29 30 30 28 28 28 24 23 24 25 24 23 18 25 27 18 20 20 17 16 17 18 24
19 20 16 14 16 22 28 31 32 31 29 28 28 27 26 26 28 28 29 30 30 28 28 26 26 26 27 26 23 23 23 22 16 22 26 22 19 23 21 21 22 22 22 25
18 20 15 14 20 20 22 25 26 29 25 24 24 25 25 26 27 28 29 29 29 29 26 23 23 24 24 22 21 22 24 18 18 17 21 21 26 25 25 21 25 25 25 26
21 19 17 15 21 20 19 20 23 24 24 24 24 23 24 27 27 28 28 27 27 27 26 23 19 18 19 16 17 17 27 19 15 24 25 26 26 25 26 25 28 33 31 32

GFSCGP_sfc_dewp_069.txt.gz
Dewpoint
26 19 14 17 14 6 13 13 12 18 23 22 20 21 21 21 21 21 21 21 21 22 23 23 25 33 49 53 56 57 60 61 62 62 61 61 61 61 61 62 62 64 63 61
20 17 18 18 19 17 16 15 19 19 24 22 20 19 20 20 20 19 18 17 18 20 22 24 25 25 36 46 53 56 58 60 61 62 62 62 62 61 60 59 60 62 63 63
15 16 20 20 19 16 16 15 15 12 20 18 15 9 8 11 20 20 19 21 20 20 21 21 22 24 27 36 48 54 56 59 60 61 59 54 54 52 54 54 57 58 62 63
17 24 21 22 21 18 17 19 18 19 14 8 18 3 12 14 16 14 12 10 12 14 20 23 23 23 24 29 39 49 55 58 59 60 59 58 59 58 58 58 55 56 57 60
19 23 22 21 19 19 18 23 20 21 20 22 19 11 11 13 11 9 10 19 26 28 28 30 31 28 29 30 35 48 53 56 57 59 59 58 57 57 54 52 53 53 53 58
24 29 24 21 28 23 27 22 22 26 18 11 16 10 5 4 6 22 18 23 26 26 27 28 30 32 35 37 41 46 51 53 54 55 55 56 57 53 50 49 50 50 50 52
25 25 29 28 25 27 19 12 9 8 15 9 18 15 12 12 14 13 14 19 25 30 31 32 33 32 34 38 39 43 47 48 51 53 53 54 55 52 51 50 50 47 48 48
22 20 27 28 24 24 19 13 12 4 9 8 19 16 12 18 19 20 23 31 32 31 32 34 35 35 35 36 40 40 41 43 45 48 49 49 50 51 52 50 50 49 49 50
19 16 28 28 27 25 23 16 16 17 12 16 12 13 11 17 17 27 29 30 30 31 33 34 35 36 36 36 37 38 40 40 41 42 44 45 46 47 48 47 47 48 47 47
20 16 27 27 27 27 23 25 19 19 5 5 7 10 7 11 24 27 27 29 29 30 31 32 33 34 35 36 37 37 38 38 38 40 41 42 43 44 46 46 46 46 46 46
21 23 24 26 25 24 23 22 21 20 17 11 9 7 12 15 26 26 26 27 29 30 31 31 32 32 33 34 35 36 37 37 38 39 39 40 41 42 43 44 45 45 45 44
25 24 24 24 26 27 27 22 21 18 16 20 18 14 22 26 27 27 27 27 29 35 31 31 32 32 32 33 33 34 35 36 37 38 39 39 40 41 41 42 43 43 44 43
28 26 21 23 24 28 24 23 23 22 23 20 17 16 22 25 25 27 27 30 28 32 30 31 33 33 34 33 34 34 35 35 37 37 38 39 39 39 40 41 41 41 42 42
34 28 23 19 22 25 23 24 24 22 21 19 19 16 21 23 26 29 29 29 30 31 33 34 35 36 36 36 36 36 36 37 37 36 37 37 38 38 39 40 40 40 40 40
33 27 29 31 33 32 31 29 31 22 21 20 20 18 19 24 30 29 29 30 34 35 35 35 35 36 36 35 36 35 36 36 35 34 35 35 36 36 36 36 36 36 35 37
36 31 32 30 33 33 30 33 33 32 31 32 31 31 32 32 30 30 31 34 34 34 34 34 34 35 35 35 35 34 34 34 33 32 32 32 32 32 32 33 33 33 34 34
36 34 30 28 32 33 30 31 32 32 34 33 30 29 30 29 31 34 34 31 31 32 33 33 33 34 34 34 34 33 33 32 31 30 31 31 31 31 32 32 32 33 33 33
35 33 32 26 30 22 25 27 32 30 31 33 32 32 32 32 33 32 31 30 30 31 32 33 34 34 34 34 34 33 31 31 31 30 29 28 29 29 30 30 30 31 31 30
37 34 28 25 25 23 22 24 30 30 28 33 32 26 29 30 30 32 32 33 33 33 34 34 34 34 34 34 34 31 31 30 30 30 30 29 29 28 29 28 28 28 26 25
35 35 30 22 22 14 19 22 22 20 19 26 25 29 28 28 24 26 34 29 30 31 33 33 33 33 33 33 32 30 30 28 29 29 28 28 27 28 30 29 27 24 21 25
30 31 28 18 18 19 22 22 18 11 13 26 30 29 28 26 27 26 28 28 29 30 31 31 31 32 32 32 30 29 28 28 28 26 26 24 24 24 24 24 21 19 19 22
26 25 24 24 20 17 23 22 17 20 28 28 27 27 27 28 28 27 27 28 28 29 30 29 29 30 30 29 26 26 26 27 24 23 23 22 25 22 24 15 16 13 15 18
16 20 18 22 22 23 26 26 28 29 28 28 27 27 27 26 24 23 26 27 28 29 29 29 27 27 27 24 23 24 26 23 24 22 22 25 27 21 18 14 15 14 13 15
19 19 16 16 16 24 26 31 31 29 28 26 25 25 26 24 23 24 26 26 28 27 26 24 23 24 24 24 22 22 22 22 19 19 21 26 26 20 15 18 18 22 21 25
16 20 13 14 18 21 22 25 24 22 20 21 24 24 23 23 22 24 25 26 27 27 24 22 22 23 23 23 23 20 20 26 25 21 20 22 21 18 18 21 21 21 22 26
20 17 15 13 20 20 22 23 22 21 24 24 24 23 23 24 25 26 26 26 25 24 22 22 21 19 21 19 19 19 13 18 24 24 25 25 25 20 21 26 26 31 31 31

GFSCGP_sfc_dewp_072.txt.gz
Dewpoint
25 15 17 17 10 2 11 9 15 24 23 21 20 20 21 21 21 21 20 20 21 21 22 23 24 36 50 53 56 58 59 60 61 62 62 62 62 62 61 62 62 63 61 60
20 14 15 19 17 17 15 13 16 18 23 25 21 19 20 20 20 19 18 18 18 18 19 21 24 24 37 47 54 56 58 59 61 62 62 61 61 61 61 61 61 63 63 62
15 16 20 18 17 15 16 13 14 11 18 18 13 6 6 9 16 17 17 18 17 16 16 19 21 23 25 33 47 53 56 58 60 61 58 55 56 55 57 57 59 61 63 63
14 21 18 20 16 13 12 17 16 19 14 9 19 -0 9 12 14 13 12 18 24 27 28 30 28 27 23 26 32 48 53 55 58 59 59 59 60 59 59 59 57 57 59 62
16 22 21 20 18 17 16 22 20 19 20 21 17 9 8 9 7 10 22 24 26 26 27 29 30 34 36 36 31 39 48 53 56 59 59 58 57 57 54 53 54 54 54 58
25 31 23 21 27 23 27 20 20 23 17 9 14 9 3 2 4 10 14 18 25 30 31 32 33 33 36 38 42 44 48 51 54 56 56 56 56 55 51 50 51 51 51 52
24 25 31 28 25 25 17 11 9 8 13 7 17 14 9 10 13 13 18 23 30 31 32 33 34 34 35 38 39 44 48 49 51 53 53 53 54 53 52 51 51 49 49 49
21 19 26 27 23 24 16 12 11 3 7 6 20 14 10 17 19 20 28 32 30 32 34 35 35 35 35 36 38 39 41 43 46 49 50 50 51 51 51 51 50 49 49 49
18 15 27 27 26 24 21 13 15 17 11 14 11 12 9 19 27 28 28 29 30 31 33 33 34 34 35 36 37 37 38 38 39 41 42 43 45 46 48 48 47 48 47 47
21 16 27 27 26 26 23 22 17 17 4 4 4 9 4 19 26 26 27 28 29 30 31 31 32 32 33 34 35 36 37 37 38 38 39 40 41 42 43 44 44 45 45 45
20 23 25 26 24 22 22 20 20 18 16 10 6 5 12 25 25 25 26 29 29 30 31 32 32 33 33 34 34 34 35 36 37 37 38 38 39 40 41 41 42 42 43 43
24 25 24 24 26 27 26 21 19 15 14 17 16 10 23 25 26 27 26 27 29 30 30 32 34 35 35 35 36 36 37 37 37 37 37 38 38 39 39 40 40 41 41 42
26 24 19 22 25 26 24 24 21 21 23 19 15 14 24 26 27 27 27 28 28 31 33 35 35 36 36 36 36 36 36 36 36 35 36 36 36 36 37 38 39 39 40 39
31 25 20 13 18 25 23 23 23 19 20 17 18 18 22 24 27 30 29 29 30 34 35 35 35 35 35 36 36 35 35 35 35 34 34 34 34 35 35 35 35 36 36 37
30 25 28 31 29 25 25 24 24 21 18 17 17 18 23 24 24 29 30 32 34 34 33 34 34 34 34 34 35 35 35 35 33 32 33 33 33 33 33 33 33 33 33 35
35 30 30 29 32 31 30 30 27 27 30 28 29 26 29 30 31 30 33 34 33 32 32 32 32 33 33 33 34 34 33 33 32 31 31 31 31 30 31 31 31 31 32 32
35 32 27 23 31 30 25 30 31 31 32 29 26 26 32 29 30 32 33 30 31 31 32 32 32 33 33 34 34 33 33 32 30 30 29 29 29 29 29 30 30 30 30 31
36 33 33 26 31 25 27 26 32 32 33 34 32 31 31 32 32 33 30 29 29 30 32 33 33 33 33 33 33 33 31 31 30 30 29 28 28 28 27 28 28 29 29 30
37 35 29 26 26 25 25 24 30 30 27 33 33 31 30 30 31 30 30 30 30 31 32 33 33 33 33 32 32 30 30 30 29 29 29 28 27 27 26 26 27 26 26 26
36 34 29 24 23 17 22 23 30 23 19 28 33 29 28 28 25 28 33 29 28 29 32 32 31 31 31 32 30 29 29 28 28 29 28 27 26 25 25 26 26 24 22 26
31 31 27 26 22 20 24 20 18 15 19 26 29 29 28 26 26 27 27 28 28 29 29 29 29 30 30 30 28 28 27 27 27 26 25 24 24 23 23 23 22 22 22 22
30 28 28 25 22 20 24 22 16 19 28 28 28 27 27 28 27 24 26 26 26 27 28 28 28 28 29 28 25 25 25 26 23 23 22 22 21 25 25 18 19 17 15 17
22 25 22 25 25 24 23 25 27 29 27 27 27 26 25 24 22 22 23 26 26 27 28 28 26 26 27 23 21 23 24 22 21 20 21 21 21 26 20 15 18 17 11 15
20 20 19 20 17 24 27 30 29 28 28 25 23 22 24 22 23 23 22 23 25 25 24 23 22 23 23 23 21 21 22 21 21 26 25 23 24 26 23 19 19 18 18 18
19 21 14 13 17 22 23 26 27 22 21 22 23 23 23 22 21 21 23 25 25 25 23 21 21 22 22 21 21 20 19 16 17 20 25 26 26 25 23 22 22 22 21 22
19 18 17 16 21 25 26 27 20 18 21 22 23 22 22 23 25 25 24 24 24 22 20 18 16 16 16 15 18 18 11 10 11 19 23 25 26 26 26 23 23 27 30 30

GFSCGP_sfc_dewp_075.txt.gz
Dewpoint
25 19 17 16 8 5 10 4 7 16 24 23 21 20 20 21 22 21 21 21 21 22 23 24 26 33 50 55 57 58 60 61 62 62 61 61 61 62 62 62 62 61 60 58
19 15 17 18 16 13 12 13 15 22 24 22 21 19 20 20 21 21 20 19 20 20 20 20 22 27 35 48 55 57 59 60 61 62 61 62 61 62 62 62 62 62 62 60
15 16 20 18 17 15 16 12 15 13 19 18 13 5 5 11 16 16 16 18 20 19 20 28 28 27 30 34 47 54 57 59 61 62 61 58 59 58 60 60 61 61 63 62
14 21 17 17 15 15 14 16 17 18 14 5 15 -3 9 12 11 18 25 26 27 28 29 30 33 35 36 33 32 47 54 57 60 61 61 60 60 59 60 60 60 61 61 63
16 19 20 17 13 13 14 20 20 19 20 17 16 8 7 8 7 18 19 23 27 30 31 33 33 36 38 41 39 36 47 54 57 60 61 60 60 60 58 58 58 58 58 60
25 28 22 20 25 22 26 19 18 22 16 9 15 8 3 2 7 13 16 24 31 32 33 34 35 37 39 41 45 48 48 52 55 58 58 59 59 57 56 55 56 55 55 56
24 25 28 27 24 25 18 12 10 11 13 7 16 14 8 10 13 16 18 29 31 34 35 35 35 36 37 39 41 45 49 51 54 56 56 56 57 56 56 55 55 54 54 53
20 18 26 27 24 23 16 11 12 4 8 7 20 13 10 17 22 22 29 30 33 33 34 35 35 36 37 38 39 39 40 41 45 49 51 52 53 54 54 54 53 53 52 52
17 14 27 27 26 24 19 12 15 17 11 13 12 13 10 26 27 28 29 31 31 31 32 32 33 34 35 36 37 38 38 38 39 40 41 41 43 44 46 47 48 49 49 49
20 17 27 27 26 25 19 20 15 16 5 4 2 8 6 23 26 27 28 29 30 31 32 33 34 34 35 35 36 37 37 37 38 39 39 39 40 41 42 42 43 44 45 45
19 23 25 26 24 22 20 18 18 16 15 10 6 4 12 21 26 27 28 29 30 31 32 34 35 36 36 37 37 37 37 36 36 37 38 39 39 39 40 40 41 41 42 42
23 26 25 24 26 27 23 19 17 14 13 15 14 7 21 26 26 27 27 29 30 31 34 35 36 36 36 36 36 36 36 36 36 36 36 37 36 37 37 37 38 40 40 41
25 25 23 23 24 26 23 22 18 19 22 19 14 11 26 27 27 27 28 29 30 34 35 35 35 35 35 35 36 35 35 35 35 34 35 35 35 34 34 35 36 36 37 37
30 24 20 12 16 24 23 23 21 17 18 17 16 20 24 26 28 29 29 30 34 35 35 34 34 34 34 34 34 34 34 34 34 33 33 34 34 33 32 33 33 34 34 35
26 23 22 28 24 24 23 23 22 18 14 14 14 20 23 26 27 30 30 32 34 33 32 32 32 33 33 33 34 34 33 34 33 32 32 32 33 32 31 32 32 32 33 33
34 26 29 28 31 30 25 24 23 21 20 23 19 17 24 26 27 29 31 34 33 32 31 31 32 32 33 33 33 33 33 33 32 31 31 31 31 31 31 31 31 31 31 32
32 30 23 19 30 28 22 27 24 24 28 22 23 22 31 30 27 31 33 34 32 31 31 31 31 32 33 33 33 32 32 32 31 31 30 30 30 29 29 29 29 30 30 30
33 31 29 27 28 21 24 28 28 26 29 30 30 29 31 30 32 34 33 31 30 31 32 32 32 32 32 33 32 32 31 30 30 30 29 29 28 28 27 27 27 28 28 29
37 35 29 28 28 26 26 26 31 29 28 33 31 31 32 31 29 29 29 29 30 31 33 33 32 32 31 31 31 30 29 29 28 29 29 28 27 26 26 25 26 26 27 27
37 36 31 27 25 23 25 24 32 26 22 28 34 31 30 29 28 27 29 28 28 29 32 32 31 30 29 30 29 28 27 27 27 28 27 27 26 24 24 25 25 25 24 26
31 31 30 28 24 22 25 23 26 21 22 26 32 30 29 26 27 29 28 27 28 28 30 31 30 28 28 29 28 27 26 25 27 25 25 24 24 23 23 24 23 23 23 23
30 29 26 27 24 24 22 20 22 23 28 28 28 28 28 27 25 24 24 25 25 26 27 29 29 28 28 27 25 24 24 25 23 22 22 22 20 21 24 25 22 20 19 20
25 29 28 29 29 25 23 23 24 29 28 27 27 27 28 25 21 21 22 23 24 25 26 27 26 25 26 21 22 22 23 22 22 19 22 25 25 21 26 26 23 22 19 20
21 21 25 27 24 24 28 29 29 28 28 27 25 24 23 21 22 22 22 21 23 24 24 22 21 20 20 20 20 18 20 21 17 17 19 22 24 26 27 27 24 22 23 22
21 21 15 16 20 22 25 26 27 26 24 22 22 22 22 22 21 19 22 24 25 24 22 20 18 17 17 17 16 15 18 17 16 16 18 20 23 24 25 26 26 25 24 24
20 19 19 20 22 26 27 29 23 22 22 23 23 23 22 21 22 24 24 24 22 18 17 15 12 11 11 12 12 11 9 11 11 14 16 18 19 21 22 23 24 27 27 29

GFSCGP_sfc_dewp_078.txt.gz
Dewpoint
25 19 17 16 15 11 12 8 7 12 23 22 19 19 17 18 21 20 20 20 21 22 22 23 26 29 45 55 58 59 60 62 63 62 62 62 61 62 63 63 63 62 61 62
20 16 20 15 14 12 10 8 13 23 23 22 21 19 20 20 20 21 20 19 20 20 19 22 26 25 29 41 53 57 59 60 62 62 62 62 61 62 62 63 63 63 62 62
15 17 19 16 15 11 14 9 16 13 20 18 15 8 9 11 15 15 22 22 22 26 29 30 30 29 30 32 43 51 56 58 60 61 61 61 61 61 62 62 62 62 62 62
16 20 18 18 14 12 12 16 19 20 15 6 17 -4 10 11 12 24 26 27 28 29 31 32 35 37 39 39 34 43 51 56 58 60 60 60 59 59 60 60 62 62 62 62
16 18 18 17 15 16 14 21 20 20 21 17 15 6 4 8 13 20 20 27 31 33 34 34 37 40 42 46 41 36 46 52 56 58 60 60 59 59 60 61 61 61 62 62
25 25 20 18 24 22 24 22 20 22 20 11 15 11 1 2 7 16 20 30 32 34 35 35 38 40 43 49 51 47 46 51 55 57 58 59 58 59 59 60 60 60 60 60
24 23 28 27 23 24 20 14 14 12 15 9 16 15 5 7 10 15 20 31 34 35 35 36 37 38 40 42 47 52 54 53 55 56 57 58 58 58 58 58 57 58 58 58
18 18 25 27 23 21 20 12 15 13 11 9 20 14 10 17 21 21 30 33 34 34 35 35 36 37 38 40 40 40 41 42 46 51 52 54 54 55 55 55 55 55 55 54
14 16 27 27 26 22 18 13 18 18 19 19 11 14 15 26 27 29 31 32 32 33 34 34 35 35 37 38 39 40 39 39 40 40 41 41 42 43 43 44 46 46 47 46
19 17 27 27 26 25 19 19 16 15 22 16 3 8 8 25 27 29 30 31 31 33 34 35 36 37 38 38 38 38 38 38 38 39 39 39 40 40 41 41 41 42 42 43
19 26 25 27 24 20 17 14 16 14 15 19 11 2 11 21 27 28 29 31 32 34 36 36 36 37 38 38 38 37 37 37 38 38 38 39 38 37 38 38 38 39 40 40
24 27 25 22 26 27 23 17 14 12 16 13 15 8 19 22 28 30 30 31 33 36 36 36 36 37 37 36 35 35 34 35 35 35 35 36 35 35 34 35 35 37 37 38
28 28 27 23 24 26 23 21 16 18 23 22 24 9 24 27 28 29 30 31 34 36 36 36 35 34 33 32 33 32 33 33 34 34 34 34 34 33 33 33 33 34 34 35
30 27 24 15 14 23 23 23 20 15 20 17 15 14 22 26 27 28 30 31 34 36 35 34 33 32 32 32 31 31 32 32 33 32 33 34 34 32 32 32 33 33 33 33
26 29 23 22 22 25 22 23 21 17 13 14 10 11 22 26 27 28 30 32 35 34 33 32 32 32 31 32 32 31 31 32 32 32 32 32 33 32 32 33 34 34 35 33
31 31 27 31 29 26 23 24 23 20 18 15 16 14 20 26 28 29 30 34 34 33 31 31 31 32 31 31 32 32 31 32 32 32 33 31 33 32 33 33 32 32 32 32
31 33 32 26 31 30 28 27 24 22 20 18 16 17 26 27 28 30 31 34 34 32 30 30 31 32 32 32 32 31 31 32 33 34 33 32 31 31 31 30 29 30 30 30
31 33 34 30 31 22 26 27 25 22 22 24 23 28 28 28 29 33 34 35 33 31 30 31 32 31 31 33 31 30 31 31 32 32 33 31 30 30 29 28 28 29 29 29
34 29 31 30 28 28 28 27 27 25 22 28 24 29 29 32 31 30 33 34 33 31 32 33 32 31 30 30 29 29 30 29 29 29 29 29 29 29 28 28 28 28 29 29
37 32 31 32 29 25 25 28 34 30 24 33 29 32 31 30 27 29 30 32 32 33 34 33 33 30 29 29 28 29 28 28 27 28 27 27 28 28 28 28 28 30 29 29
33 34 31 32 31 33 31 28 31 29 31 36 33 32 31 30 30 31 30 28 31 33 33 32 30 28 28 28 29 28 27 26 26 26 26 26 26 27 27 28 29 29 28 28
32 32 32 32 31 28 26 27 28 30 29 33 33 32 31 30 31 29 27 28 28 29 32 31 30 29 28 27 27 25 24 24 25 24 24 25 26 27 28 27 29 29 28 27
31 33 31 32 33 27 26 26 26 31 33 31 32 31 30 27 25 26 25 26 26 27 27 30 31 28 25 24 24 22 22 23 22 21 20 22 24 26 28 29 29 27 27 26
26 26 33 33 32 28 27 29 29 30 30 30 31 30 27 23 22 22 23 23 24 29 29 27 26 23 21 21 20 20 19 21 19 18 20 22 23 24 26 28 28 29 28 26
26 25 26 26 22 27 30 29 30 29 28 27 28 26 24 23 22 21 24 27 28 27 23 21 19 18 16 15 15 17 16 17 16 18 19 20 21 23 24 24 25 25 27 26
21 22 23 28 25 28 26 30 30 28 26 26 24 24 24 24 23 25 27 28 25 20 18 16 12 10 11 11 12 13 13 13 13 14 15 16 16 17 18 19 20 22 24 25

GFSCGP_sfc_dewp_081.txt.gz
Dewpoint
25 21 18 15 16 13 14 12 10 9 21 20 17 16 12 13 19 19 19 18 19 21 22 24 26 32 49 55 56 57 58 60 63 63 63 63 62 63 63 63 63 62 62 61
22 19 17 17 14 12 13 10 9 20 22 21 18 17 14 16 18 18 17 17 19 20 21 21 24 27 30 43 53 56 57 59 61 63 62 62 62 62 62 63 63 63 63 62
16 17 18 16 13 11 12 9 12 9 22 20 17 8 10 14 15 16 17 20 18 22 24 29 30 28 31 32 41 51 55 57 59 61 62 62 62 62 62 62 62 63 63 62
15 20 18 17 12 10 10 14 15 21 14 4 17 -6 9 10 11 18 24 25 25 29 31 32 35 37 39 38 36 41 50 55 57 59 60 61 60 59 60 61 62 62 63 62
17 18 18 17 13 14 14 19 19 20 18 14 14 2 4 10 8 18 23 28 31 33 33 35 39 41 45 46 39 38 45 51 55 58 59 60 59 59 59 60 61 62 62 62
22 23 19 17 20 18 22 21 20 21 19 9 13 5 -2 3 5 18 23 29 32 33 35 37 40 43 48 50 44 42 45 49 53 56 57 57 59 59 60 59 59 59 60 61
22 18 25 23 21 23 18 13 12 9 15 9 16 15 2 9 14 17 24 30 34 34 35 37 39 41 45 50 52 52 53 53 55 55 56 58 58 58 58 57 57 57 57 57
14 14 22 23 16 17 18 9 13 12 13 8 20 13 10 16 20 20 26 33 34 35 36 37 37 39 40 42 43 45 48 53 54 54 55 55 56 56 55 54 54 53 52 51
10 18 26 25 25 19 16 13 17 18 23 20 10 11 15 22 22 25 31 33 33 34 35 35 37 38 39 40 40 40 40 40 41 41 42 42 43 43 43 44 44 44 45 43
13 19 25 26 26 24 18 15 11 16 23 20 6 7 4 23 22 26 31 32 32 33 34 35 37 38 38 39 39 39 39 39 40 40 40 40 40 40 41 41 41 41 41 41
17 23 25 26 22 17 17 13 14 10 17 23 13 1 9 17 23 27 30 32 32 34 35 36 37 38 39 39 39 38 38 38 38 38 38 39 37 36 36 37 37 38 39 38
25 25 23 20 27 27 20 14 12 12 17 13 22 12 17 15 24 29 31 32 33 35 36 36 37 38 37 36 35 35 35 35 35 34 34 35 33 34 34 33 34 36 35 37
29 30 28 22 25 26 21 18 15 11 27 23 23 7 24 24 27 30 31 33 35 36 36 36 36 34 33 31 31 31 31 33 34 33 33 33 33 32 33 33 33 34 34 35
30 29 26 16 15 19 21 20 20 15 20 17 15 10 21 26 28 30 31 33 35 36 36 35 34 32 31 30 29 30 31 32 33 33 34 35 34 33 33 33 34 34 34 34
26 30 20 18 19 21 22 22 22 18 13 12 11 10 12 23 28 30 31 33 35 35 35 34 34 32 30 30 30 30 31 32 32 32 32 31 34 32 33 34 35 35 35 33
29 33 27 30 25 24 25 23 23 21 17 13 11 11 14 23 28 29 31 32 34 35 34 33 32 31 29 30 30 30 31 33 32 31 32 31 33 34 34 34 33 32 33 32
28 33 34 26 30 29 29 27 24 23 20 17 13 14 22 24 27 29 30 32 34 35 33 32 31 30 30 30 30 29 29 31 33 35 34 33 33 32 32 31 30 30 30 31
28 34 34 32 32 21 25 20 23 23 21 21 19 20 24 25 28 31 32 34 34 34 32 31 31 30 31 31 28 29 32 33 34 33 34 32 31 30 30 29 29 29 29 29
29 29 33 30 28 25 23 27 25 25 19 20 21 20 26 27 31 30 32 34 35 33 32 32 31 29 29 28 29 32 32 32 31 30 29 29 30 29 28 28 28 28 29 29
35 32 29 31 26 22 18 29 29 26 22 23 24 24 28 30 26 27 35 37 34 32 33 33 32 30 29 28 28 30 29 29 27 26 26 27 28 28 28 28 28 29 30 29
34 34 29 29 31 34 32 33 30 25 27 35 28 26 32 27 27 33 35 33 34 35 34 31 29 28 28 28 29 28 27 26 25 26 25 25 26 26 27 28 28 28 29 28
31 30 31 32 30 26 30 32 27 30 32 35 35 32 32 32 32 32 32 33 33 32 32 31 29 28 27 27 27 26 24 24 25 24 22 22 23 25 26 26 27 28 29 28
32 33 34 34 33 30 31 30 32 33 34 35 35 34 32 31 29 28 29 30 30 31 31 32 30 27 23 25 24 23 22 22 21 19 18 20 22 23 25 26 26 27 28 28
32 30 35 36 34 30 30 30 29 31 33 34 34 32 31 28 27 26 26 27 28 30 30 29 28 26 24 22 21 20 19 19 15 16 18 20 22 23 24 26 25 25 26 26
29 30 33 33 26 29 30 31 31 31 32 32 31 29 28 27 25 25 26 28 29 28 26 25 24 22 19 17 17 17 16 15 15 16 17 19 20 21 20 20 21 21 23 24
26 30 31 33 29 30 29 30 32 31 31 30 27 26 27 26 24 25 27 29 27 24 22 20 17 15 14 14 14 13 11 12 10 12 14 15 15 16 16 16 16 19 20 21

GFSCGP_sfc_dewp_084.txt.gz
Dewpoint
27 23 22 20 19 19 17 15 14 18 22 20 20 18 16 20 19 19 18 15 19 20 22 26 34 48 52 55 56 58 60 62 63 63 63 62 62 63 63 63 63 62 62 61
24 22 22 22 19 19 15 15 15 22 22 22 18 18 18 17 18 19 20 20 20 23 22 23 25 37 33 50 55 57 58 60 63 62 62 62 62 63 63 63 63 63 63 62
20 22 22 20 16 15 15 15 17 18 23 22 17 12 17 17 19 17 18 20 19 21 21 28 30 32 30 31 40 55 56 58 61 63 62 62 62 62 61 61 62 63 63 63
21 22 20 18 15 14 13 16 21 23 16 10 14 -1 13 14 14 16 19 24 23 30 30 33 34 37 41 40 38 37 52 56 59 61 61 61 60 60 61 61 62 62 62 62
22 21 22 20 16 15 19 23 23 24 20 21 16 7 9 12 11 17 25 27 31 32 34 37 40 43 46 45 40 37 44 52 56 59 61 60 59 59 59 60 61 61 61 62
24 24 23 22 23 20 24 23 22 22 22 11 16 7 7 8 9 20 27 30 32 34 37 39 43 47 49 45 40 41 46 50 55 56 58 59 59 59 59 58 58 59 59 60
22 22 26 25 22 24 21 15 16 12 15 15 17 14 8 10 17 20 27 31 34 35 37 39 41 44 48 50 51 52 53 53 54 55 55 57 58 58 57 56 56 55 55 56
19 17 22 24 22 22 20 12 18 10 16 13 18 11 11 19 21 23 31 34 35 36 37 38 40 41 41 43 49 52 52 53 54 54 54 54 55 55 54 52 52 49 47 46
13 22 27 26 26 21 19 15 22 17 18 20 14 13 18 21 21 27 33 34 34 36 36 37 39 40 40 41 41 41 41 42 42 42 43 43 43 43 43 43 43 43 43 41
14 22 27 27 27 24 20 17 13 17 9 13 11 14 8 21 21 27 32 33 34 35 35 37 38 38 39 39 39 39 40 40 40 40 40 40 40 40 40 40 39 39 39 39
18 27 26 26 24 20 17 14 14 16 22 20 14 8 10 21 22 26 32 33 33 34 36 37 38 39 39 39 39 38 38 38 38 37 37 36 36 36 36 36 36 37 37 37
29 27 24 22 28 27 23 15 14 16 15 15 23 16 22 19 23 29 31 33 34 35 37 37 38 38 37 36 36 35 35 35 35 35 35 34 34 34 34 34 34 35 35 36
28 28 24 22 24 26 22 20 17 18 24 18 15 12 23 24 26 30 32 32 34 36 36 37 37 35 33 32 32 32 33 34 35 35 34 33 33 33 33 34 34 34 34 34
32 29 25 18 18 22 21 20 19 15 21 19 19 15 21 26 28 31 32 34 36 36 36 36 34 32 30 30 30 31 32 34 34 34 35 34 33 33 33 34 33 33 34 33
25 24 23 20 21 21 20 21 20 18 12 12 9 11 19 25 28 30 32 34 35 36 36 35 33 31 29 30 31 32 32 33 33 32 31 32 32 33 32 32 31 31 31 31
27 25 21 25 25 25 23 23 21 18 16 14 13 11 13 23 29 30 32 34 35 35 35 34 33 31 30 30 31 31 32 33 32 31 31 31 30 29 29 29 29 29 29 29
27 29 25 18 27 24 20 25 22 21 19 17 13 13 19 23 28 30 31 33 35 35 34 34 32 30 30 30 31 30 31 32 31 29 29 29 29 27 28 28 27 27 27 28
30 31 32 25 25 16 21 21 24 23 21 20 19 20 22 26 28 31 32 33 35 35 34 33 31 30 32 30 30 31 32 30 29 29 29 28 27 26 26 26 26 27 27 27
31 30 30 25 25 23 20 23 22 23 20 22 21 20 21 23 29 29 31 33 35 36 34 32 31 31 29 28 30 30 29 29 27 26 25 26 27 25 26 23 25 26 26 25
35 30 29 30 18 15 17 26 25 24 19 24 23 23 25 28 25 26 32 34 36 34 32 32 31 29 28 29 29 28 28 26 24 24 24 24 25 22 22 24 24 24 23 26
30 30 26 25 18 25 28 30 26 19 19 26 25 24 29 25 22 28 35 35 34 32 32 30 29 27 28 28 27 26 25 23 24 25 24 23 23 20 21 22 21 20 22 24
28 26 24 23 19 19 30 29 22 24 28 30 32 27 30 30 34 35 34 32 33 31 30 29 28 27 26 27 26 25 23 24 23 21 19 16 13 17 21 14 16 17 19 20
29 30 27 27 27 29 30 29 29 30 30 30 33 33 32 32 32 33 33 32 31 29 29 28 27 24 23 23 25 24 21 21 18 12 10 10 12 15 15 12 15 15 13 17
30 29 31 31 29 28 29 29 28 30 30 33 33 32 31 30 31 32 31 30 29 30 29 27 25 23 21 21 20 18 17 16 9 7 9 12 12 13 11 17 18 12 12 17
32 30 31 29 26 26 28 28 29 30 32 32 32 31 29 29 29 29 29 29 29 29 28 27 25 23 19 17 15 14 13 11 11 10 12 11 12 8 12 14 14 16 16 17
27 30 32 33 30 30 29 29 31 30 31 30 28 28 28 28 27 27 27 28 27 26 24 22 20 17 14 12 11 8 6 8 6 8 11 9 9 8 11 11 11 14 17 18

GFSCGP_sfc_dewp_087.txt.gz
Dewpoint
41 36 31 23 20 19 17 17 17 19 22 20 17 15 16 17 19 18 14 15 25 30 34 39 48 52 54 56 58 61 61 62 62 62 62 62 62 63 63 63 63 62 62 62
32 30 28 25 22 20 18 16 17 22 23 18 19 18 19 19 19 18 19 16 19 22 23 26 29 38 51 54 57 59 62 62 62 61 62 62 62 63 63 63 63 63 62 62
30 27 26 24 21 18 15 15 16 15 22 21 15 9 18 20 17 19 19 20 20 22 22 22 25 26 28 34 47 56 60 63 62 62 61 61 62 61 61 61 62 62 63 62
28 27 24 22 19 15 12 16 21 22 12 7 8 -0 7 16 16 18 18 19 21 28 30 31 30 36 37 38 39 36 52 60 63 62 61 61 60 59 60 61 61 62 62 62
26 23 23 20 17 15 15 24 22 21 19 14 14 1 2 14 14 15 17 23 27 29 35 38 41 43 45 45 40 36 42 54 60 62 61 61 60 58 59 60 61 61 61 61
21 24 23 21 22 17 22 23 21 23 19 10 13 2 1 9 10 15 23 29 33 36 39 41 45 48 47 43 38 37 48 53 57 61 61 60 59 59 59 58 58 58 59 59
20 24 25 24 21 23 21 12 14 11 14 9 17 9 4 10 11 18 27 31 33 36 38 41 45 47 48 48 49 50 52 52 54 55 58 58 58 58 57 56 56 55 54 49
18 17 22 23 21 20 18 13 14 8 15 10 14 12 11 18 22 28 31 33 35 37 39 40 41 42 45 49 49 50 51 51 52 53 52 55 55 53 49 49 46 45 43 43
16 19 27 27 26 21 19 15 18 16 14 16 10 10 15 21 25 31 33 34 35 37 38 39 39 40 40 41 43 45 45 44 43 43 43 43 43 42 41 42 42 41 40 40
17 20 27 26 26 22 18 17 13 15 9 9 9 8 6 18 19 31 33 33 35 36 37 38 38 38 39 39 40 40 40 40 40 40 40 39 39 38 38 37 37 37 37 37
23 25 26 25 22 18 15 12 13 18 17 13 10 8 12 16 19 28 32 34 35 35 37 38 38 38 39 39 39 39 38 38 37 36 36 35 35 35 35 35 35 35 36 35
28 27 25 22 26 26 21 14 13 13 11 17 17 7 21 19 20 26 32 33 34 35 37 38 38 38 37 36 35 35 35 35 35 34 34 34 33 34 33 33 34 34 34 34
29 27 23 22 22 25 21 19 14 20 20 16 15 9 21 23 24 29 32 33 34 36 37 37 37 35 34 34 34 34 34 34 34 33 33 33 33 32 32 32 32 33 32 32
33 28 23 17 14 21 21 19 18 15 17 15 15 5 17 24 27 31 33 33 35 36 37 37 35 33 32 31 32 33 33 34 34 33 32 32 32 31 31 31 30 31 31 30
24 24 24 20 21 20 20 20 19 14 10 8 8 9 14 25 27 31 32 34 35 36 36 36 34 32 30 30 32 32 33 33 31 30 30 31 31 30 29 28 28 28 28 28
26 24 21 24 25 23 20 22 20 18 16 13 12 12 13 21 30 31 33 34 35 35 36 35 32 30 29 30 31 32 32 31 29 29 29 29 28 27 27 27 26 26 26 26
26 26 23 19 25 21 21 23 21 18 18 15 13 13 18 23 29 31 33 34 35 35 36 34 31 29 30 31 31 31 30 30 28 28 28 27 26 26 26 25 24 25 25 26
29 28 28 22 23 14 20 24 22 19 19 19 18 18 20 23 28 32 33 34 35 36 36 34 31 30 31 31 31 31 30 28 28 28 28 26 24 24 24 24 23 24 24 25
30 29 28 23 19 22 22 22 24 23 20 23 20 19 20 25 28 30 32 34 35 36 36 35 32 31 30 30 30 29 28 28 27 26 25 24 25 24 24 21 23 24 24 24
33 29 27 26 26 21 20 24 25 23 20 24 24 23 22 27 23 23 31 34 35 37 36 33 32 30 29 29 28 27 26 25 24 23 23 23 25 21 20 23 21 23 22 24
29 28 26 24 21 22 26 23 25 19 20 25 25 25 26 24 21 22 32 33 36 36 33 32 30 29 29 28 27 26 24 23 23 23 22 22 22 19 21 20 20 18 16 19
28 26 27 25 20 19 28 25 21 22 28 30 30 26 27 28 32 31 33 35 34 32 32 31 29 27 27 27 26 24 23 23 22 19 18 16 16 19 20 11 13 10 9 10
25 27 26 26 24 28 29 27 28 30 29 29 31 32 31 32 32 32 32 32 32 31 30 29 27 26 26 25 25 23 22 21 17 17 16 17 14 15 13 8 9 12 8 8
28 27 29 28 26 27 28 29 28 30 30 31 32 32 32 31 32 32 32 30 29 28 27 26 25 24 22 22 22 21 20 18 17 16 16 16 14 11 8 13 15 8 6 8
31 29 29 28 27 26 27 27 29 29 31 31 31 31 31 32 32 31 30 29 28 27 26 25 23 22 19 18 17 17 16 16 15 14 15 13 12 9 10 12 10 14 14 12
30 32 33 29 30 30 31 28 30 28 29 30 29 28 29 30 31 30 29 29 28 26 26 24 22 19 17 15 12 11 12 13 12 12 11 9 9 7 9 7 7 10 13 15

GFSCGP_sfc_dewp_090.txt.gz
Dewpoint
45 40 36 36 34 20 20 18 17 18 21 18 17 16 16 18 17 14 15 19 24 33 41 44 50 51 54 57 60 61 61 61 62 61 62 62 62 63 63 63 63 62 62 62
41 38 37 35 31 28 19 18 18 22 23 18 18 15 16 16 19 18 16 14 20 30 28 37 46 52 53 55 59 61 61 61 61 61 61 62 62 63 63 63 63 63 62 62
37 37 37 33 33 30 20 17 17 17 21 19 17 14 16 19 19 18 19 17 17 26 26 28 34 44 48 54 57 60 61 61 62 61 60 62 62 61 61 61 62 62 63 62
36 36 36 33 32 31 20 18 19 21 13 12 11 9 5 17 18 17 18 19 19 22 23 25 27 28 29 34 37 50 60 61 62 61 60 59 59 59 60 61 62 62 62 62
35 33 36 34 31 30 21 23 22 21 15 14 13 2 2 15 15 17 18 19 23 26 28 30 33 38 43 43 39 36 51 61 61 61 61 60 60 58 60 60 60 60 61 61
33 36 33 35 32 27 22 22 20 23 18 8 12 4 1 10 13 14 18 21 24 30 37 39 44 46 45 42 39 36 45 57 61 61 61 61 60 58 59 59 58 59 57 54
33 30 28 27 25 23 22 16 14 14 14 10 17 6 4 7 12 15 17 22 32 37 39 43 46 46 45 44 44 42 51 53 59 60 61 60 59 59 58 57 56 55 49 47
29 23 23 24 27 24 19 13 16 9 12 9 15 12 10 16 24 24 21 30 34 37 40 44 46 46 46 47 48 49 50 51 53 55 57 57 56 55 53 50 47 44 44 43
20 20 26 25 25 22 19 12 16 17 15 15 11 10 12 20 27 30 32 33 34 37 40 41 42 44 46 47 47 48 48 46 46 47 48 46 45 44 43 41 41 40 39 38
18 20 27 25 26 22 19 18 15 16 13 9 7 7 6 16 21 30 32 33 35 37 39 39 40 40 41 42 42 42 42 42 41 41 42 41 40 39 38 37 36 36 36 36
22 24 28 26 23 19 15 14 14 17 18 13 10 9 12 14 17 28 31 34 36 37 38 38 38 39 39 39 40 39 39 38 38 38 37 36 36 35 35 35 35 35 34 34
28 28 26 23 24 27 21 14 14 14 12 15 16 5 13 13 17 29 33 34 35 37 38 38 38 38 38 38 37 37 36 35 35 34 34 33 33 33 33 33 33 33 32 32
29 27 24 22 22 25 21 18 14 18 20 17 14 9 20 23 22 26 32 34 35 37 37 37 37 36 36 35 35 34 34 33 33 33 32 32 32 31 30 31 31 31 30 29
31 28 22 17 17 21 20 19 17 14 15 14 15 5 15 22 23 29 32 34 35 37 37 37 36 35 34 34 33 33 33 33 32 32 31 30 29 29 29 29 29 29 28 27
27 26 25 19 18 17 20 17 18 14 10 8 7 5 4 17 24 29 33 34 35 36 37 37 35 34 32 32 33 32 33 32 31 29 29 29 29 28 28 27 27 27 26 26
25 24 22 24 24 20 19 20 20 16 14 12 11 11 12 18 29 31 32 34 34 35 36 37 35 33 32 32 32 32 31 30 29 28 28 28 27 26 26 26 25 25 24 24
25 27 24 20 26 23 23 22 19 18 18 13 10 10 16 21 27 30 32 34 34 35 36 36 35 32 31 31 32 31 30 29 28 28 27 27 26 25 25 24 23 22 23 23
27 27 27 23 24 15 22 23 21 18 16 18 17 17 19 20 26 30 33 34 34 35 36 36 34 32 31 31 32 31 29 27 27 27 26 25 24 24 23 21 21 22 23 23
30 30 27 23 18 21 21 23 22 21 18 21 18 17 18 23 27 28 33 34 35 35 36 37 35 31 31 31 31 29 27 27 26 26 25 24 23 23 22 22 23 23 24 23
33 29 29 23 18 16 17 23 26 23 19 24 23 22 21 25 19 17 31 34 35 36 37 37 34 31 31 31 29 27 26 25 24 24 24 24 23 21 21 23 22 23 22 24
30 32 30 27 22 24 27 25 24 19 17 26 26 25 25 23 20 21 28 33 35 37 38 36 32 31 30 30 27 25 25 24 24 23 22 22 21 21 21 21 21 18 16 18
27 28 28 26 24 23 26 24 22 23 28 27 26 27 27 27 27 29 28 31 35 35 34 32 31 30 29 29 26 25 24 24 22 20 19 18 17 22 19 17 16 13 9 8
26 28 27 27 26 27 29 27 28 30 27 30 31 32 27 27 29 30 31 33 33 33 33 32 31 29 28 27 26 24 23 20 18 17 15 15 17 18 18 15 16 13 7 8
29 28 29 27 24 27 29 29 27 29 29 31 32 32 32 31 31 31 31 31 31 31 31 30 28 27 26 25 25 24 20 17 16 15 16 17 16 15 14 16 16 11 8 10
30 29 28 27 26 27 27 27 29 29 30 31 31 31 31 31 31 31 30 29 29 28 26 28 28 26 23 21 20 19 17 17 16 17 18 16 15 15 13 13 13 14 13 12
31 31 30 27 29 31 32 29 29 28 28 30 30 29 29 30 31 30 28 28 27 25 25 24 24 21 19 17 16 15 17 18 17 17 15 14 13 11 10 8 8 11 13 15

GFSCGP_sfc_dewp_093.txt.gz
Dewpoint
45 41 38 39 38 30 25 20 18 19 22 18 19 18 16 20 22 30 33 36 43 48 52 53 53 54 56 58 60 61 61 61 61 60 61 62 62 62 63 63 62 61 61 61
42 39 40 39 36 32 33 25 18 21 23 19 18 18 16 17 18 20 26 25 31 35 37 44 48 51 53 56 60 61 61 61 61 61 60 61 62 62 63 63 63 63 62 62
38 40 40 38 34 34 34 27 21 19 21 19 17 15 16 17 18 18 18 18 18 24 32 34 42 49 52 55 58 60 61 61 61 61 60 60 61 61 61 61 61 62 62 62
39 40 37 37 36 34 32 31 23 21 19 19 15 13 12 16 17 18 17 19 17 17 28 30 36 44 50 53 56 60 61 61 61 61 60 58 58 59 60 61 61 62 62 62
37 39 37 36 36 35 34 25 26 26 19 14 13 7 10 13 15 17 18 18 20 18 23 26 30 35 35 40 44 54 59 60 61 61 61 59 58 59 60 60 60 60 60 61
36 40 38 37 37 34 27 31 27 26 21 13 16 11 10 8 12 15 18 18 19 23 24 28 34 40 43 42 39 37 53 60 61 61 60 60 59 58 58 59 59 58 54 51
36 37 37 37 35 36 32 32 25 24 21 14 15 8 13 5 12 13 15 18 20 28 33 37 43 45 44 42 40 38 41 55 61 61 60 61 60 58 58 58 57 53 49 47
30 28 36 34 36 34 33 31 22 17 16 14 15 10 11 13 12 20 20 18 26 33 37 40 44 45 45 44 43 41 45 50 59 61 61 59 59 58 56 55 52 47 44 43
28 26 34 31 33 33 31 29 27 17 16 15 12 13 11 16 19 27 26 28 28 32 38 42 45 45 45 46 46 46 48 51 57 59 58 54 53 51 47 44 43 41 40 38
23 21 28 25 30 31 28 28 18 18 15 6 4 7 11 12 15 24 29 29 31 36 39 41 43 44 45 45 45 45 46 49 49 49 49 48 45 43 41 40 38 37 36 35
23 24 27 26 24 31 29 23 19 17 19 13 9 8 11 9 12 18 26 30 32 36 39 40 40 41 43 42 42 42 42 42 42 43 40 40 39 37 36 36 35 34 34 33
27 26 25 25 26 26 25 23 20 18 13 14 17 10 11 11 13 22 28 33 36 37 38 39 39 39 40 40 40 40 38 38 38 38 37 36 35 34 33 33 32 32 31 31
28 26 23 26 26 27 25 21 15 17 21 16 14 10 15 20 20 22 31 33 35 37 38 38 38 38 38 38 37 36 36 35 35 35 34 33 32 31 31 31 30 30 29 28
32 27 24 23 24 26 22 21 17 14 15 14 15 8 4 14 20 22 31 33 35 37 37 37 37 36 37 36 35 34 33 33 33 32 31 30 30 29 29 29 29 28 27 26
25 24 25 24 22 24 22 20 18 15 12 11 11 7 5 5 15 23 31 34 35 36 37 37 36 36 35 34 33 33 32 32 31 30 29 28 29 28 28 28 27 27 26 24
26 24 26 23 25 21 23 21 20 18 15 13 10 11 10 18 27 29 32 34 34 35 36 37 36 36 34 34 33 32 31 31 29 28 28 27 27 27 27 26 26 25 24 23
23 25 23 20 26 24 24 21 21 20 20 17 11 12 14 17 24 26 31 33 33 34 36 37 36 35 34 34 33 32 31 30 28 28 28 27 26 25 26 25 23 23 22 21
27 27 27 24 26 20 25 23 21 20 19 20 16 16 17 16 21 28 32 33 33 34 36 37 36 35 34 33 33 32 30 29 28 27 27 26 25 25 23 22 21 22 21 21
30 28 27 24 22 23 20 22 21 20 18 19 19 18 17 22 24 22 32 34 33 35 36 37 38 36 33 33 32 31 29 28 27 26 25 25 24 23 22 22 21 22 22 23
33 31 27 24 23 18 17 21 25 22 18 22 20 20 20 22 16 14 29 34 34 35 36 37 38 35 33 32 31 29 28 26 25 25 24 24 23 22 21 22 22 23 22 23
29 32 29 26 18 24 27 26 25 18 17 24 24 22 24 20 18 20 23 31 34 36 37 38 36 33 32 32 31 29 27 25 25 25 23 22 21 21 21 21 21 19 18 18
29 30 28 27 16 20 28 25 21 23 28 28 25 26 26 26 25 27 25 31 34 36 37 37 35 32 31 31 30 28 26 25 24 23 21 19 20 22 20 18 16 16 16 16
27 29 28 29 26 28 28 28 28 29 28 31 31 32 28 26 29 31 29 32 32 34 35 34 33 31 30 30 30 27 25 23 21 20 18 17 19 19 17 16 16 16 16 18
28 29 30 27 24 27 29 29 27 29 29 31 32 31 31 31 31 30 30 31 31 29 30 29 29 29 29 29 29 28 24 22 20 17 17 18 16 15 18 19 18 17 16 16
28 29 25 25 25 28 29 28 29 29 29 31 31 30 30 31 31 31 31 29 29 27 26 28 29 28 27 25 25 23 21 20 18 17 17 17 17 17 16 16 17 17 17 18
31 29 28 25 29 29 31 30 28 28 28 30 30 29 29 30 31 30 28 28 27 25 24 25 24 24 21 21 20 20 20 19 17 16 16 16 15 15 14 14 12 16 17 16

GFSCGP_sfc_dewp_096.txt.gz
Dewpoint
45 42 40 41 43 39 38 38 35 21 22 20 20 20 21 20 30 44 48 50 51 52 54 55 55 57 58 60 60 60 60 60 60 59 60 61 61 62 62 62 61 61 60 60
42 40 42 41 41 35 34 33 33 22 22 20 19 19 21 19 21 34 42 45 48 48 48 51 53 54 56 58 60 60 60 61 61 60 60 61 62 62 62 63 62 62 62 62
39 40 41 40 38 35 35 33 32 23 22 20 17 17 18 17 18 19 21 34 39 45 45 45 48 52 54 56 58 60 61 61 61 61 60 60 61 61 61 61 62 62 62 62
40 41 39 39 38 36 34 34 31 26 23 26 17 16 19 18 17 17 18 19 22 23 29 38 41 46 51 53 56 59 60 61 61 61 61 60 60 59 59 61 62 62 62 62
38 40 39 37 36 36 35 31 30 31 26 22 24 13 17 13 16 17 18 18 19 19 19 25 33 41 47 52 55 58 60 61 61 61 61 60 58 57 59 60 60 60 60 60
37 39 39 39 38 36 35 35 35 35 33 27 28 18 19 15 13 16 17 18 18 19 20 21 28 35 39 44 48 54 58 59 60 60 61 60 59 58 58 58 59 57 54 52
36 38 37 39 36 37 36 35 28 27 26 24 21 16 21 15 14 15 16 17 19 19 21 23 31 37 40 41 41 43 54 59 60 60 60 60 59 59 58 58 58 54 50 48
32 30 35 37 37 36 36 34 27 22 22 21 14 13 18 15 12 13 14 16 18 21 26 28 31 38 42 41 41 39 39 53 59 60 60 60 60 59 58 58 56 53 49 45
30 29 37 35 36 37 34 33 26 19 19 19 15 15 15 15 15 19 21 23 20 23 28 31 39 43 43 43 43 41 40 45 55 59 60 60 59 57 54 51 49 46 43 40
29 24 34 32 35 35 36 34 30 25 16 12 10 10 17 13 11 14 21 25 24 25 32 38 41 43 44 44 44 45 44 46 50 56 58 56 54 50 48 47 43 41 38 36
27 26 27 30 35 35 34 33 31 28 20 15 10 8 12 12 13 10 13 21 25 29 34 39 41 43 43 43 44 44 45 48 49 50 49 48 46 45 43 41 38 36 35 33
31 27 24 25 26 30 34 32 31 27 20 15 18 13 10 11 11 13 17 26 31 34 38 39 40 40 41 42 42 44 43 46 45 44 44 43 41 40 37 35 34 33 31 30
30 26 24 26 28 28 31 28 32 28 22 19 17 15 9 17 18 19 21 30 34 36 38 38 38 38 39 40 40 41 40 39 39 40 39 38 37 37 34 32 31 30 29 28
32 27 25 21 23 26 24 30 24 28 24 22 18 14 13 13 13 17 21 31 34 36 37 37 37 38 38 38 38 38 37 37 37 38 37 36 34 33 31 29 28 27 27 25
28 24 24 25 25 27 25 26 27 22 25 19 22 16 11 11 10 12 20 32 34 36 37 37 37 36 36 37 36 35 35 35 35 35 35 33 31 30 29 28 27 26 25 23
26 23 25 24 23 23 25 23 26 23 19 19 18 13 12 11 22 25 28 33 33 34 36 37 37 37 37 37 36 34 33 33 33 32 31 29 29 28 27 27 26 25 25 24
26 25 25 19 24 24 24 25 23 22 22 21 19 18 15 12 15 17 20 32 32 33 35 37 37 37 37 36 35 33 32 31 29 30 29 28 27 26 26 25 24 23 22 22
25 25 23 22 27 22 26 24 25 24 25 25 22 19 19 17 16 22 27 30 31 33 35 37 37 37 37 36 34 33 31 30 29 28 27 26 26 25 24 22 22 21 21 21
26 27 24 25 19 22 23 22 21 21 20 22 21 21 21 19 20 18 27 31 30 33 35 36 38 37 36 34 33 32 30 29 28 27 26 25 25 24 22 22 21 21 22 23
31 27 27 26 14 15 20 23 24 21 19 23 23 22 21 20 17 17 19 32 33 34 35 37 38 37 35 34 33 31 30 28 27 26 25 25 25 25 23 22 23 23 23 23
25 26 25 26 17 20 25 26 24 16 18 25 24 23 23 20 19 22 22 29 33 35 36 38 38 36 35 34 32 31 30 28 28 26 25 24 23 23 23 23 22 22 21 19
27 26 25 20 14 20 27 25 20 22 27 28 24 25 26 26 27 27 27 27 33 34 36 37 37 36 34 33 32 31 30 29 26 25 24 23 22 22 22 21 19 19 18 17
25 27 26 28 26 28 27 27 28 29 28 30 31 31 29 26 26 27 29 30 31 32 34 35 35 32 32 32 33 32 30 26 25 24 23 21 21 21 20 18 17 17 18 18
26 26 26 27 26 27 28 29 28 29 28 29 31 31 31 30 30 30 31 31 31 30 29 27 29 29 28 30 31 31 26 26 25 23 20 20 19 17 18 19 18 18 18 18
27 28 24 23 26 27 28 28 29 28 29 29 31 30 30 30 30 31 31 30 29 27 26 26 27 27 25 26 25 25 25 25 24 21 19 19 18 17 18 18 19 18 19 20
29 27 27 25 28 29 30 28 28 29 28 30 30 29 29 30 30 30 29 27 27 26 25 25 24 24 22 23 23 23 24 24 21 19 18 17 16 16 16 16 16 20 20 22

GFSCGP_sfc_dewp_102.txt.gz
Dewpoint
46 42 39 39 40 38 37 36 34 37 33 36 37 37 34 33 28 29 36 41 48 51 53 56 59 59 60 60 58 57 56 57 57 58 58 59 59 60 61 62 62 61 60 59
43 41 41 40 39 39 38 37 36 35 32 36 38 38 39 40 38 31 28 32 42 48 52 55 57 59 60 60 60 60 58 56 57 58 59 60 60 60 61 63 62 62 61 60
37 37 43 42 42 40 40 38 38 37 35 33 26 33 37 37 39 39 28 28 35 45 48 52 55 57 59 60 61 61 60 59 58 58 60 61 61 62 62 62 62 62 62 61
39 40 41 41 42 41 38 39 38 33 35 35 32 32 35 34 35 36 28 25 31 41 46 48 52 55 57 59 61 61 61 61 60 60 60 60 60 60 61 60 62 63 62 62
38 40 40 39 39 43 37 37 36 35 35 34 32 31 35 34 30 32 34 29 27 31 41 47 50 53 55 58 60 61 61 61 61 61 60 60 60 61 60 61 61 62 63 63
39 40 42 40 41 42 38 37 37 37 36 31 36 32 33 33 32 32 31 26 26 25 30 40 48 52 53 57 58 60 60 61 61 61 61 61 60 61 61 61 60 61 61 61
39 39 38 40 37 38 38 37 31 29 30 30 25 32 33 34 34 31 30 29 26 26 27 29 37 46 49 53 56 57 58 59 60 61 61 61 61 61 61 61 60 59 58 57
33 33 37 38 38 36 37 37 30 25 25 25 27 28 29 32 34 34 25 23 25 26 27 28 30 36 42 48 51 54 56 57 59 60 61 62 62 61 61 61 61 59 58 57
32 33 38 38 38 38 36 36 33 27 22 23 24 25 24 28 25 19 28 32 27 23 25 27 28 28 31 36 44 51 53 55 57 59 60 61 61 61 61 61 61 59 58 52
33 32 36 39 38 37 37 35 31 35 29 25 23 21 23 27 26 25 20 21 26 27 23 24 25 28 28 31 35 42 49 53 56 58 59 60 60 60 61 61 59 57 53 49
32 33 33 37 37 35 35 34 35 31 32 26 23 22 22 20 20 21 19 19 20 22 24 25 25 29 33 37 39 39 42 48 54 57 58 59 60 60 60 59 57 54 48 46
29 31 31 31 33 38 37 36 34 29 28 26 24 24 19 13 14 17 17 18 19 22 28 28 29 34 38 40 41 41 42 44 48 55 57 58 58 57 56 54 52 48 46 42
30 30 27 28 30 33 35 36 34 31 29 27 28 25 12 16 17 17 19 19 21 26 31 34 35 36 38 39 42 42 44 44 45 46 54 54 53 53 53 50 47 45 41 39
33 28 28 25 26 30 32 35 36 33 30 29 28 26 26 26 23 19 16 22 22 28 32 33 36 37 39 42 43 44 45 46 47 47 48 50 51 51 49 47 44 41 38 35
29 29 25 25 28 29 31 33 34 33 33 29 28 28 29 29 29 30 26 23 22 25 29 33 36 38 39 42 44 45 45 46 46 46 47 48 47 46 44 41 40 37 34 33
28 29 26 27 28 27 27 29 34 34 33 32 30 29 31 29 26 23 22 20 20 22 24 31 35 37 39 40 43 44 44 44 45 46 46 45 41 38 38 36 34 32 31 28
28 30 31 28 26 28 28 29 31 32 33 33 31 31 31 29 28 30 29 26 21 24 24 26 31 36 38 39 41 42 43 42 43 44 40 37 37 36 35 32 30 30 28 25
29 31 33 27 28 23 29 26 28 30 30 32 31 32 32 32 30 32 31 30 28 25 25 26 29 34 37 39 41 42 41 40 41 41 38 36 35 33 31 29 29 26 24 23
30 28 28 27 28 26 24 25 26 28 26 30 30 30 30 31 32 29 28 26 27 28 29 30 31 36 37 39 40 40 39 38 38 37 37 35 34 32 29 28 26 24 24 24
30 29 30 27 26 23 21 25 27 28 24 28 29 29 29 28 24 25 28 26 28 31 33 33 38 38 38 38 39 38 38 37 37 36 35 34 33 33 30 28 26 25 26 26
30 32 29 29 30 29 30 26 26 28 27 33 26 28 29 27 27 27 29 29 32 35 37 36 38 37 37 38 38 37 37 37 37 34 32 32 32 32 30 27 25 26 26 26
26 29 29 30 28 24 30 25 24 27 29 31 28 28 26 28 28 29 30 32 32 33 35 38 38 37 37 37 36 36 35 35 33 32 31 31 32 30 28 27 27 26 26 25
28 30 32 31 32 33 29 31 30 30 31 31 31 32 31 29 30 31 31 32 32 32 33 34 35 36 35 36 37 36 35 33 32 31 31 31 30 30 29 27 26 25 25 23
31 32 35 35 35 32 31 29 29 29 30 31 31 31 31 30 31 31 32 31 31 32 31 32 34 35 34 34 34 36 33 32 32 32 30 29 28 28 27 26 25 25 24 23
31 31 31 33 32 31 32 30 31 31 32 31 30 30 31 32 31 31 31 31 30 30 30 31 31 31 31 31 33 33 32 32 32 31 28 28 28 27 25 25 24 23 24 23
30 29 29 30 31 33 30 31 31 32 31 32 32 30 29 30 31 31 29 28 28 28 28 29 28 28 28 29 29 30 31 32 30 28 27 26 25 25 23 22 21 21 22 22

GFSCGP_sfc_dewp_105.txt.gz
Dewpoint
44 39 39 41 41 39 38 36 34 35 34 36 36 36 38 38 38 35 30 29 33 42 46 51 55 57 58 54 50 52 55 56 58 60 59 58 58 58 59 60 61 61 60 60
43 40 37 39 42 41 40 38 36 36 34 36 36 36 37 38 39 39 35 33 30 34 43 49 54 57 58 57 55 53 54 54 56 57 58 57 57 58 58 61 62 61 60 60
37 37 38 37 38 39 39 39 36 35 35 35 35 35 36 38 39 40 40 39 34 30 37 45 51 55 58 59 59 57 56 55 55 56 56 57 59 60 59 61 62 62 61 61
37 35 38 37 36 38 37 40 38 36 37 36 36 34 36 37 37 39 40 40 39 34 32 39 47 53 57 59 60 60 60 58 57 56 56 58 59 59 60 61 62 63 62 61
38 35 37 39 37 39 39 40 40 39 37 36 35 33 34 34 34 36 35 39 41 37 33 35 43 51 54 59 60 61 61 61 59 58 57 59 60 60 61 61 61 61 62 62
38 41 37 37 39 41 39 38 37 37 37 33 36 33 32 31 34 35 35 34 39 36 32 34 41 49 53 57 60 61 61 61 61 60 60 59 60 60 61 61 61 62 62 62
38 40 40 40 36 40 39 38 33 32 32 31 29 34 32 34 35 35 35 35 35 37 35 32 36 45 51 55 58 60 61 60 61 61 61 61 61 61 61 61 61 61 61 61
34 32 39 41 39 36 38 36 28 23 24 23 30 29 30 34 34 34 35 33 30 33 32 32 33 41 50 53 56 58 58 59 60 61 61 61 61 61 61 61 61 61 60 59
31 34 40 40 38 38 37 35 34 28 26 27 25 27 28 31 30 29 27 30 34 30 29 31 32 33 43 50 52 56 56 57 58 59 60 61 61 61 61 61 62 61 61 59
31 33 37 38 39 38 37 36 33 35 30 25 21 25 25 29 28 27 28 28 26 28 33 29 27 30 33 37 45 51 54 55 56 58 59 60 61 61 61 61 61 61 60 57
31 33 33 38 37 36 36 35 35 33 32 26 23 20 25 23 11 18 20 20 19 20 22 25 28 28 31 34 37 39 46 50 53 55 57 59 60 60 61 61 61 61 59 54
33 32 32 34 34 38 36 34 33 29 29 29 28 25 17 15 17 20 18 20 23 25 26 28 30 30 31 35 37 38 38 41 47 52 56 58 59 60 60 60 60 59 55 52
33 33 27 29 34 36 35 35 34 30 32 29 28 23 24 24 21 19 19 20 26 28 28 30 31 32 32 34 37 38 39 40 43 48 54 56 58 58 59 59 57 52 51 48
35 32 29 26 29 35 34 35 35 32 30 28 28 24 20 21 20 19 21 30 28 28 27 28 33 33 34 36 38 40 40 41 44 45 50 56 56 57 57 55 52 49 46 44
31 32 28 27 28 33 35 35 35 33 31 28 28 27 28 28 28 28 30 32 29 27 24 28 32 35 35 36 40 42 42 44 45 46 47 50 54 53 50 47 46 44 42 42
32 31 27 30 29 32 33 33 35 35 34 32 31 29 29 29 30 29 30 30 29 26 25 27 30 34 36 36 39 42 44 45 46 46 47 47 48 46 44 42 40 38 38 36
31 32 34 29 29 28 29 31 34 34 34 33 30 31 32 31 30 30 29 30 31 28 26 27 29 29 36 37 39 41 44 45 46 46 44 43 40 39 39 37 36 35 33 32
30 33 34 27 32 23 29 26 31 33 33 35 33 33 33 33 32 34 34 33 32 31 31 29 29 29 30 40 40 41 44 45 44 43 41 39 39 38 35 34 34 33 31 30
30 30 30 27 28 27 24 26 28 30 29 32 33 33 33 32 33 30 31 32 33 32 32 33 33 33 34 37 40 42 43 42 42 41 40 38 37 35 33 34 31 29 28 27
30 28 30 31 27 24 22 28 29 30 25 27 30 30 30 29 27 27 27 31 32 33 36 38 39 38 38 38 40 41 40 40 40 40 39 37 36 35 33 32 30 29 29 28
32 33 32 31 32 34 31 27 30 28 28 33 29 29 29 28 28 29 30 30 33 35 36 38 38 37 37 38 39 39 39 38 39 37 36 35 35 34 34 32 29 29 29 27
29 30 31 32 30 26 31 27 25 28 33 31 29 28 27 29 30 31 31 33 33 34 35 36 38 37 37 38 37 37 37 37 35 34 34 33 34 33 32 31 29 29 29 28
29 31 34 32 33 35 30 34 32 33 34 33 33 33 29 31 31 31 32 32 33 32 33 34 36 36 34 35 36 36 36 34 32 32 31 33 33 32 32 30 29 28 28 26
33 36 36 36 37 34 32 30 30 31 32 32 33 32 33 31 32 31 32 31 31 31 31 32 33 32 31 33 33 33 33 32 31 32 32 32 31 32 32 30 28 28 27 25
31 32 34 34 33 33 33 34 32 33 33 31 32 32 32 32 31 30 30 30 30 29 30 30 29 29 28 30 30 31 31 31 32 32 30 31 31 30 29 29 28 27 27 26
29 29 29 31 33 34 33 33 35 34 33 33 31 30 31 33 32 30 29 28 28 27 27 27 26 26 26 27 27 26 29 30 31 31 29 29 28 28 27 26 24 23 24 24

GFSCGP_sfc_dewp_108.txt.gz
Dewpoint
45 42 39 39 42 39 36 35 35 35 35 36 35 33 34 36 37 36 35 31 30 37 46 53 55 57 58 52 50 56 59 60 61 60 60 58 58 58 58 59 59 60 60 60
43 39 39 39 42 42 40 38 35 36 35 36 36 35 36 36 37 39 39 38 31 31 40 49 53 55 57 54 49 51 58 60 60 61 60 59 58 58 58 59 61 61 61 60
38 37 39 38 38 41 40 39 38 36 34 35 35 35 36 37 38 39 39 40 39 33 33 44 52 54 57 57 52 51 53 57 58 59 59 58 58 58 58 58 60 61 61 60
39 37 38 37 35 41 39 42 41 37 36 35 36 32 35 37 37 38 38 39 40 39 33 37 49 53 56 57 57 53 52 53 54 56 57 56 55 56 57 58 60 61 61 61
38 36 37 36 35 39 38 41 40 40 38 37 36 34 35 36 35 37 38 39 40 41 38 32 43 51 54 57 58 58 56 54 54 55 55 55 55 58 59 60 60 62 62 61
39 38 37 37 36 37 40 39 38 38 38 33 36 34 33 34 35 35 36 37 38 41 41 34 35 47 52 56 58 59 59 57 57 55 55 55 56 58 59 59 60 61 61 61
40 37 37 38 37 40 40 38 32 32 31 31 34 35 34 35 35 35 36 37 37 37 41 38 34 42 50 53 57 58 59 59 59 58 56 56 56 58 59 60 60 60 60 61
34 32 36 39 38 38 38 36 30 24 25 25 29 28 32 37 37 37 36 35 36 31 37 37 34 38 46 52 54 57 58 59 60 60 59 58 57 59 60 60 60 60 60 61
34 35 40 39 38 39 38 36 35 27 21 26 27 29 30 32 31 31 30 29 33 35 30 31 33 34 43 50 53 56 57 59 59 60 60 60 60 59 60 60 60 61 61 60
33 32 38 39 39 39 38 36 32 32 23 22 24 24 24 28 27 27 28 29 28 28 29 29 27 29 32 44 51 53 56 57 58 59 60 60 60 60 60 60 60 61 61 59
34 34 33 38 37 36 36 35 34 32 31 26 23 22 26 23 12 20 20 20 20 20 22 25 28 29 29 32 38 46 51 55 55 57 58 59 60 60 61 61 61 61 60 59
39 35 31 35 35 37 36 34 34 28 28 29 28 26 17 14 17 20 19 23 24 26 26 29 30 31 31 31 33 35 38 46 51 53 55 56 58 59 60 60 60 59 60 56
39 34 28 30 35 37 36 35 34 32 30 28 26 24 19 18 20 19 21 22 27 27 28 30 32 32 32 33 35 37 38 38 41 44 50 53 55 56 58 58 58 56 53 53
39 33 29 27 29 34 34 35 35 33 29 27 27 25 21 21 22 20 19 22 30 30 26 26 31 33 34 35 36 38 39 40 41 43 46 50 52 54 56 56 54 52 50 49
36 30 29 28 32 33 33 35 34 33 31 27 25 28 28 23 23 25 29 31 30 29 27 25 28 32 34 35 38 40 41 42 42 44 44 46 50 53 53 51 50 47 46 47
37 31 30 28 31 34 33 33 34 34 32 30 29 28 30 30 30 29 30 31 32 32 31 28 28 30 33 34 36 40 42 43 45 44 44 45 47 46 46 44 42 41 40 40
34 30 28 27 32 32 31 33 34 34 34 32 30 31 31 30 31 31 31 31 30 30 29 28 28 30 29 34 36 39 43 43 43 41 39 39 39 39 39 40 39 38 38 36
32 31 32 28 30 24 28 34 35 34 33 34 33 34 34 34 34 34 34 34 33 33 32 32 32 32 32 37 39 40 41 42 40 38 38 37 37 36 34 35 36 35 34 34
34 31 29 27 26 25 25 26 33 34 33 34 35 35 34 35 36 33 31 32 33 34 36 37 38 37 37 38 39 39 38 37 37 37 36 35 35 32 34 33 33 32 32 30
37 35 30 30 24 20 24 28 30 32 27 31 34 34 35 34 29 29 29 32 34 35 37 38 39 38 38 39 39 36 36 36 35 36 36 35 33 32 34 33 31 30 31 31
31 32 30 29 21 26 27 28 31 24 24 28 31 32 33 31 30 30 32 34 35 36 36 37 38 37 37 36 34 34 34 34 35 33 32 30 30 31 33 31 29 30 30 29
30 30 30 27 18 19 28 29 26 28 28 28 29 27 30 32 32 33 33 33 33 33 33 35 36 34 34 32 33 32 32 31 28 28 27 26 27 29 32 32 30 30 29 29
26 29 29 27 26 32 28 30 30 31 30 32 32 31 31 31 31 32 32 32 31 31 31 31 31 29 30 29 30 30 29 28 26 25 23 23 26 32 32 31 30 29 30 29
29 30 29 25 28 29 28 30 30 31 32 33 33 32 32 31 32 31 31 30 29 28 28 27 26 26 26 27 28 27 27 25 25 23 23 24 24 24 28 30 30 29 29 28
29 29 28 29 28 28 28 29 32 32 32 32 32 33 32 32 31 30 29 28 28 27 26 25 24 24 24 24 23 24 26 26 28 23 23 23 23 23 23 27 28 28 28 29
21 21 26 26 28 31 31 32 33 31 31 30 29 29 30 30 29 28 27 26 26 24 23 22 21 21 20 20 19 19 21 23 22 22 22 22 21 21 22 21 20 25 25 28

GFSCGP_sfc_dewp_111.txt.gz
Dewpoint
46 41 38 39 41 39 37 36 36 36 35 33 32 32 33 34 31 29 29 30 30 48 54 56 58 58 58 54 56 58 60 61 61 60 59 57 55 55 56 58 58 59 59 59
43 40 39 40 42 42 41 38 35 37 35 35 35 34 35 35 35 36 37 38 33 30 45 53 55 58 58 54 55 57 59 60 61 60 59 59 57 57 56 57 58 59 59 59
38 39 40 39 38 40 41 39 38 35 34 35 35 35 36 37 37 38 39 39 40 35 31 51 53 56 57 56 51 56 58 59 60 60 60 59 58 58 58 58 58 59 60 60
39 39 39 38 37 40 38 41 40 37 35 33 37 32 35 36 36 37 38 39 39 40 32 39 52 54 55 57 51 50 57 59 60 60 60 59 57 57 57 57 58 60 61 60
40 38 38 37 36 38 38 42 40 38 36 37 36 34 35 36 35 37 38 38 39 41 40 34 49 53 55 57 54 50 52 58 59 59 59 59 57 57 57 58 58 59 61 60
39 42 38 37 37 37 40 39 38 38 38 33 36 34 34 35 35 35 36 38 39 40 40 40 38 51 54 56 57 55 51 52 56 57 57 57 57 56 56 58 58 59 60 61
37 39 42 38 36 40 40 38 33 32 32 29 35 34 35 35 35 36 36 36 37 38 41 41 36 44 52 55 57 58 55 52 53 54 54 56 56 55 56 57 58 59 60 60
33 31 39 42 35 37 37 36 30 24 26 26 31 30 34 38 37 37 38 37 37 37 33 41 40 37 50 54 56 57 58 57 56 54 54 55 55 55 56 58 59 60 60 61
33 34 40 40 37 37 36 36 34 27 19 24 27 28 30 32 37 36 34 32 30 33 35 31 38 36 44 51 55 57 58 59 59 58 57 56 55 55 56 57 59 60 60 60
36 34 39 39 39 40 36 36 32 31 20 20 24 25 25 29 31 31 29 30 30 27 27 30 28 31 36 47 53 55 57 58 59 59 60 59 58 57 56 58 59 60 60 60
36 36 35 39 38 37 36 35 34 31 30 23 20 22 27 26 27 23 20 19 19 20 22 25 27 29 29 31 47 52 55 57 58 59 60 60 60 60 59 58 59 60 59 59
41 37 32 35 37 37 36 35 34 29 27 28 27 23 26 15 17 21 19 23 24 24 26 28 30 32 31 30 30 33 40 50 54 55 58 58 59 60 60 60 60 59 59 59
41 34 31 31 35 37 36 35 34 31 31 28 25 25 20 19 19 19 22 24 25 26 27 29 31 31 32 32 32 33 35 36 39 46 52 54 55 57 58 60 60 59 59 59
41 35 33 28 30 36 34 34 34 32 27 26 27 24 22 17 20 19 22 24 27 29 27 26 30 31 32 33 34 35 37 38 39 39 41 45 49 52 55 55 54 54 54 54
38 32 34 34 33 35 35 34 34 32 30 27 26 28 27 23 20 22 20 20 31 29 27 25 27 30 32 34 35 37 39 40 41 41 42 43 45 49 51 51 51 50 49 50
40 33 33 32 35 34 33 33 34 34 33 31 28 27 29 29 28 27 28 30 31 32 32 27 28 28 31 31 33 35 39 41 42 42 42 42 44 45 45 45 44 44 43 44
39 34 32 30 34 33 31 34 35 34 34 32 29 29 31 30 30 30 31 31 30 30 29 30 32 30 31 31 33 35 38 42 42 41 39 38 39 41 40 40 40 40 40 38
33 34 32 28 33 26 31 34 35 35 34 34 34 32 32 32 33 33 33 33 33 33 33 33 35 35 36 37 39 39 41 40 39 38 37 37 37 36 36 38 38 37 36 36
39 36 30 28 30 27 25 32 33 33 32 34 33 33 34 35 34 34 32 32 33 35 37 38 38 38 38 39 40 38 37 37 37 37 37 36 36 31 35 34 35 36 34 33
38 36 31 29 26 24 24 27 36 35 30 33 34 34 35 35 33 33 31 33 34 36 36 38 37 37 37 36 36 34 34 35 35 35 35 35 33 30 35 34 33 31 31 32
31 31 31 30 21 23 27 29 36 31 27 30 33 35 36 35 35 31 34 34 35 35 36 37 35 34 34 34 33 32 32 32 32 32 31 29 29 33 33 33 30 31 31 30
31 30 29 25 16 20 28 33 30 28 28 28 32 34 35 32 32 33 33 32 32 33 34 34 33 32 31 30 31 30 30 30 27 26 26 25 30 32 32 33 31 31 31 30
29 29 29 28 26 29 30 30 31 29 28 31 30 32 32 31 32 32 31 31 30 30 30 29 29 28 28 27 28 28 28 27 25 24 22 28 26 32 32 32 31 30 31 30
30 30 31 27 26 27 29 29 30 31 32 32 31 32 31 31 31 31 30 29 28 28 27 25 25 24 23 23 24 25 26 28 28 22 22 21 21 21 25 30 30 31 30 29
23 28 28 26 27 28 30 30 32 32 32 32 31 32 32 31 30 29 28 27 26 25 24 23 22 21 20 19 19 18 21 21 22 21 21 21 20 18 19 22 27 28 28 30
15 12 21 25 22 23 31 30 32 30 30 30 29 29 29 29 28 27 26 25 24 22 21 19 18 17 15 14 14 15 16 19 19 21 21 20 18 18 18 17 17 25 25 27

GFSCGP_sfc_dewp_114.txt.gz
Dewpoint
47 42 39 40 39 37 36 35 35 35 36 31 32 33 34 36 35 34 30 30 35 49 54 57 57 57 58 58 58 58 59 61 61 60 56 55 54 54 55 56 58 58 58 58
44 40 39 40 41 41 39 36 35 37 36 34 33 32 32 34 34 33 32 31 31 33 49 55 57 58 58 56 57 58 59 60 61 61 59 56 55 55 54 56 57 58 58 58
39 38 40 39 40 40 39 37 36 36 35 36 35 34 35 37 37 36 36 33 33 34 33 48 55 57 58 58 56 57 59 60 60 60 60 58 57 57 56 56 57 58 59 58
40 40 40 38 38 38 35 40 40 39 35 32 35 30 34 35 36 37 37 38 38 39 39 36 51 55 57 58 56 56 57 59 60 60 59 58 57 56 56 56 56 57 59 59
39 38 39 38 37 39 35 40 40 39 36 37 36 34 34 36 35 36 37 38 38 39 40 39 41 52 56 58 57 55 56 57 58 59 59 59 58 58 57 57 57 57 59 59
40 45 39 39 39 38 40 39 38 36 37 33 34 34 31 33 36 36 37 38 38 39 40 41 38 49 53 57 57 53 53 56 58 59 59 59 58 58 57 57 57 57 58 60
38 38 42 40 37 38 40 37 31 31 30 25 30 33 31 35 37 37 37 37 37 39 40 40 41 43 51 55 56 55 51 53 57 58 59 59 58 58 57 56 57 57 58 58
29 27 37 42 38 36 37 35 29 24 25 24 34 32 33 37 37 38 37 37 37 38 38 38 41 40 48 53 55 56 52 51 54 57 58 58 58 58 57 56 56 57 57 58
34 32 37 39 40 37 35 35 33 26 18 24 28 29 30 32 34 37 38 38 37 34 33 35 33 42 40 51 54 56 57 54 52 53 55 55 56 57 56 56 56 57 57 58
34 31 38 38 40 39 36 36 32 33 22 19 23 25 26 27 31 32 34 34 33 32 29 28 30 33 38 49 54 56 57 57 56 54 53 53 54 55 55 55 55 57 58 59
35 33 33 40 38 34 37 34 35 32 28 23 20 21 28 28 30 30 32 25 27 22 22 24 27 29 29 36 49 52 55 56 57 59 58 57 56 55 55 55 55 56 58 59
37 32 27 32 39 40 38 34 35 30 28 28 26 22 27 23 26 27 23 20 20 22 26 28 30 31 30 29 31 42 50 53 55 56 58 58 59 59 58 56 56 57 58 59
37 34 28 32 35 38 37 37 35 33 28 27 26 24 24 18 19 20 21 23 24 25 27 28 29 29 30 30 31 31 32 34 42 50 53 54 55 58 59 59 58 58 58 59
41 34 31 24 29 34 34 37 36 33 29 27 27 26 25 17 18 18 22 25 26 27 27 26 28 30 31 32 32 33 35 37 37 37 39 44 48 51 53 54 56 57 58 58
39 34 32 33 35 35 34 35 36 34 31 28 27 28 27 23 19 20 21 25 26 29 29 26 27 29 31 32 33 35 36 38 39 40 40 40 41 44 47 48 50 51 51 53
38 33 36 32 34 35 34 37 36 35 35 33 30 26 29 28 23 21 20 21 26 31 29 28 26 28 29 30 31 32 35 38 41 41 40 41 41 43 45 45 43 43 43 44
33 32 32 28 31 32 31 34 35 37 35 33 30 30 30 29 29 25 23 21 24 31 32 29 29 30 31 33 36 35 36 39 40 39 38 38 39 40 40 39 40 40 40 40
30 29 29 24 31 24 30 31 36 36 34 35 33 33 32 30 30 32 30 31 32 31 31 32 34 35 37 39 39 39 39 39 38 37 37 37 37 36 37 39 38 37 36 37
30 29 24 23 28 30 29 30 34 35 33 34 34 34 33 33 33 32 33 33 33 34 36 37 37 37 38 38 38 37 36 36 36 36 36 36 35 31 34 35 36 37 35 34
32 31 26 27 27 25 25 28 37 36 32 34 35 34 34 34 30 31 32 34 35 36 37 37 37 36 36 35 35 34 33 33 33 33 34 34 32 31 35 35 33 31 32 32
31 31 27 27 29 27 28 31 36 32 28 32 34 35 35 34 34 32 33 33 35 36 36 35 34 33 33 32 32 31 31 30 31 31 30 30 30 33 33 33 31 31 31 31
30 31 30 31 28 25 29 35 32 31 27 28 30 33 35 36 34 33 33 33 33 34 33 33 31 29 28 29 30 30 29 29 26 27 29 31 33 32 33 33 31 31 32 31
29 33 31 32 29 30 33 30 31 28 27 30 29 33 35 34 32 32 32 31 31 31 29 29 28 26 25 27 29 29 28 28 24 24 29 28 30 32 32 33 31 30 31 30
33 29 33 31 29 28 30 31 32 32 31 31 32 32 34 32 31 30 30 29 28 27 26 25 24 22 21 21 22 23 25 27 20 21 22 21 22 21 28 30 30 31 30 29
19 21 23 29 25 27 31 28 28 31 31 30 31 31 31 30 29 29 28 26 25 24 23 22 21 19 17 17 17 16 19 19 21 20 20 20 19 17 18 21 23 27 28 30
10 7 13 19 16 17 26 26 27 28 28 28 29 28 29 29 28 27 25 24 23 21 19 17 15 14 12 12 12 12 13 16 16 20 19 18 18 17 17 16 17 26 28 28

GFSCGP_sfc_dewp_117.txt.gz
Dewpoint
46 42 40 40 38 37 35 35 34 35 38 33 34 35 36 36 35 36 36 33 41 51 55 56 56 57 58 58 58 58 59 61 61 57 55 55 55 55 55 56 57 57 57 57
43 40 40 41 41 39 37 34 33 37 38 34 34 33 33 34 35 35 35 34 32 32 44 52 56 57 57 58 58 58 58 60 62 61 57 56 55 55 55 55 56 57 57 57
37 38 41 39 39 39 38 37 35 35 37 35 33 34 35 36 34 34 35 35 34 32 31 36 54 57 57 57 57 58 58 58 61 61 60 57 55 56 54 54 55 57 58 58
40 40 40 38 38 38 36 39 39 38 36 32 34 29 32 35 35 36 36 36 35 33 33 32 44 55 57 57 58 58 58 58 60 61 60 58 56 54 54 54 55 56 58 58
36 39 39 38 37 39 36 39 39 38 36 35 33 33 31 34 34 35 36 37 38 38 37 36 35 50 56 57 57 57 57 58 59 60 60 60 59 58 56 56 55 55 57 58
38 44 40 39 39 39 39 38 37 36 35 30 30 33 28 31 35 36 36 37 38 38 39 39 40 40 50 56 57 58 57 57 59 59 59 59 59 58 57 56 56 56 56 57
38 39 42 41 38 38 39 36 31 30 30 24 25 31 30 33 34 35 35 37 38 39 39 40 40 40 43 51 56 57 56 56 57 58 59 59 58 58 58 57 57 57 57 57
32 30 38 42 39 37 37 35 29 22 24 24 29 28 28 35 35 35 36 38 38 38 38 39 40 42 41 49 55 57 56 55 56 57 57 58 58 58 58 58 57 57 57 57
28 28 36 37 40 38 37 36 35 30 18 22 27 31 31 33 33 36 37 37 38 38 38 38 38 39 41 47 53 55 56 54 54 56 57 57 58 58 57 57 57 57 57 57
33 31 36 36 39 39 38 37 34 34 25 20 23 25 26 30 31 32 31 33 37 38 36 33 33 35 38 43 51 54 56 54 53 54 57 57 57 58 58 57 57 56 56 56
35 32 29 39 37 34 37 35 37 35 30 23 19 20 28 28 28 29 30 32 34 33 32 29 27 29 29 37 49 53 55 56 54 52 53 55 56 56 57 57 56 56 56 56
34 34 25 29 38 40 36 34 35 33 27 29 26 25 26 28 25 27 28 29 25 23 22 25 28 30 29 29 42 50 52 54 55 56 56 54 54 54 54 54 55 55 55 56
35 32 27 23 31 38 38 38 37 34 31 27 25 25 28 19 18 21 24 21 21 24 26 28 29 29 29 29 30 31 38 47 49 52 54 55 56 56 57 56 55 55 55 57
38 31 26 20 20 28 30 33 36 37 33 30 28 27 28 26 18 19 20 23 23 25 27 27 27 29 30 31 32 33 34 35 36 37 42 48 50 52 53 54 56 57 57 57
38 33 32 31 31 33 34 31 34 35 34 33 32 29 30 29 26 20 19 23 25 27 28 27 27 29 30 31 32 33 34 37 38 38 38 38 39 41 43 45 46 47 49 52
38 30 33 30 35 32 31 33 36 34 33 33 34 32 32 30 28 20 20 22 24 27 30 30 26 27 29 29 31 31 32 36 40 40 40 40 40 41 44 44 43 43 43 44
33 31 28 21 30 31 29 30 31 34 36 35 33 33 34 30 30 28 23 21 22 24 31 31 30 28 29 31 36 36 38 39 39 39 37 37 38 40 40 40 40 39 39 40
29 26 21 15 21 18 23 31 32 31 33 35 37 37 36 35 33 32 32 26 22 24 30 31 31 32 36 38 38 38 38 38 37 36 36 36 36 36 37 38 38 38 37 37
30 26 17 11 8 19 18 16 30 30 30 32 32 34 35 36 33 31 32 29 27 28 32 34 36 37 37 37 37 36 35 35 35 34 35 35 35 33 35 36 37 36 35 33
30 28 21 9 8 11 10 28 34 33 28 30 32 33 33 34 32 33 33 34 34 35 37 37 36 36 35 34 34 33 32 32 33 33 33 33 33 34 34 34 33 32 32 31
27 28 22 20 14 18 24 27 36 30 28 31 33 34 35 34 34 34 34 34 35 36 36 35 34 32 31 32 32 31 31 30 31 31 31 31 32 34 33 32 31 32 32 32
25 25 24 24 21 17 28 33 31 32 28 27 29 35 36 36 36 34 33 34 34 33 33 32 30 29 30 31 31 30 29 29 27 29 30 32 33 32 33 33 32 32 32 32
24 29 27 27 25 29 31 29 31 31 29 29 30 29 35 36 34 32 32 32 32 31 30 29 27 26 26 27 30 29 28 28 25 29 29 29 31 32 32 33 32 31 31 31
31 23 30 29 27 25 27 27 26 28 31 31 31 31 33 33 32 30 30 30 29 28 27 26 25 23 22 22 23 23 24 23 22 23 23 22 22 26 29 30 30 31 30 30
18 17 17 28 24 21 27 21 22 25 28 27 29 29 31 31 29 29 29 27 26 25 24 23 22 20 19 19 18 17 20 21 22 21 20 20 19 17 18 20 24 26 27 29
8 4 9 17 11 10 14 19 20 22 24 24 27 27 28 29 28 27 25 24 23 21 20 18 17 15 14 13 13 12 13 17 18 19 19 18 18 16 16 15 16 26 30 30

GFSCGP_sfc_dewp_120.txt.gz
Dewpoint
47 42 40 39 38 36 35 33 33 34 38 35 34 35 36 38 36 35 37 37 37 49 53 55 56 57 58 58 58 58 60 62 59 59 58 57 57 56 56 57 57 58 58 57
43 40 40 41 40 39 36 33 32 36 37 36 36 35 36 35 36 37 37 36 36 35 42 50 55 56 57 57 58 59 58 60 61 58 58 57 57 56 56 56 56 57 57 57
39 38 41 40 39 38 37 38 36 34 37 35 33 33 35 36 35 36 35 36 36 36 34 34 48 55 56 57 57 58 58 58 60 61 59 56 55 55 54 54 55 56 57 57
40 39 40 38 38 39 36 39 38 37 36 30 33 28 31 33 34 36 36 36 35 35 35 34 33 46 55 56 57 58 58 58 59 61 60 58 57 55 55 55 55 55 56 57
36 39 39 37 37 39 36 39 38 38 36 34 32 32 31 34 32 33 35 37 37 37 36 35 35 35 49 55 56 57 58 58 58 60 60 59 58 58 57 55 54 54 56 56
36 41 40 38 39 39 39 37 36 34 35 31 30 31 26 28 29 33 35 36 37 38 38 38 38 37 40 53 56 57 57 57 58 59 60 60 59 59 57 55 54 54 55 56
38 38 40 40 37 38 38 34 26 29 29 25 26 28 27 29 33 35 35 35 35 37 38 39 39 40 39 47 55 56 57 57 58 58 59 59 60 59 59 58 56 56 55 55
33 31 38 41 38 37 37 34 27 23 23 23 27 24 25 32 32 32 32 33 35 38 39 39 40 41 41 41 50 54 56 56 57 58 59 59 59 59 59 59 58 57 57 57
30 30 36 39 40 39 38 35 34 31 16 23 25 28 30 33 33 34 35 36 37 37 38 38 39 39 41 42 44 52 54 56 56 56 58 58 59 59 58 58 58 58 57 57
32 27 34 36 40 40 39 40 32 34 24 19 22 24 25 28 30 32 32 32 32 35 37 39 38 38 38 40 43 51 55 56 56 56 56 57 58 58 58 58 58 58 58 57
35 29 31 37 36 35 37 35 36 35 33 24 19 21 26 27 28 30 31 31 31 32 34 35 34 29 30 31 38 48 53 55 54 54 55 56 57 57 58 57 57 57 57 56
36 33 26 28 38 37 35 34 33 30 26 32 29 27 25 26 28 28 25 24 26 29 27 25 25 28 29 29 32 45 50 53 54 52 52 54 56 56 57 57 57 56 56 56
35 29 25 25 27 36 35 36 36 33 32 28 27 23 25 28 25 22 21 22 23 22 24 27 28 28 28 28 29 31 44 50 51 53 53 52 52 53 54 54 55 54 54 55
36 29 23 17 18 26 30 33 35 35 30 30 29 27 27 27 27 28 29 23 22 23 26 26 27 28 30 31 31 32 33 34 36 40 48 50 51 52 53 54 55 54 55 55
34 31 29 29 29 30 30 29 31 34 31 27 23 26 30 31 30 30 30 28 22 23 26 28 27 29 29 30 32 33 34 36 38 37 37 37 38 40 42 44 46 47 48 51
38 32 34 31 33 34 31 32 32 31 30 31 30 29 31 32 34 33 29 28 25 23 25 28 30 27 28 29 30 31 33 35 38 38 38 39 40 41 43 43 43 42 42 43
34 32 26 13 26 29 21 29 31 30 32 33 31 32 33 32 32 31 30 29 27 23 24 28 31 28 28 30 36 36 38 38 38 37 36 36 38 39 38 39 39 38 39 39
31 27 18 8 13 9 19 28 31 30 30 30 31 32 32 33 34 36 36 33 30 27 23 27 32 30 34 37 37 37 37 36 36 35 35 35 36 36 37 38 38 37 37 36
29 27 10 9 6 14 13 15 21 26 22 30 30 30 31 33 35 35 36 37 34 31 27 26 33 34 37 36 36 35 33 33 33 33 34 34 35 34 36 35 35 35 34 33
28 24 17 8 2 0 2 13 20 26 23 27 30 31 31 32 30 31 31 35 36 33 31 34 36 36 34 34 34 33 32 33 33 33 34 34 34 35 35 34 33 32 32 31
25 26 20 16 5 13 19 22 33 18 11 22 26 28 31 30 31 32 35 34 34 34 35 34 34 32 31 32 31 32 32 31 32 32 32 32 32 34 33 32 32 32 32 32
20 19 18 19 18 11 26 25 16 22 29 29 29 30 30 31 34 34 34 33 33 33 32 31 30 29 30 30 31 30 30 29 29 30 31 32 33 32 33 33 32 32 33 32
20 23 19 22 20 27 27 27 23 22 24 27 27 29 30 31 31 35 33 32 31 31 29 29 28 28 27 28 31 29 29 28 28 31 31 32 32 32 32 33 32 31 32 31
27 21 28 26 24 20 24 22 18 17 18 22 24 25 29 30 32 32 31 31 30 28 26 25 26 25 23 23 24 24 23 24 21 24 25 26 29 28 29 29 30 30 30 30
13 15 14 20 19 15 22 14 12 13 16 17 20 22 27 28 30 29 30 28 27 25 24 23 22 21 20 19 18 17 20 24 24 23 22 22 21 21 22 23 26 25 27 30
5 2 9 16 6 3 5 7 9 12 12 15 19 20 25 25 28 27 25 24 22 21 19 17 16 16 15 15 14 15 17 22 23 22 21 20 19 18 18 19 20 30 30 30

GFSCGP_sfc_dewp_123.txt.gz
Dewpoint
46 42 39 40 38 36 35 35 34 35 38 36 34 35 36 37 37 36 36 36 37 37 44 52 56 57 58 59 59 60 61 62 61 61 60 60 59 59 58 59 59 59 59 58
43 39 39 40 40 39 36 35 34 36 38 37 36 36 37 37 37 37 37 37 37 38 38 43 53 56 57 58 58 59 60 61 61 61 60 59 59 59 58 58 58 58 59 58
38 38 41 40 39 38 38 38 36 34 37 37 34 32 33 35 37 37 37 37 37 38 38 38 39 53 56 57 57 58 59 59 61 61 60 57 57 56 57 57 57 57 58 58
41 41 41 39 38 39 37 39 39 37 36 32 35 28 31 32 32 35 36 37 36 37 37 37 37 38 52 55 57 58 59 59 60 61 59 58 58 57 57 57 57 57 57 57
37 38 40 39 38 40 37 39 39 38 37 36 33 34 30 33 32 32 34 35 37 38 38 37 37 38 38 51 55 57 58 58 59 60 60 59 58 58 58 57 56 57 57 57
38 41 39 38 39 39 39 37 36 36 36 31 31 31 28 27 28 31 33 33 35 37 38 39 39 40 38 44 53 56 57 57 58 59 60 60 59 58 58 57 56 56 56 56
38 38 40 39 37 39 38 35 30 29 28 25 28 30 28 29 31 33 33 34 36 37 37 38 39 40 41 40 50 54 56 56 58 58 59 60 60 59 59 58 56 56 55 55
32 31 39 40 36 36 37 33 27 19 22 23 27 25 25 31 31 31 31 31 33 35 37 39 40 41 42 43 44 52 54 56 57 58 58 59 59 60 59 59 58 57 56 56
31 29 37 39 40 36 36 32 33 29 18 24 25 27 27 31 31 33 34 35 35 37 38 38 39 40 41 42 43 48 53 55 56 57 58 58 59 59 59 59 60 59 58 58
31 29 34 36 37 39 37 38 33 34 24 20 22 23 24 26 25 26 31 33 33 33 33 33 36 39 40 41 43 44 49 52 55 56 57 57 58 59 59 59 59 59 59 58
34 29 34 36 34 33 35 35 36 36 33 24 19 21 26 26 26 27 29 31 29 27 27 28 28 32 31 33 35 40 48 52 54 56 56 57 58 58 59 59 59 59 58 58
36 32 27 32 35 35 36 34 37 32 28 32 30 26 26 26 27 28 25 24 24 25 25 24 27 29 30 31 32 37 45 51 54 54 55 56 56 57 57 58 58 58 57 57
37 32 24 25 25 34 35 35 35 35 33 29 25 21 24 26 27 28 27 30 29 25 24 26 27 28 29 29 30 30 39 49 51 53 52 53 55 55 56 57 57 57 57 57
35 30 24 19 19 27 30 32 35 35 31 27 27 24 23 26 31 32 32 33 32 32 25 26 28 27 29 31 32 33 34 36 38 46 51 51 51 52 53 54 54 54 55 55
33 27 28 28 28 29 28 29 32 33 31 24 23 21 22 26 32 33 33 32 32 33 30 27 28 29 28 30 32 33 33 36 38 37 37 38 39 41 44 46 47 47 48 50
37 29 30 27 30 31 29 30 31 32 32 31 30 30 29 29 32 33 33 33 33 33 31 27 27 30 28 29 30 31 33 36 38 38 39 40 41 43 44 44 44 43 43 44
35 31 29 24 28 29 22 27 28 29 30 30 27 27 28 31 32 32 33 32 32 32 32 29 28 28 31 29 31 34 37 38 38 38 37 38 39 39 39 39 39 39 40 39
33 29 26 21 16 12 19 26 29 27 28 29 30 30 30 30 31 32 32 32 32 33 35 34 29 28 31 32 36 37 38 37 37 36 36 36 38 37 38 38 38 37 37 37
31 27 18 13 3 14 14 16 23 25 19 29 30 29 29 31 30 29 31 32 33 34 36 37 36 29 33 36 37 36 35 34 35 35 36 35 36 35 37 36 37 36 36 35
28 24 16 5 -0 -1 7 12 19 20 14 15 22 24 26 28 27 23 32 33 33 34 35 36 34 34 35 35 35 34 34 34 35 34 35 35 35 35 36 35 34 33 33 33
21 17 10 -0 0 11 16 16 28 13 11 27 29 28 27 28 29 30 31 31 33 35 34 34 34 34 34 33 33 33 33 33 34 33 33 33 33 34 35 33 33 33 33 33
18 15 8 4 1 8 26 20 15 20 24 24 23 24 24 24 25 27 30 31 33 34 33 32 31 31 31 31 32 32 32 31 30 31 32 33 33 33 33 33 33 33 33 33
17 20 17 18 17 26 25 25 17 14 16 17 16 18 19 20 22 25 26 30 32 31 30 30 30 29 28 30 32 30 29 29 30 32 33 32 33 33 33 33 33 32 33 32
25 21 26 22 22 22 22 17 9 10 12 12 13 14 17 18 20 23 26 30 30 28 27 27 27 26 24 24 25 25 26 28 31 31 30 30 30 30 31 31 31 32 31 31
13 15 11 19 19 17 15 8 5 8 9 9 10 12 13 17 17 21 25 27 26 24 22 23 22 21 19 19 19 20 23 25 26 26 26 27 27 28 27 27 29 29 30 30
4 0 11 14 2 1 5 3 3 6 6 7 8 10 12 16 16 18 23 21 20 20 19 18 17 16 15 15 14 15 18 22 23 22 23 23 23 23 26 28 29 31 30 30